[[{"header":{"parameterUnit":"m.s-1","parameterCategory":1,"la1":30.6,"la2":29.2853,"lo1":-89.7004,"lo2":-87.6739,"dy":0.0162,"dx":0.0183,"nx":112,"ny":82,"refTime":"2023-11-05T00:00:00:Z","depth":0,"parameterNumber":2,"parameterNumberName":"U-component_of_WINDS"},"data":[0.0,0.0,0.0,0.0,0.0,0.0,0.0,0.0,0.0,0.0,0.0,0.0,0.0,0.0,0.0,0.0,0.0,0.0,0.0,0.0,0.0,0.0,0.0,0.0,0.0,0.0,0.0,0.0,0.0,0.0,0.0,0.0,0.0,0.0,0.0,0.0,0.0,0.0,0.0,0.0,0.0,0.0,0.0,0.0,0.0,0.0,0.0,0.0,0.0,0.0,0.0,0.0,0.0,0.0,0.0,0.0,0.0,0.0,0.0,0.0,0.0,0.0,0.0,0.0,0.0,0.0,0.0,0.0,0.0,0.0,0.0,0.0,0.0,0.0,0.0,0.0,0.0,0.0,0.0,0.0,0.0,0.0,0.0,0.0,0.0,0.0,0.0,0.0,0.0,0.0,-4.0607,-4.06,-4.0607,-4.0595,-4.0595,-3.9064,-3.8099,-3.8106,0.0,0.0,0.0,0.0,0.0,0.0,0.0,0.0,0.0,0.0,0.0,0.0,0.0,0.0,0.0,0.0,0.0,0.0,0.0,0.0,0.0,0.0,0.0,0.0,0.0,0.0,0.0,0.0,0.0,0.0,0.0,0.0,0.0,0.0,0.0,0.0,0.0,0.0,0.0,0.0,0.0,0.0,0.0,0.0,0.0,0.0,0.0,0.0,0.0,0.0,0.0,0.0,0.0,0.0,0.0,0.0,0.0,0.0,0.0,0.0,0.0,0.0,0.0,0.0,0.0,0.0,0.0,0.0,0.0,0.0,0.0,0.0,0.0,0.0,0.0,0.0,0.0,0.0,0.0,0.0,0.0,0.0,0.0,0.0,0.0,0.0,0.0,0.0,0.0,0.0,0.0,0.0,0.0,0.0,0.0,0.0,0.0,0.0,0.0,0.0,0.0,0.0,0.0,0.0,-4.06,-4.0603,-4.0593,-4.0595,-4.0595,-3.9063,-3.8099,-3.8106,0.0,0.0,0.0,0.0,0.0,0.0,0.0,0.0,0.0,0.0,0.0,0.0,0.0,0.0,0.0,0.0,0.0,0.0,0.0,0.0,0.0,0.0,0.0,0.0,0.0,0.0,0.0,0.0,0.0,0.0,0.0,0.0,0.0,0.0,0.0,0.0,0.0,0.0,0.0,0.0,0.0,0.0,0.0,0.0,0.0,0.0,0.0,0.0,0.0,0.0,0.0,0.0,0.0,0.0,0.0,0.0,0.0,0.0,0.0,0.0,0.0,0.0,0.0,0.0,0.0,0.0,0.0,0.0,0.0,0.0,0.0,0.0,0.0,0.0,0.0,0.0,0.0,0.0,0.0,0.0,0.0,0.0,0.0,0.0,0.0,0.0,0.0,0.0,0.0,0.0,0.0,0.0,0.0,0.0,0.0,0.0,0.0,0.0,0.0,0.0,0.0,0.0,0.0,-4.0549,-4.0542,-4.0539,-4.0561,-4.0549,-4.0549,-3.9013,-3.8043,-3.8045,-3.6459,0.0,0.0,0.0,0.0,0.0,0.0,0.0,0.0,0.0,0.0,0.0,0.0,0.0,0.0,0.0,0.0,0.0,0.0,0.0,0.0,0.0,0.0,0.0,0.0,0.0,0.0,0.0,0.0,0.0,0.0,0.0,0.0,0.0,0.0,0.0,0.0,0.0,0.0,0.0,0.0,0.0,0.0,0.0,0.0,0.0,0.0,0.0,0.0,0.0,0.0,0.0,0.0,0.0,0.0,0.0,0.0,0.0,0.0,0.0,0.0,0.0,0.0,0.0,0.0,0.0,0.0,0.0,0.0,0.0,0.0,0.0,0.0,0.0,0.0,0.0,0.0,0.0,0.0,0.0,0.0,0.0,0.0,0.0,0.0,0.0,0.0,0.0,0.0,0.0,0.0,0.0,0.0,0.0,0.0,0.0,0.0,0.0,0.0,0.0,0.0,0.0,0.0,-4.0504,-4.0496,-4.0496,-4.0496,-4.0496,-4.0496,-3.895,-3.8007,-3.8007,-3.6423,0.0,0.0,0.0,0.0,0.0,0.0,0.0,0.0,0.0,0.0,0.0,0.0,0.0,0.0,0.0,0.0,0.0,0.0,0.0,0.0,0.0,0.0,0.0,0.0,0.0,0.0,0.0,0.0,0.0,0.0,0.0,0.0,0.0,0.0,0.0,0.0,0.0,0.0,0.0,0.0,0.0,0.0,0.0,0.0,0.0,0.0,0.0,0.0,0.0,0.0,0.0,0.0,0.0,0.0,0.0,0.0,0.0,0.0,0.0,0.0,0.0,0.0,0.0,0.0,0.0,0.0,0.0,0.0,0.0,0.0,0.0,0.0,0.0,0.0,0.0,0.0,0.0,0.0,0.0,0.0,0.0,0.0,0.0,0.0,0.0,0.0,0.0,0.0,0.0,0.0,0.0,0.0,0.0,0.0,0.0,0.0,0.0,0.0,0.0,0.0,0.0,0.0,-4.0539,-4.0496,-4.0496,-4.0496,-4.0496,-4.0496,-3.895,-3.8007,-3.8007,-3.6423,0.0,0.0,0.0,0.0,0.0,0.0,0.0,0.0,0.0,0.0,0.0,0.0,0.0,0.0,0.0,0.0,0.0,0.0,0.0,0.0,0.0,0.0,0.0,0.0,0.0,0.0,0.0,0.0,0.0,0.0,0.0,0.0,0.0,0.0,0.0,0.0,0.0,0.0,0.0,0.0,0.0,0.0,0.0,0.0,0.0,0.0,0.0,0.0,0.0,0.0,0.0,0.0,0.0,0.0,0.0,0.0,0.0,0.0,0.0,0.0,0.0,0.0,0.0,0.0,0.0,0.0,0.0,0.0,0.0,0.0,0.0,0.0,0.0,0.0,0.0,0.0,0.0,0.0,0.0,0.0,0.0,0.0,0.0,0.0,0.0,0.0,0.0,0.0,0.0,0.0,0.0,0.0,0.0,0.0,0.0,0.0,0.0,0.0,0.0,0.0,0.0,0.0,-4.0523,-4.0496,-4.0496,-4.0496,-4.0496,-4.0496,-3.895,-3.8007,-3.8007,0.0,0.0,0.0,0.0,0.0,0.0,0.0,0.0,0.0,0.0,0.0,0.0,0.0,0.0,0.0,0.0,0.0,0.0,0.0,0.0,0.0,0.0,0.0,0.0,0.0,0.0,0.0,0.0,0.0,0.0,0.0,0.0,0.0,0.0,0.0,0.0,0.0,0.0,0.0,0.0,0.0,0.0,0.0,0.0,0.0,0.0,0.0,0.0,0.0,0.0,0.0,0.0,0.0,0.0,0.0,0.0,0.0,0.0,0.0,0.0,0.0,0.0,0.0,0.0,0.0,0.0,0.0,0.0,0.0,0.0,0.0,0.0,0.0,0.0,0.0,0.0,0.0,0.0,0.0,0.0,0.0,0.0,0.0,0.0,0.0,0.0,0.0,0.0,0.0,0.0,0.0,0.0,0.0,0.0,0.0,0.0,0.0,0.0,0.0,0.0,0.0,0.0,-4.0496,-4.0496,-4.0496,-4.0496,-4.0496,-4.0496,-4.0496,-3.895,-3.8007,-3.8007,0.0,0.0,0.0,0.0,0.0,0.0,0.0,0.0,0.0,0.0,0.0,0.0,0.0,0.0,0.0,0.0,0.0,0.0,0.0,0.0,0.0,0.0,0.0,0.0,0.0,0.0,0.0,0.0,0.0,0.0,0.0,0.0,0.0,0.0,0.0,0.0,0.0,0.0,0.0,0.0,0.0,0.0,0.0,0.0,0.0,0.0,0.0,0.0,0.0,0.0,0.0,0.0,0.0,0.0,0.0,0.0,0.0,0.0,0.0,0.0,0.0,0.0,0.0,0.0,0.0,0.0,0.0,0.0,0.0,0.0,0.0,0.0,0.0,0.0,0.0,0.0,0.0,0.0,0.0,0.0,0.0,0.0,0.0,0.0,0.0,0.0,0.0,0.0,0.0,0.0,0.0,0.0,0.0,0.0,0.0,0.0,0.0,0.0,0.0,0.0,0.0,0.0,-4.0496,-4.0496,-4.0496,-4.0496,-4.0496,-4.0496,-4.0496,-3.895,-3.8007,0.0,0.0,0.0,0.0,0.0,0.0,0.0,0.0,0.0,0.0,0.0,0.0,0.0,0.0,0.0,0.0,0.0,0.0,0.0,0.0,0.0,0.0,0.0,0.0,0.0,0.0,0.0,0.0,0.0,0.0,0.0,0.0,0.0,0.0,0.0,0.0,0.0,0.0,0.0,0.0,0.0,0.0,0.0,0.0,0.0,0.0,0.0,0.0,0.0,0.0,0.0,0.0,0.0,0.0,0.0,0.0,0.0,0.0,0.0,0.0,0.0,0.0,0.0,0.0,0.0,0.0,0.0,0.0,0.0,0.0,0.0,0.0,0.0,0.0,0.0,0.0,0.0,0.0,0.0,0.0,0.0,0.0,0.0,0.0,0.0,0.0,0.0,0.0,0.0,0.0,0.0,0.0,0.0,0.0,0.0,0.0,0.0,0.0,0.0,0.0,0.0,0.0,0.0,-4.0496,-4.0496,-4.0496,-4.0496,-4.0496,-4.0496,-4.0496,-3.895,-3.8007,-3.8007,0.0,0.0,0.0,0.0,0.0,0.0,0.0,0.0,0.0,0.0,0.0,0.0,0.0,0.0,0.0,0.0,0.0,0.0,0.0,0.0,0.0,0.0,0.0,0.0,0.0,0.0,0.0,0.0,0.0,0.0,0.0,0.0,0.0,0.0,0.0,0.0,0.0,0.0,0.0,0.0,0.0,0.0,0.0,0.0,0.0,0.0,0.0,0.0,0.0,0.0,0.0,0.0,0.0,0.0,0.0,0.0,0.0,0.0,0.0,0.0,0.0,0.0,0.0,0.0,0.0,0.0,0.0,0.0,0.0,0.0,0.0,0.0,0.0,0.0,0.0,0.0,0.0,0.0,0.0,0.0,0.0,0.0,0.0,0.0,0.0,0.0,0.0,0.0,0.0,0.0,0.0,0.0,0.0,0.0,0.0,0.0,0.0,0.0,0.0,0.0,0.0,0.0,-4.0496,-4.0496,-4.0496,-4.0496,-4.0496,-4.0496,-4.0496,-3.895,-3.8007,-3.8007,0.0,0.0,0.0,0.0,0.0,0.0,0.0,0.0,0.0,0.0,0.0,0.0,0.0,0.0,0.0,0.0,0.0,0.0,0.0,0.0,0.0,0.0,0.0,0.0,0.0,0.0,0.0,0.0,0.0,0.0,0.0,0.0,0.0,0.0,0.0,0.0,0.0,0.0,0.0,0.0,0.0,0.0,0.0,0.0,0.0,0.0,0.0,0.0,0.0,0.0,0.0,0.0,0.0,0.0,0.0,0.0,0.0,0.0,0.0,0.0,0.0,0.0,0.0,0.0,0.0,0.0,0.0,0.0,0.0,0.0,0.0,0.0,0.0,0.0,0.0,0.0,0.0,0.0,0.0,0.0,0.0,0.0,0.0,0.0,0.0,0.0,0.0,0.0,0.0,0.0,0.0,0.0,0.0,0.0,0.0,0.0,0.0,0.0,0.0,0.0,0.0,0.0,-4.0496,-4.0496,-4.0496,-4.0496,-4.0496,-4.0496,-4.0496,-3.895,-3.8007,-3.8007,0.0,0.0,0.0,0.0,0.0,0.0,0.0,0.0,0.0,0.0,0.0,0.0,0.0,0.0,0.0,0.0,0.0,0.0,0.0,0.0,0.0,0.0,0.0,0.0,0.0,0.0,0.0,0.0,0.0,0.0,0.0,0.0,0.0,0.0,0.0,0.0,0.0,0.0,0.0,0.0,0.0,0.0,0.0,0.0,0.0,0.0,0.0,0.0,0.0,0.0,0.0,0.0,0.0,0.0,0.0,0.0,0.0,0.0,0.0,0.0,-4.4313,-4.3649,0.0,0.0,0.0,0.0,0.0,0.0,0.0,0.0,0.0,0.0,0.0,0.0,0.0,0.0,0.0,0.0,0.0,0.0,0.0,0.0,0.0,0.0,0.0,0.0,0.0,0.0,0.0,0.0,0.0,0.0,0.0,0.0,0.0,0.0,0.0,0.0,0.0,0.0,0.0,0.0,-4.0496,-4.0496,-4.0496,-4.0496,-4.0496,-4.0496,-4.0496,-3.895,-3.8007,-3.8007,-3.6423,0.0,0.0,0.0,0.0,0.0,0.0,0.0,0.0,0.0,0.0,0.0,0.0,0.0,0.0,0.0,0.0,0.0,0.0,0.0,0.0,0.0,0.0,0.0,0.0,0.0,0.0,0.0,0.0,0.0,0.0,0.0,0.0,0.0,0.0,0.0,0.0,0.0,0.0,0.0,0.0,0.0,0.0,0.0,0.0,0.0,0.0,0.0,0.0,0.0,0.0,0.0,0.0,0.0,0.0,0.0,0.0,0.0,0.0,0.0,-4.5081,-4.4666,0.0,0.0,0.0,0.0,0.0,0.0,0.0,0.0,0.0,0.0,0.0,0.0,0.0,0.0,0.0,0.0,0.0,0.0,0.0,0.0,0.0,0.0,0.0,0.0,0.0,0.0,0.0,0.0,0.0,0.0,0.0,0.0,0.0,0.0,0.0,0.0,0.0,0.0,0.0,0.0,-4.0496,-4.0496,-4.0496,-4.0496,-4.0496,-4.0496,-4.0496,-3.895,-3.8007,-3.8007,-3.6423,0.0,0.0,0.0,0.0,0.0,0.0,0.0,0.0,0.0,0.0,0.0,0.0,0.0,0.0,0.0,0.0,0.0,0.0,0.0,0.0,0.0,0.0,0.0,0.0,0.0,0.0,0.0,0.0,0.0,0.0,0.0,0.0,0.0,0.0,0.0,0.0,0.0,0.0,0.0,0.0,0.0,0.0,0.0,0.0,0.0,0.0,0.0,0.0,0.0,0.0,0.0,0.0,0.0,-4.5381,-4.5381,-4.539,-4.539,-4.539,-4.5409,-4.5514,-4.5568,-4.551,-4.4799,0.0,0.0,0.0,0.0,0.0,0.0,0.0,0.0,0.0,0.0,0.0,0.0,0.0,0.0,0.0,0.0,0.0,0.0,0.0,0.0,0.0,0.0,-4.0496,-4.0496,-4.0496,-4.0496,-4.0496,0.0,0.0,0.0,0.0,0.0,0.0,0.0,0.0,0.0,0.0,0.0,-4.0496,-4.0496,-4.0496,-4.0496,-4.0496,-4.0496,-4.0496,-3.9104,-3.8161,-3.8007,-3.6558,-3.5654,0.0,0.0,0.0,0.0,0.0,0.0,0.0,0.0,0.0,0.0,0.0,0.0,0.0,0.0,0.0,0.0,0.0,0.0,0.0,0.0,0.0,0.0,0.0,0.0,0.0,0.0,0.0,0.0,0.0,0.0,0.0,0.0,-4.4227,-4.4346,0.0,0.0,0.0,0.0,0.0,0.0,0.0,0.0,0.0,0.0,0.0,0.0,0.0,-4.5307,-4.5317,-4.5317,-4.5317,-4.5309,-4.5309,-4.5329,-4.5399,-4.5399,-4.54,-4.54,-4.5419,0.0,-4.5429,-4.5314,0.0,0.0,0.0,0.0,0.0,0.0,0.0,0.0,0.0,0.0,0.0,0.0,0.0,0.0,0.0,0.0,0.0,0.0,0.0,0.0,0.0,0.0,-4.0496,-4.0496,-4.0496,-4.0496,-4.0496,-4.0496,-4.0496,-4.0496,-4.0496,-4.0496,0.0,0.0,0.0,0.0,0.0,0.0,-4.0496,-4.0496,-4.0496,-4.0496,-4.0496,-4.0496,-4.0496,-3.9669,-3.8815,-3.8046,-3.7084,-3.6231,-3.5538,-3.55,0.0,0.0,0.0,0.0,0.0,0.0,0.0,0.0,0.0,0.0,0.0,0.0,0.0,0.0,0.0,0.0,0.0,0.0,0.0,0.0,0.0,0.0,0.0,0.0,0.0,0.0,0.0,0.0,0.0,-4.3927,-4.4402,-4.4506,-4.4976,-4.5307,0.0,0.0,0.0,0.0,0.0,0.0,0.0,0.0,0.0,-4.5307,-4.5736,-4.5965,-4.5965,-4.6462,-4.671,-4.671,-4.671,-4.6721,-4.6743,-4.6785,-4.6548,-4.6089,-4.6119,-4.588,-4.5448,-4.5419,-4.5467,-4.5531,0.0,0.0,0.0,0.0,-4.4489,-4.372,-4.3335,-4.2912,-4.247,-4.2085,0.0,0.0,0.0,0.0,0.0,0.0,0.0,-4.0496,-4.0496,-4.0496,-4.0496,-4.0496,-4.0496,-4.0496,-4.0496,-4.0496,-4.0496,-4.0496,-4.0496,-4.0496,-4.0496,-4.0496,0.0,0.0,0.0,-4.0496,-4.0496,-4.0496,-4.0496,-4.0496,-4.0496,-4.0496,-4.0496,-3.9765,-3.8931,-3.8065,-3.718,-3.6346,-3.5538,-3.55,-3.55,0.0,0.0,0.0,0.0,0.0,0.0,0.0,0.0,0.0,0.0,0.0,0.0,0.0,0.0,0.0,0.0,0.0,0.0,0.0,0.0,0.0,0.0,0.0,0.0,0.0,0.0,0.0,0.0,-4.408,-4.4443,-4.4663,-4.5042,-4.5286,0.0,0.0,0.0,0.0,0.0,0.0,-4.5602,-4.5812,-4.5946,-4.5946,-4.6519,-4.6844,-4.6844,-4.7483,-4.7788,-4.7788,-4.7788,-4.7788,-4.7788,-4.7843,-4.752,-4.6908,-4.6969,-4.6646,-4.6052,-4.5611,-4.5476,-4.5541,-4.5541,-4.5559,-4.5594,-4.5594,-4.519,-4.4605,-4.4374,-4.3912,-4.3374,-4.3162,-4.3104,-4.2989,-4.2335,0.0,0.0,0.0,0.0,-4.117,-4.117,-4.117,-4.117,-4.117,-4.117,-4.117,-4.117,-4.117,-4.1035,-4.0593,-4.0496,-4.0496,-4.0496,-4.0496,0.0,-4.0496,-4.0496,-4.0496,-4.0496,-4.0496,-4.0496,-4.0496,-4.0496,-4.0496,-4.0496,-3.9958,-3.9246,-3.8392,-3.7507,-3.6654,-3.5846,-3.5615,-3.55,-3.55,0.0,0.0,0.0,0.0,0.0,0.0,0.0,0.0,0.0,0.0,0.0,0.0,0.0,0.0,0.0,0.0,0.0,0.0,0.0,0.0,0.0,0.0,0.0,0.0,0.0,0.0,0.0,0.0,0.0,-4.465,-4.5007,0.0,0.0,0.0,0.0,-4.5307,-4.6003,-4.6443,-4.6443,-4.7215,-4.7674,-4.7674,-4.7712,-4.7731,-4.7731,-4.7769,-4.7788,-4.7788,-4.7788,-4.7788,-4.7788,-4.7799,-4.778,-4.7742,-4.7742,-4.7723,-4.7573,-4.61,-4.5522,-4.5586,-4.5586,-4.5594,-4.5594,-4.5594,-4.5575,-4.5421,-4.4586,-4.4278,-4.4105,-4.3355,-4.3104,-4.3085,-4.3047,-4.3008,0.0,0.0,-4.297,-4.297,-4.297,-4.297,-4.297,-4.297,-4.297,-4.297,-4.297,-4.297,-4.247,-4.0823,-4.0496,-4.0496,-4.0496,0.0,-4.0496,-4.0496,-4.0496,-4.0496,-4.0496,-4.0496,-4.0496,-4.0496,-4.0496,-4.0496,-4.0496,-4.0458,-4.0092,-3.9284,-3.8411,-3.7546,-3.6673,-3.5904,-3.55,-3.55,-3.55,0.0,0.0,0.0,0.0,0.0,0.0,0.0,0.0,0.0,0.0,0.0,0.0,0.0,0.0,0.0,0.0,0.0,0.0,0.0,0.0,0.0,0.0,0.0,0.0,0.0,0.0,0.0,0.0,-4.4714,-4.5521,0.0,-4.608,-4.6577,-4.692,-4.692,-4.7169,-4.733,-4.733,-4.7635,-4.8067,-4.8621,-4.9137,-4.9691,-5.0233,-5.0252,-5.0252,-5.0233,-4.9691,-4.9404,-4.9404,-4.9457,-4.9174,-4.8638,-4.8671,-4.8424,-4.7888,-4.7337,-4.6791,-4.6263,-4.5743,-4.5568,-4.5594,-4.5594,-4.5594,-4.5556,-4.5248,-4.5152,-4.5094,-4.4806,-4.4335,-4.3874,-4.3874,-4.3508,-4.3104,-4.3104,-4.3104,-4.3104,-4.3104,-4.3104,-4.3104,-4.3104,-4.3104,-4.3104,-4.3104,-4.3104,-4.2912,-4.2297,-4.172,-4.1162,-4.0593,-4.0496,-4.0496,-4.0496,-4.0496,-4.0496,-4.0496,-4.0496,-4.0496,-4.0496,-4.0496,-4.0496,-4.0496,-4.0496,-4.0169,-3.9361,-3.9015,-3.845,-3.7565,-3.6712,-3.6269,-3.6269,-3.5729,-3.546,0.0,0.0,0.0,0.0,0.0,0.0,0.0,0.0,0.0,0.0,0.0,0.0,0.0,0.0,0.0,0.0,0.0,0.0,0.0,0.0,0.0,0.0,0.0,0.0,0.0,-4.4475,-4.4843,-4.5323,-4.6272,-4.6918,-4.6929,-4.7463,-4.7922,-4.822,-4.8487,-4.8762,-4.9068,-4.9347,-4.9748,-5.0321,-5.0875,-5.1429,-5.2002,-5.2002,-5.2002,-5.2002,-5.1142,-5.0741,-5.0722,-5.047,-5.0053,-4.9499,-4.9562,-4.9267,-4.875,-4.8484,-4.8034,-4.7431,-4.6638,-4.6367,-4.6414,-4.6451,-4.6432,-4.6394,-4.6124,-4.6028,-4.599,-4.571,-4.521,-4.4739,-4.4739,-4.4374,-4.3932,-4.3932,-4.3932,-4.3932,-4.3932,-4.3932,-4.3932,-4.3932,-4.3932,-4.3932,-4.3932,-4.3932,-4.3855,-4.3566,-4.2816,-4.2066,-4.147,-4.1381,-4.1381,-4.1381,-4.1381,-4.1381,-4.1381,-4.1381,-4.1266,-4.0969,-4.0931,-4.0823,-4.0535,-4.0496,-4.0265,-3.9746,-3.9457,-3.9034,-3.845,-3.7603,-3.7,-3.6712,-3.5849,-3.5412,-3.5427,0.0,0.0,0.0,0.0,0.0,0.0,0.0,0.0,0.0,0.0,0.0,0.0,0.0,0.0,0.0,0.0,0.0,0.0,0.0,0.0,0.0,0.0,0.0,-4.4296,-4.4935,-4.5721,-4.6454,-4.7266,-4.7797,-4.7892,-4.7941,-4.8315,-4.9137,-4.9939,-5.076,-5.1589,-5.2384,-5.2805,-5.2843,-5.2843,-5.2843,-5.2881,-5.2843,-5.2843,-5.2824,-5.2021,-5.1627,-5.1608,-5.0741,-5.034,-5.034,-5.0302,-5.0302,-5.0245,-4.9472,-4.9149,-4.9064,-4.8287,-4.801,-4.802,-4.8068,-4.8105,-4.799,-4.7212,-4.6942,-4.6797,-4.5951,-4.5671,-4.5633,-4.5633,-4.5614,-4.5594,-4.5594,-4.5594,-4.5594,-4.5594,-4.5594,-4.5594,-4.5594,-4.5594,-4.5594,-4.5594,-4.5594,-4.5344,-4.4489,-4.3701,-4.3162,-4.3104,-4.3104,-4.3104,-4.3104,-4.3104,0.0,-4.3104,-4.3104,-4.2777,-4.1923,-4.1846,-4.1489,-4.0612,-4.0535,-4.0535,-4.0496,-3.9765,-3.9342,-3.9342,-3.8507,-3.7623,-3.675,-3.5907,-3.5422,-3.5346,0.0,0.0,0.0,0.0,0.0,0.0,0.0,0.0,0.0,0.0,0.0,0.0,0.0,0.0,0.0,0.0,0.0,0.0,0.0,0.0,0.0,-4.4913,-4.4751,-4.5034,-4.5806,-4.6581,-4.7217,-4.8452,-4.9447,-5.0054,-5.0907,-5.1525,-5.1754,-5.1983,-5.2212,-5.2461,-5.2671,-5.3091,-5.3722,-5.3741,-5.4046,-5.4677,-5.4065,-5.3741,-5.3722,-5.2881,-5.2461,-5.2442,-5.162,-5.1238,-5.1219,-5.0569,-5.0302,-5.0283,-5.0111,-5.0038,-4.9915,-4.8534,-4.8009,-4.7991,-4.803,-4.8049,-4.8067,-4.7855,-4.7778,-4.774,-4.749,-4.7028,-4.6547,-4.6547,-4.6105,-4.5594,-4.5594,-4.5594,-4.5594,-4.5594,-4.5594,-4.5594,-4.5594,-4.5594,-4.5594,-4.5594,-4.5594,-4.5537,-4.5287,-4.5056,-4.4528,-4.3316,-4.3104,-4.3104,-4.3104,-4.3104,-4.3104,-4.3104,-4.3104,-4.3008,-4.2777,-4.2739,-4.2393,-4.1527,-4.145,-4.1162,-4.0535,-4.0285,-4.0169,-4.0169,-3.9381,-3.8519,-3.7578,-3.7333,-3.688,0.0,0.0,0.0,0.0,0.0,0.0,0.0,0.0,0.0,0.0,0.0,0.0,0.0,0.0,0.0,0.0,0.0,0.0,0.0,0.0,0.0,0.0,-4.5883,-4.6321,-4.6648,-4.7282,-4.8022,-4.8835,-5.0194,-5.1243,-5.1711,-5.238,-5.2938,-5.332,-5.3339,-5.3492,-5.3874,-5.3894,-5.4123,-5.4639,-5.4639,-5.4887,-5.5403,-5.4906,-5.4639,-5.4639,-5.376,-5.3339,-5.332,-5.248,-5.1926,-5.1582,-5.1066,-5.0646,-5.0302,-5.0337,-5.0359,-5.0317,0.0,0.0,0.0,0.0,-4.9135,-4.9144,-4.8779,-4.8644,-4.8586,-4.8221,-4.7778,-4.7413,-4.7413,-4.7048,-4.6644,-4.6644,-4.6394,-4.6144,-4.6144,-4.5874,-4.5594,-4.5594,-4.5594,-4.5594,-4.5594,-4.5594,-4.5594,-4.5594,-4.5594,0.0,-4.4316,-4.4143,-4.4143,-4.4143,-4.4143,-4.4143,-4.4143,-4.4143,-4.4008,-4.3643,-4.3605,-4.3258,-4.2431,-4.2,0.0,0.0,0.0,-4.0496,-4.0496,-3.9727,0.0,0.0,0.0,-3.7648,-3.7094,-3.7094,0.0,0.0,-3.5453,-3.5288,0.0,0.0,0.0,0.0,0.0,0.0,0.0,0.0,0.0,0.0,0.0,0.0,0.0,0.0,0.0,0.0,-4.737,-4.8438,-4.877,-4.9171,-4.9821,-5.0876,-5.2113,-5.2939,-5.3035,-5.3079,-5.3416,-5.4199,-5.4256,-5.4581,-5.5365,-5.5403,0.0,0.0,0.0,-5.5403,-5.5403,-5.5403,-5.5403,-5.5403,-5.4619,-5.4256,-5.4218,-5.3339,-5.2556,-5.1875,-5.1792,-5.1295,-5.0588,-5.06,-5.0635,-5.0703,-5.0638,-5.0553,-5.0521,-5.0593,-5.0643,-5.0596,-4.9798,0.0,0.0,-4.8644,-4.8336,-4.8259,-4.8259,-4.8182,-4.8105,-4.8105,-4.7586,-4.7038,-4.7038,-4.6394,-4.5748,-4.5748,-4.5671,-4.5594,-4.5594,-4.5594,-4.5594,-4.5594,-4.5594,-4.5594,-4.5594,-4.5594,-4.5594,-4.5594,-4.5594,-4.5594,-4.5594,-4.5594,-4.5306,-4.4528,0.0,0.0,-4.3297,-4.2527,-4.2038,-4.1942,-4.1123,-4.0593,-4.0496,-3.9804,-3.9404,-3.9346,-3.8589,-3.8127,-3.797,-3.7942,-3.7904,-3.7789,-3.6281,-3.5998,0.0,0.0,0.0,0.0,0.0,0.0,0.0,0.0,0.0,0.0,0.0,0.0,0.0,0.0,0.0,-4.8091,-4.8042,-4.852,-5.0464,-5.1149,-5.162,-5.2101,-5.294,-5.3708,-5.4344,-5.4705,-5.4982,-5.5135,-5.5154,-5.5231,-5.5403,-5.5403,-5.5403,-5.5403,-5.5403,-5.5403,-5.5403,-5.5403,-5.5403,-5.5403,-5.5231,0.0,-5.5116,-5.4256,-5.376,-5.3588,-5.2862,-5.2461,-5.232,-5.2356,-5.2468,-5.2442,-5.113,-5.0593,-5.0593,-5.0653,-5.0702,-5.0673,-5.0519,-5.0462,-5.0423,-5.025,-4.9721,-4.9144,-4.9144,-4.8663,0.0,-4.8105,-4.799,-4.7875,-4.7875,-4.7259,-4.6644,-4.6644,-4.6105,-4.5594,-4.5594,-4.5594,-4.5594,-4.5594,-4.5594,-4.5594,-4.5594,-4.5594,-4.5594,-4.5594,-4.5594,-4.5594,-4.5594,-4.5594,-4.5537,-4.5364,-4.5344,-4.4998,-4.4143,-4.3912,-4.3547,-4.2893,-4.2027,-4.1239,-4.0535,-4.0342,-4.0258,-4.0258,-4.0084,-3.9637,-3.893,-3.8871,-3.8528,-3.7865,-3.748,-3.7406,0.0,0.0,0.0,0.0,0.0,0.0,0.0,0.0,0.0,0.0,0.0,-4.6504,0.0,0.0,-4.7823,-4.8221,-4.8985,-4.9952,-5.126,-5.2171,-5.2759,-5.2935,-5.3618,-5.4284,-5.4754,-5.5154,-5.5403,-5.5403,-5.5403,-5.5403,-5.5403,-5.5403,-5.5403,-5.5403,-5.5403,-5.5403,-5.5403,-5.5403,-5.5403,-5.5403,-5.5403,-5.5403,-5.5403,-5.4963,-5.4505,-5.4085,-5.3645,-5.3206,-5.2817,-5.2865,-5.2955,-5.2916,-5.2146,-5.1862,-5.1893,-5.1893,-5.1644,-5.1298,-5.1298,-5.1029,-5.0712,-5.0712,-5.0423,-5.0048,-5.0048,-4.974,-4.9394,-4.9394,-4.9086,-4.8759,-4.8759,-4.8125,-4.7509,-4.7509,-4.6855,-4.624,-4.624,-4.5913,-4.5594,-4.5594,-4.5594,-4.5594,-4.5594,-4.5594,-4.5594,-4.5594,-4.5594,-4.5594,-4.5594,-4.5594,-4.5594,-4.5594,-4.5594,-4.5421,-4.4998,-4.4547,-4.3951,-4.3143,-4.2701,-4.2066,-4.1181,-4.1127,-4.0907,-4.0523,-4.0474,-4.023,-3.9753,-3.9719,-3.9491,-3.9101,-3.9075,-3.8835,0.0,0.0,0.0,0.0,0.0,0.0,0.0,0.0,-4.6269,-4.6269,-4.6395,-4.6558,-4.6703,-4.7935,-4.8782,-4.846,-5.0035,-5.1407,-5.1734,-5.2671,-5.3326,-5.3285,-5.4082,-5.4705,-5.4899,-5.52,-5.5403,-5.5403,-5.5403,-5.5403,-5.5403,-5.5403,-5.5403,-5.5403,-5.5403,-5.5403,-5.5403,-5.5403,-5.5403,-5.5403,-5.5403,-5.5403,-5.5403,-5.5403,-5.5021,-5.4352,-5.4352,-5.3951,-5.3314,-5.335,-5.3393,-5.3398,-5.3502,-5.3599,-5.3624,-5.3247,-5.27,-5.2154,-5.2154,-5.1625,-5.0933,-5.0933,-5.0827,-5.0712,-5.0712,-5.0712,-5.0712,-5.0712,-5.0183,-4.9644,-4.9644,-4.9009,-4.8355,-4.8355,-4.774,-4.7077,-4.6923,-4.6355,-4.5806,-4.5633,-4.5594,-4.5594,-4.5594,-4.5594,-4.5594,-4.5594,-4.5594,-4.5594,-4.5594,-4.5594,-4.5594,-4.5594,-4.5594,-4.5594,-4.5594,-4.496,-4.4201,-4.3385,-4.3319,-4.2934,-4.2052,-4.197,-4.1626,-4.0984,-4.0903,-4.0868,-4.0814,-4.0814,-4.0815,-4.0807,-4.0807,-4.0289,-4.349,-4.316,-4.2919,-4.3009,-4.3625,-4.4222,0.0,0.0,-4.5436,-4.5436,-4.5997,-4.6721,-4.7446,-4.8294,-4.9347,-5.0669,-5.1104,-5.1561,-5.2309,-5.2802,-5.3054,-5.2875,-5.3995,-5.4914,-5.5305,-5.5358,-5.5403,-5.5403,-5.5403,-5.5403,-5.5403,-5.5403,-5.5403,-5.5403,-5.5403,-5.5403,-5.5403,-5.5403,-5.5403,-5.5403,-5.5403,-5.5403,-5.5403,-5.5403,-5.5345,-5.525,-5.525,-5.5212,-5.5116,-5.5116,-5.5116,-5.5121,-5.5152,-5.5216,-5.5165,-5.371,-5.3135,-5.3049,-5.3049,-5.2481,-5.1769,-5.1769,-5.1279,-5.0712,-5.0712,-5.0712,-5.0712,-5.0712,-5.0635,-5.0558,-5.0558,-4.9913,-4.924,-4.924,-4.8586,-4.7778,-4.7038,-4.6808,-4.6528,-4.5748,-4.5594,-4.5594,-4.5594,-4.5594,-4.5594,-4.5594,-4.5594,-4.5594,-4.5594,-4.5594,-4.5594,-4.5594,-4.5594,-4.5594,-4.5594,-4.5518,-4.5096,-4.4217,-4.4178,-4.3757,-4.2821,-4.2774,-4.2716,-4.2639,-4.2611,-4.263,-4.2602,-4.2602,-4.2621,-4.2612,-4.2612,-4.1732,-4.3231,-4.3013,-4.3009,-4.3462,-4.4186,-4.4802,-4.4802,-4.5417,-4.5997,-4.5997,-4.6649,-4.7446,-4.8239,-4.9438,-5.0524,0.0,-5.1683,-5.2123,-5.2499,-5.2702,-5.2882,-5.3117,-5.3683,-5.4154,-5.4378,-5.4626,-5.4754,-5.4754,-5.4754,-5.4844,-5.5038,-5.5052,-5.5173,-5.539,-5.5403,-5.5403,-5.5403,-5.5403,-5.5403,-5.5403,-5.5403,-5.5403,-5.5403,-5.5403,-5.5403,-5.5403,-5.5403,-5.5403,-5.5403,-5.5403,-5.5396,-5.5403,-5.5402,-5.5456,-5.5474,-5.482,-5.4325,-5.3953,-5.3953,-5.3395,-5.2558,-5.2058,-5.1673,-5.1318,-5.0846,-5.0712,-5.0712,-5.0712,-5.0712,-5.0712,-5.0712,-5.0442,-5.0173,-5.0173,-4.949,-4.8759,-4.8432,-4.7586,-4.6797,-4.6432,-4.5951,-4.5594,-4.5594,-4.5594,-4.5594,-4.5594,-4.5594,-4.5594,-4.5594,-4.5594,-4.5594,-4.5594,-4.5594,-4.5594,-4.5594,-4.5594,-4.5451,-4.5079,-4.5013,-4.4602,-4.375,-4.3637,-4.336,-4.2842,-4.2833,-4.2833,-4.2833,-4.2833,-4.2833,-4.2833,-4.2833,-4.2451,-4.3267,-4.3226,-4.3407,-4.4222,-4.4874,-4.5363,-4.558,-4.6087,-4.6558,-4.6794,-4.7301,-4.8004,-4.9039,-5.018,-5.1104,-5.1556,-5.2118,-5.2503,-5.2581,-5.2676,-5.2839,-5.3141,-5.3328,-5.3448,-5.3447,-5.398,-5.4315,-5.4315,-5.4315,-5.4397,-5.4654,-5.467,-5.484,-5.5214,-5.5227,-5.5305,-5.5403,-5.5403,-5.5403,-5.5403,-5.5403,-5.5403,-5.5403,-5.5403,-5.5403,-5.5403,-5.5403,-5.5403,-5.5403,-5.5403,-5.5403,-5.5403,-5.5396,-5.5439,-5.548,-5.5551,-5.5253,-5.4818,-5.4818,-5.426,-5.3414,-5.2538,-5.2096,-5.175,-5.0933,-5.0712,-5.0712,-5.0712,-5.0712,-5.0712,-5.0712,-5.0712,-5.0712,-5.0712,-5.0231,-4.9683,-4.9452,-4.8259,-4.7173,-4.6942,-4.6201,-4.5594,-4.5594,-4.5594,-4.5594,-4.5594,-4.5594,-4.5594,-4.5594,-4.5594,-4.5594,-4.5594,-4.5594,-4.5594,-4.5594,-4.5594,-4.5577,-4.5559,-4.5504,-4.5198,-4.4595,-4.448,-4.4134,-4.3503,-4.3483,-4.3482,-4.3482,-4.3482,-4.3482,-4.3482,-4.3482,-4.3482,-4.3861,-4.4059,-4.4258,-4.5055,-4.5273,-4.5508,-4.6287,-4.6486,-4.6721,-4.7518,-4.7681,-4.8188,-4.9764,-5.0112,-5.0655,-5.2208,-5.248,-5.2498,-5.2498,-5.2831,-5.2969,-5.2658,-5.303,-5.3175,0.0,-5.372,-5.4315,-5.4315,-5.4315,-5.4296,-5.4313,-5.4332,-5.4463,-5.4806,-5.4806,-5.5009,-5.539,-5.5403,-5.5403,-5.5403,-5.5403,-5.5403,-5.5403,-5.5403,-5.5403,-5.5403,-5.5403,-5.5403,-5.5403,-5.5403,-5.5403,-5.5403,-5.5403,-5.5403,-5.542,-5.548,-5.5566,-5.5665,-5.5665,-5.5145,-5.4318,-5.3433,-5.2577,-5.175,-5.0933,-5.0712,-5.0712,-5.0712,-5.0712,-5.0712,-5.0712,-5.0712,-5.0712,-5.0712,-5.0673,-5.0442,-4.9586,-4.8702,-4.7836,-4.7038,-4.6201,-4.5594,-4.5594,-4.5594,-4.5594,-4.5594,-4.5594,-4.5594,-4.5594,-4.5594,-4.5594,-4.5594,-4.5594,-4.5594,-4.5594,-4.5594,-4.5531,-4.5419,-4.541,-4.5361,-4.5279,-4.5269,-4.525,-4.5231,-4.5231,-4.5231,-4.5231,-4.5231,-4.5231,-4.5231,-4.5231,-4.5231,-4.4157,-4.4552,-4.5091,-4.5906,-4.6106,-4.6305,-4.712,-4.7301,-4.7373,-4.7624,-4.8113,-4.8677,-4.9202,-4.9727,-5.0456,-5.152,-5.1701,-5.1882,-5.2426,-5.2618,-5.2667,-5.2554,-5.2698,0.0,0.0,0.0,0.0,-5.3444,-5.3522,-5.3661,-5.3888,-5.3907,-5.4088,-5.4463,-5.4685,-5.487,-5.499,-5.5273,-5.5403,-5.5403,-5.5403,-5.5403,-5.5403,-5.5403,-5.5403,-5.5403,-5.5403,-5.5403,-5.5403,-5.5403,-5.5403,-5.5403,-5.5403,-5.5403,-5.5408,-5.548,-5.5551,-5.5629,-5.5673,-5.5511,-5.5164,-5.4337,-5.3472,-5.2606,-5.176,-5.1125,-5.0712,-5.0712,-5.0712,-5.0712,-5.0712,-5.0712,-5.0712,-5.0712,-5.0712,-5.0616,-5.0327,-4.9586,-4.8702,-4.7855,-4.7028,-4.6278,-4.571,-4.5594,-4.5594,-4.5594,-4.5594,-4.5594,-4.5594,-4.5594,-4.5594,-4.5594,-4.5594,-4.5594,-4.5594,-4.5559,-4.5513,-4.5476,-4.541,-4.5399,-4.5378,-4.5317,-4.5307,-4.5307,-4.5307,-4.5307,-4.5307,-4.5307,-4.5307,-4.5307,-4.5307,-4.5307,-4.5014,-4.5482,-4.5965,-4.6739,-4.6939,-4.7065,-4.7591,-4.7717,-4.7606,-4.7337,-4.7895,-4.8456,-4.8456,-4.913,-4.9927,-5.0723,-5.1104,-5.1466,-5.1991,-5.2317,-5.2498,-5.2498,-5.2531,-5.2559,0.0,0.0,0.0,-5.2999,-5.3082,-5.3254,-5.3504,-5.3524,-5.37,-5.407,-5.4276,-5.4541,-5.4791,-5.5052,-5.526,-5.5403,-5.5403,-5.5403,-5.5403,-5.5403,-5.5403,-5.5403,-5.5403,-5.5403,-5.5403,-5.5403,-5.5403,-5.5403,-5.5403,-5.5409,-5.5409,-5.5444,-5.5504,-5.5573,-5.5682,-5.5703,-5.5568,-5.4761,-5.4126,-5.3433,-5.225,-5.1548,-5.1068,-5.0789,-5.0712,-5.0712,-5.0712,-5.0712,-5.0712,-5.0712,-5.0712,-5.0712,-5.0712,-5.001,-4.9144,-4.8279,-4.7451,-4.6624,-4.5748,-4.5594,-4.5594,-4.5594,-4.5594,-4.5594,-4.5594,-4.5594,-4.5594,-4.5594,-4.5594,-4.5586,-4.5568,-4.5522,-4.5485,-4.5467,-4.5419,-4.5398,-4.5378,-4.5317,-4.5307,-4.5307,-4.5307,-4.5307,-4.5307,-4.5307,-4.5307,-4.5307,-4.5307,-4.5307,-4.6306,-4.6739,-4.6898,-4.7539,-4.7717,-4.7678,-4.7663,-4.7645,-4.7428,-4.6613,-4.7065,-4.7591,0.0,0.0,-4.9057,-4.9836,-5.0633,-5.1194,-5.1285,-5.1955,-5.2444,0.0,0.0,0.0,0.0,0.0,0.0,-5.2959,0.0,-5.306,-5.3185,-5.3185,-5.3357,-5.3662,-5.3701,-5.4051,-5.4746,-5.4776,-5.499,-5.5403,-5.5403,-5.5403,-5.5403,-5.5403,-5.5403,-5.5403,-5.5403,-5.5403,-5.5403,-5.5403,-5.5403,-5.5403,-5.5403,-5.5403,-5.5403,-5.5402,-5.5444,-5.5516,-5.564,-5.5703,-5.5568,-5.4799,-5.453,-5.4184,-5.2481,-5.1942,-5.1731,-5.0933,-5.0712,-5.0712,-5.0712,-5.0712,-5.0712,-5.0712,-5.0712,-5.0712,-5.0712,-5.0048,-4.9202,-4.8336,-4.749,-4.6624,-4.5748,-4.5594,-4.5594,-4.5594,-4.5594,-4.5594,-4.5594,-4.5594,-4.5594,-4.5594,-4.5594,-4.5568,-4.5504,-4.5495,-4.5477,-4.5389,-4.5398,-4.5378,-4.5307,-4.5307,-4.5307,-4.5307,-4.5307,-4.5307,-4.5307,-4.5307,-4.5307,-4.5307,-4.5307,-4.5307,-4.6512,-4.7102,-4.7485,-4.7663,-4.7717,-4.7554,-4.6939,-4.6812,-4.6576,-4.578,-4.578,-4.5906,0.0,0.0,0.0,-4.8188,-4.9003,0.0,-5.1122,-5.1466,0.0,-5.2426,0.0,-5.2498,-5.2498,-5.2503,0.0,0.0,-5.2893,-5.306,-5.3185,-5.3185,-5.3248,-5.3316,-5.3564,-5.3777,-5.3979,-5.4525,-5.499,-5.5403,-5.5403,-5.5403,-5.5403,-5.5403,-5.5403,-5.5403,-5.5403,-5.5403,-5.5403,-5.5403,-5.5403,-5.5403,-5.5403,-5.5403,-5.5403,-5.5402,-5.5444,-5.5516,-5.5596,-5.5671,-5.5665,-5.5453,-5.4991,-5.4299,-5.3203,-5.2423,-5.1731,-5.0933,-5.0712,-5.0712,-5.0712,-5.0712,-5.0712,-5.0712,-5.0712,-5.0712,-5.0712,-5.0539,-5.0106,-4.924,-4.7894,-4.6624,-4.5748,-4.5594,-4.5594,-4.5594,-4.5594,-4.5594,-4.5594,-4.5594,-4.5594,-4.5594,-4.5559,-4.5513,-4.5504,-4.5448,-4.5419,-4.5408,-4.5348,-4.5317,-4.5307,-4.5307,-4.5307,-4.5307,-4.5307,-4.5307,-4.5307,-4.5307,-4.5307,-4.5307,-4.5307,-4.5307,-4.7213,-4.7622,-4.7806,-4.7801,-4.7467,-4.7065,-4.6613,-4.6232,-4.5743,-4.4928,-4.5055,0.0,-4.4838,-4.5436,-4.625,0.0,0.0,0.0,-5.0071,-5.085,-5.1466,0.0,-5.2281,0.0,-5.2498,-5.2498,-5.2526,0.0,-5.2787,-5.2977,-5.3103,-5.3164,-5.3185,-5.3185,-5.338,-5.3563,-5.3701,-5.4425,-5.4914,-5.514,-5.5319,-5.5403,-5.5403,-5.5403,-5.5403,-5.5403,-5.5403,-5.5403,-5.5403,-5.5403,-5.5403,-5.5403,-5.5403,-5.5403,-5.5403,-5.5403,-5.5439,-5.5504,-5.5539,-5.5618,-5.5703,-5.5703,-5.5395,-5.4876,-5.403,-5.3164,-5.2288,-5.1452,-5.0971,-5.0712,-5.0712,-5.0712,-5.0712,-5.0712,-5.0712,-5.0712,-5.0712,-5.0712,-5.0442,-4.9567,-4.8048,-4.674,-4.624,-4.5845,-4.5594,-4.5594,-4.5594,-4.5594,-4.5594,-4.5594,-4.5594,-4.5594,-4.5568,-4.5513,-4.5448,-4.5419,-4.538,-4.5348,-4.5317,-4.5307,-4.5307,-4.5307,-4.5307,-4.5307,-4.5307,-4.5307,-4.5307,-4.5307,-4.5307,-4.5307,-4.5307,-4.5307,-4.7987,-4.809,-4.799,-4.7925,-4.7223,-4.6506,-4.6398,-4.5725,-4.491,-4.4095,0.0,-4.4765,-4.4059,-4.4603,-4.5363,-4.6069,0.0,-4.7826,-4.8619,-5.0126,-5.1176,-5.1285,-5.2009,-5.2498,-5.2498,-5.2498,-5.2526,-5.2586,-5.2698,-5.2828,-5.2999,-5.3103,-5.3185,-5.3185,-5.3185,-5.3359,-5.3701,-5.4326,-5.4697,-5.4806,-5.514,-5.5345,-5.5403,-5.5403,-5.5403,-5.5403,-5.5403,-5.5403,-5.5403,-5.5403,-5.5403,-5.5403,-5.5403,-5.5403,-5.5403,-5.5403,-5.544,-5.5504,-5.5504,-5.5585,-5.5703,-5.5703,-5.5703,-5.5549,-5.4741,-5.3895,-5.3049,-5.2288,-5.1491,-5.0856,-5.0856,-5.0856,-5.0827,-5.0731,-5.0712,-5.0712,-5.0712,-5.0712,-5.0442,-4.9567,-4.8125,-4.7019,-4.6923,-4.6182,-4.5594,-4.5594,-4.5594,-4.5594,-4.5594,-4.5594,-4.5594,-4.5594,-4.5586,-4.555,-4.541,-4.54,-4.537,-4.5307,-4.5307,-4.5307,-4.5307,-4.5307,-4.5307,-4.5307,-4.5307,-4.5307,-4.5307,-4.5307,-4.5307,-4.5307,-4.5307,-4.5307,-4.7968,-4.809,-4.7992,-4.799,-4.7327,-4.6501,-4.5829,-4.4951,0.0,0.0,-4.3227,-4.3262,-4.3118,-4.3769,-4.4349,-4.4476,-4.5743,-4.6993,-4.7787,-4.9293,-5.0565,0.0,-5.2009,-5.2498,-5.2498,-5.2498,0.0,0.0,-5.2604,-5.2743,-5.2999,-5.302,-5.3082,-5.3185,-5.3185,-5.3359,-5.3701,-5.3833,-5.419,-5.4791,-5.487,-5.5066,-5.5403,-5.5403,-5.5403,-5.5403,-5.5403,-5.5403,-5.5403,-5.5403,-5.5403,-5.5403,-5.5403,-5.5403,-5.5403,-5.5403,-5.544,-5.5504,-5.5504,-5.5585,-5.5703,-5.5703,-5.5703,-5.5549,-5.4741,-5.3895,-5.3164,-5.3029,-5.2356,-5.1692,-5.1692,-5.1692,-5.1529,-5.0856,-5.0712,-5.0712,-5.0712,-5.0712,-5.0442,-4.9567,-4.8586,-4.7682,-4.7,-4.6182,-4.5594,-4.5594,-4.5594,-4.5594,-4.5594,-4.5594,-4.5594,-4.5594,-4.5559,-4.5485,-4.541,-4.5409,-4.5369,-4.5307,-4.5307,-4.5307,-4.5307,-4.5307,-4.5307,-4.5307,-4.5307,-4.5307,-4.5307,-4.5307,-4.5307,-4.5307,-4.5307,-4.5307,-4.8027,-4.8169,-4.7999,-4.7501,-4.6728,-4.5847,-4.4972,0.0,0.0,0.0,-4.2901,-4.2901,-4.2901,-4.3227,0.0,-4.4023,-4.5091,-4.616,-4.6975,-4.846,0.0,-5.0583,-5.1375,-5.2027,0.0,-5.2498,-5.2498,-5.2498,-5.2531,-5.2667,-5.2872,-5.3039,-5.3124,-5.3185,-5.3185,-5.3272,-5.3442,-5.3623,-5.3979,-5.4544,-5.4716,-5.5004,-5.5403,-5.5403,-5.5403,-5.5403,-5.5403,-5.5403,-5.5403,-5.5403,-5.5403,-5.5403,-5.5403,-5.5403,-5.5403,-5.5403,-5.544,-5.5504,-5.5504,-5.5585,-5.5684,-5.5651,-5.5662,-5.5626,-5.5241,-5.4222,-5.3299,-5.376,-5.2626,-5.1375,-5.1788,-5.1587,-5.1183,-5.0789,-5.0712,-5.0712,-5.0712,-5.0712,-5.0577,-5.0164,-4.9375,-4.8509,-4.7682,-4.6836,-4.6124,-4.5671,-4.5594,-4.5594,-4.5594,-4.5594,-4.5594,-4.5594,-4.555,-4.5457,-4.541,-4.54,-4.5359,-4.5307,-4.5307,-4.5307,-4.5307,-4.5307,-4.5307,-4.5307,-4.5307,-4.5307,-4.5307,-4.5307,-4.5307,-4.5307,-4.5307,-4.5307,-4.7609,-4.7753,-4.753,-4.6793,-4.593,-4.5068,-4.4337,-4.35,0.0,0.0,-4.2901,-4.2901,-4.2901,-4.2901,-4.3118,0.0,-4.4512,-4.5327,-4.6142,-4.7645,-4.9021,0.0,-5.0796,0.0,-5.2426,-5.2498,0.0,-5.2498,-5.2503,-5.2599,-5.2783,-5.3039,-5.3164,-5.3185,-5.3185,-5.3185,-5.3185,-5.3462,-5.3795,-5.4176,-5.4444,-5.481,-5.5273,-5.5273,-5.5319,-5.5403,-5.5403,-5.5403,-5.5403,-5.5403,-5.5403,-5.5403,-5.5403,-5.5403,-5.5403,-5.5403,-5.544,-5.548,-5.5492,-5.5562,-5.564,-5.5607,-5.566,-5.5703,-5.5673,-5.4519,-5.3376,-5.4241,-5.2779,-5.1106,-5.1731,-5.1433,-5.0914,-5.075,-5.0712,-5.0712,-5.0712,-5.0712,-5.0712,-5.0712,-4.999,-4.9125,-4.8259,-4.7432,-4.6605,-4.5729,-4.5594,-4.5594,-4.5594,-4.5594,-4.5586,-4.5577,-4.5522,-4.5476,-4.541,-4.5409,-4.5359,-4.5307,-4.5307,-4.5307,-4.5307,-4.5307,-4.5307,-4.5307,-4.5307,-4.5307,-4.5307,-4.5307,-4.5307,-4.5307,-4.5307,-4.5307,-4.6104,-4.6122,-4.6085,-4.6012,-4.5242,-4.4491,-4.4381,0.0,0.0,-4.2901,-4.2901,-4.2901,-4.2901,-4.2901,-4.2919,-4.301,0.0,-4.4476,-4.5291,-4.6812,-4.8387,-4.993,0.0,0.0,-5.2426,-5.2498,-5.2498,-5.2498,-5.2559,-5.2654,-5.2783,-5.2934,-5.3063,-5.3185,-5.3185,-5.3185,-5.3185,-5.3227,-5.342,-5.3758,-5.3795,-5.4173,-5.4855,-5.4855,-5.5052,-5.5403,-5.5403,-5.5403,-5.5403,-5.5403,-5.5403,-5.5403,-5.5403,-5.5403,-5.5403,-5.5403,-5.5403,-5.542,-5.548,-5.5504,-5.5527,-5.5585,-5.566,-5.5692,-5.5618,-5.4487,-5.3376,-5.4241,-5.3183,-5.1808,-5.1885,-5.1846,-5.1606,-5.0856,-5.0712,-5.0712,-5.0712,-5.0712,-5.0712,-5.0712,-4.999,-4.9125,-4.8259,-4.7432,-4.6605,-4.5729,-4.5594,-4.5594,-4.5594,-4.5594,-4.5577,-4.5513,-4.5504,-4.5467,-4.5399,-4.5408,-4.5359,-4.5307,-4.5307,-4.5307,-4.5307,-4.5307,-4.5307,-4.5307,-4.5307,-4.5307,-4.5307,-4.5307,-4.5307,-4.5307,-4.5307,-4.5307,-4.5773,-4.5902,-4.5773,-4.526,-4.4821,-4.4364,-4.3761,0.0,-4.2994,-4.2919,-4.2901,-4.2901,-4.2901,-4.2901,-4.2901,0.0,0.0,0.0,-4.5182,-4.6269,-4.7572,-4.9184,-5.009,0.0,0.0,0.0,-5.2498,-5.2498,-5.2526,-5.2622,-5.2783,-5.2934,-5.306,-5.3185,-5.3185,-5.3185,-5.3185,-5.3185,-5.3359,-5.3701,-5.3701,-5.4104,-5.4791,-5.4791,-5.5023,-5.5403,-5.5403,-5.5403,0.0,-5.5403,-5.5403,-5.5403,-5.5403,-5.5403,-5.5403,-5.5403,-5.5403,-5.5408,-5.5432,-5.5468,-5.5504,-5.548,-5.5527,-5.5477,-5.4975,-5.403,-5.3208,-5.3554,-5.2471,-5.1298,-5.1769,-5.1548,-5.1106,-5.0789,-5.0712,-5.0712,-5.0712,-5.0712,-5.0712,-5.0712,-5.0423,-4.9913,-4.9029,-4.8182,-4.7336,-4.6509,-4.5932,-4.5594,-4.5594,-4.5594,-4.5559,-4.5448,-4.5438,-4.5429,-4.5389,-4.5359,-4.5328,-4.5307,-4.5307,-4.5307,-4.5307,-4.5307,-4.5307,-4.5307,-4.5307,-4.5307,-4.5307,-4.5307,-4.5307,-4.5307,-4.5307,-4.5307,-4.5039,-4.5186,-4.504,-4.4418,-4.4254,-4.4053,0.0,0.0,-4.3068,-4.2975,-4.2938,-4.2901,-4.2901,-4.2901,-4.2901,0.0,0.0,-4.4095,-4.5146,-4.5798,-4.683,0.0,0.0,-5.042,-5.1212,-5.2027,-5.2498,-5.2498,-5.2498,-5.2595,-5.2783,-5.289,-5.302,-5.3185,-5.3185,-5.3185,-5.3185,-5.3185,-5.3316,-5.3545,-5.3545,-5.387,-5.4493,-5.4607,-5.4855,-5.5214,-5.5345,-5.5403,0.0,-5.5403,-5.5403,-5.5403,-5.5403,-5.5403,-5.5403,-5.5403,-5.5409,-5.539,-5.5395,-5.542,-5.5463,-5.5408,-5.5267,-5.4927,-5.4115,-5.3502,-5.3061,-5.2813,-5.1749,-5.0827,-5.1395,-5.1125,-5.0712,-5.0712,-5.0712,-5.0712,-5.0712,-5.0712,-5.0712,-5.0712,-5.0712,-5.0423,-4.9548,-4.8894,-4.8202,-4.7375,-4.6528,-4.597,-4.597,-4.5731,-4.5522,-4.541,-4.539,-4.538,-4.5369,-4.5328,-4.5307,-4.5307,-4.5307,-4.5307,-4.5307,-4.5307,-4.5307,-4.5307,-4.5307,-4.5307,-4.5307,-4.5307,-4.5307,-4.5307,-4.5307,-4.5307,-4.3533,-4.3533,-4.3533,-4.3497,-4.3446,-4.3394,0.0,-4.3251,-4.3104,-4.3104,-4.2994,-4.2901,-4.2901,-4.2901,-4.2901,-4.2901,0.0,0.0,-4.5073,-4.5309,-4.6196,0.0,0.0,-5.042,-5.1212,-5.2027,-5.2498,-5.2498,-5.2498,0.0,-5.2783,-5.2806,-5.2912,-5.3185,-5.3185,-5.3185,-5.3185,-5.3185,-5.3206,-5.3206,-5.3206,-5.338,-5.372,-5.4123,-5.4479,-5.4821,-5.5233,-5.5403,0.0,-5.5403,-5.5403,-5.5403,-5.5403,-5.5403,-5.5403,-5.5403,-5.5403,-5.5403,-5.5402,-5.5396,-5.5396,-5.5402,-5.4823,-5.3951,-5.3084,-5.2955,-5.2927,-5.2144,-5.1337,-5.0712,-5.0712,-5.0712,-5.0712,-5.0712,-5.0712,-5.0712,-5.0712,-5.0712,-5.0712,-5.0712,-5.0712,-5.0423,-4.9548,-4.9394,-4.9086,-4.8221,-4.7413,-4.6885,-4.6885,-4.6088,-4.5485,-4.541,-4.54,-4.5369,-4.5307,-4.5307,-4.5307,-4.5307,-4.5307,-4.5307,-4.5307,-4.5307,-4.5307,-4.5307,-4.5307,-4.5307,-4.5307,-4.5307,-4.5307,-4.5307,-4.5307,-4.5307,-4.3515,-4.3515,-4.3515,-4.3515,-4.348,-4.3464,-4.3412,-4.3359,-4.3269,-4.3123,-4.3067,-4.3012,-4.2919,-4.2901,-4.2901,-4.2901,-4.2901,0.0,0.0,0.0,0.0,-4.7859,-4.9275,-5.0637,0.0,0.0,-5.2498,-5.2498,-5.2498,-5.2549,-5.2654,-5.2761,-5.2912,-5.3185,-5.3185,-5.3185,-5.3185,-5.3185,-5.3185,-5.3185,-5.3185,-5.338,-5.3701,-5.3833,-5.4226,-5.4806,-5.4928,-5.514,-5.5403,-5.5403,-5.5403,-5.5403,-5.5403,-5.5403,-5.5403,-5.5403,-5.5403,-5.5403,-5.5409,-5.5396,-5.5307,-5.4721,-5.4326,-5.3849,-5.2482,-5.2093,-5.2001,-5.1268,-5.0894,-5.0712,-5.0712,-5.0712,-5.0712,-5.0712,-5.0712,-5.0712,-5.0712,-5.0712,-5.0712,-5.0712,-5.0712,-5.0616,-5.0346,-4.9779,-4.9317,-4.9029,-4.8231,-4.7645,-4.7645,-4.7386,-4.6953,-4.629,-4.6212,-4.5971,-4.5345,-4.5307,-4.5307,-4.5307,-4.5307,-4.5307,-4.5307,-4.5307,-4.5307,-4.5307,-4.5307,-4.5307,-4.5307,-4.5307,-4.5307,-4.5297,-4.5076,-4.5087,0.0,-4.3515,-4.3515,-4.3515,-4.3515,0.0,-4.3446,-4.3429,-4.3376,-4.3233,-4.316,-4.3068,-4.2994,-4.2938,-4.2901,-4.2901,-4.2901,-4.3463,0.0,0.0,0.0,-4.7935,0.0,0.0,0.0,-5.2317,-5.2498,-5.2498,-5.2498,-5.2531,-5.2608,-5.2739,-5.2912,-5.3103,-5.3185,-5.3185,-5.3185,-5.3185,-5.3185,-5.3185,-5.3185,-5.3295,-5.3524,-5.3643,-5.3943,-5.4392,-5.4666,-5.4947,0.0,-5.5332,-5.5403,-5.5403,-5.5403,-5.5403,-5.5403,-5.5403,-5.5403,-5.5403,-5.5403,-5.5403,-5.5269,-5.439,-5.3664,-5.2912,-5.1649,-5.1256,-5.1195,-5.0817,-5.0712,-5.0712,-5.0712,-5.0712,-5.0712,-5.0712,-5.0712,-5.0712,-5.0712,-5.0712,-5.0683,-5.0663,-5.0653,-5.0653,-5.0633,-5.0162,-4.9816,-4.9816,-4.9037,-4.8461,-4.8461,-4.817,-4.7745,-4.7159,-4.708,-4.6819,-4.629,-4.566,-4.5307,-4.5307,-4.5307,-4.5307,-4.5307,-4.5307,-4.5307,-4.5307,-4.5307,-4.5307,-4.5307,-4.5307,-4.5307,-4.5297,-4.5087,-4.5098,0.0,-4.3515,0.0,0.0,0.0,0.0,-4.3515,-4.3464,0.0,-4.3394,-4.3251,-4.3123,-4.3104,-4.3012,-4.2919,-4.2919,-4.2919,-4.3481,0.0,-4.5399,0.0,0.0,-4.9601,0.0,-5.1212,-5.2027,-5.2498,-5.2498,-5.2498,-5.2526,-5.2586,-5.2717,-5.285,-5.2977,-5.3103,-5.3185,-5.3185,-5.3185,-5.3185,-5.3185,-5.3185,-5.3185,-5.3206,-5.3524,-5.3682,-5.3739,-5.4441,-5.4776,-5.4821,-5.5227,-5.5403,-5.5403,-5.5403,-5.5403,-5.5403,-5.5403,-5.5403,-5.5403,-5.5403,-5.5365,-5.5154,-5.4218,-5.2824,-5.1384,-5.0706,-5.0532,-5.0603,-5.0663,-5.0702,-5.0712,-5.0683,-5.0702,-5.0712,-5.0683,-5.0702,-5.0712,-5.0683,-5.0702,-5.0673,-5.0613,-5.0603,-5.0582,-5.0511,-5.05,-5.05,-5.05,-4.9799,-4.9301,-4.9301,-4.8577,-4.8037,-4.799,-4.7936,-4.7865,-4.7807,-4.6328,-4.5403,-4.5403,-4.5326,-4.5307,-4.5307,-4.5307,-4.5307,-4.5307,-4.5307,-4.5307,-4.5307,-4.5307,-4.5307,-4.5297,-4.5246,-4.5246,-4.3515,0.0,-4.3515,-4.3515,-4.3515,-4.3515,0.0,-4.3497,-4.3463,-4.3412,-4.3359,-4.3305,-4.3215,-4.316,-4.3105,-4.3068,-4.3087,-4.3632,-4.5093,-4.6359,0.0,-4.8746,-4.9601,-5.042,-5.1212,-5.2027,-5.2498,-5.2498,-5.2498,-5.2521,-5.2526,-5.2604,-5.2698,-5.2828,-5.289,-5.2995,-5.3185,-5.3185,-5.3185,-5.3185,-5.3185,-5.3185,-5.3206,-5.3293,-5.3462,-5.3739,-5.421,-5.456,-5.4821,-5.5227,-5.5403,-5.5403,-5.5403,-5.5403,-5.5403,-5.5403,-5.5403,-5.5403,-5.5403,-5.4963,-5.4161,-5.2671,-5.1467,-5.0581,-5.0459,-5.0468,-5.0532,-5.0603,-5.0653,-5.0702,-5.0633,-5.0653,-5.0702,-5.0633,-5.0653,-5.0692,-5.0633,-5.0653,-5.0673,-5.0613,-5.0603,-5.0582,-5.0511,-5.05,-5.05,-5.05,-5.0284,-5.0117,-5.0117,-4.99,-4.9503,-4.8872,-4.8804,-4.8525,-4.7865,-4.6825,-4.6214,-4.6214,-4.564,-4.5307,-4.5307,-4.5307,-4.5307,-4.5307,-4.5307,-4.5307,-4.5307,-4.5307,-4.5307,-4.5297,-4.4826,-4.472,-4.3515,-4.3515,-4.3515,-4.3515,-4.3515,-4.3515,-4.3515,0.0,-4.3497,-4.3464,-4.3411,-4.3394,-4.3305,-4.3233,-4.3196,-4.316,-4.3488,-4.4253,0.0,0.0,-4.8007,-4.88,-4.9601,-5.042,0.0,-5.2027,-5.2498,-5.2498,-5.2498,-5.2498,-5.2498,-5.2559,-5.2635,-5.2698,-5.2761,-5.2934,-5.3185,-5.3143,-5.3143,-5.3185,-5.3185,-5.3185,-5.3185,-5.3185,-5.3314,-5.3502,-5.3851,-5.4226,-5.4607,-5.4962,-5.5227,-5.5403,-5.5403,-5.5403,-5.5403,-5.5403,-5.5403,-5.5345,-5.4944,-5.3989,-5.2805,-5.1875,-5.1009,-5.0314,-5.039,-5.0435,-5.0468,-5.0551,-5.0593,-5.0603,-5.0553,-5.0573,-5.0603,-5.0553,-5.0573,-5.0603,-5.0553,-5.0573,-5.0593,-5.0511,-5.05,-5.0489,-5.0416,-5.0404,-5.0404,-5.0404,-5.039,-5.0348,-5.0348,-5.0314,-5.013,-4.9691,-4.9652,-4.9461,-4.9003,-4.8181,-4.7513,-4.7131,-4.6691,-4.6271,-4.587,-4.5851,-4.5679,-4.5307,-4.5307,-4.5307,-4.5307,-4.5307,-4.5307,-4.5297,-4.4965,-4.4887,-4.3479,-4.341,-4.3321,-4.348,-4.3515,-4.3515,-4.3515,0.0,0.0,0.0,0.0,0.0,0.0,-4.3322,0.0,0.0,0.0,0.0,-4.6524,-4.7293,-4.795,-4.8637,-4.9546,0.0,-5.1049,-5.1955,-5.2498,-5.2498,-5.2498,-5.2498,-5.2498,-5.2559,-5.2586,-5.259,-5.2694,-5.289,-5.3164,-5.306,-5.3082,-5.3185,-5.3185,-5.3185,-5.3185,-5.3185,-5.3185,-5.3227,-5.3545,0.0,-5.4228,-5.4591,-5.4918,-5.5233,-5.5292,-5.5319,-5.53,-5.5224,-5.5212,-5.5059,-5.4065,-5.2785,-5.1582,-5.1448,-5.0913,-5.0314,-5.0379,-5.0371,-5.0401,-5.0438,-5.0489,-5.05,-5.0489,-5.05,-5.05,-5.0489,-5.05,-5.05,-5.0489,-5.05,-5.0478,-5.0412,-5.0401,-5.039,-5.0314,-5.0302,-5.0302,-5.0302,-5.0302,-5.0302,-5.0302,-5.0302,-5.0302,-5.0302,-5.0302,-5.0302,-5.0302,-4.9671,-4.8965,-4.8227,-4.7941,-4.7463,-4.6729,-4.671,-4.6385,-4.5679,-4.5679,-4.5679,-4.5679,-4.5679,-4.5602,-4.5468,-4.5404,-4.5295,-4.341,-4.2958,-4.2578,-4.3322,-4.3515,-4.3515,-4.3515,0.0,0.0,0.0,0.0,0.0,0.0,-4.348,-4.3428,0.0,0.0,-4.5671,0.0,0.0,-4.7753,-4.788,0.0,-5.0166,-5.0275,-5.1629,-5.2498,-5.2498,-5.2498,-5.2498,-5.2498,-5.2503,-5.2554,-5.259,-5.2554,-5.2708,-5.302,-5.302,-5.3082,-5.3185,-5.3185,-5.3185,-5.3185,-5.3185,-5.3185,-5.3227,0.0,-5.3739,-5.3814,-5.4228,-5.4397,-5.4498,-5.478,-5.4884,-5.4852,-5.4453,-5.4295,-5.4085,-5.2518,-5.183,-5.1486,-5.0741,-5.0417,-5.0302,-5.0314,-5.0314,-5.0314,-5.0325,-5.0404,-5.0489,-5.0435,-5.0457,-5.0489,-5.0435,-5.0457,-5.0489,-5.0435,-5.0468,-5.0478,-5.0412,-5.0401,-5.039,-5.0314,-5.0302,-5.0302,-5.0302,-5.0302,-5.0302,-5.0302,-5.0302,-5.0302,-5.0302,-5.0302,-5.0302,-5.0302,-5.0187,-5.0054,-4.992,-4.8571,-4.7731,-4.7616,-4.7597,-4.754,-4.7406,-4.7406,-4.7406,-4.7406,-4.7406,-4.7035,-4.6298,-4.5849,-4.5248,-4.3069,-4.2693,-4.24,-4.3286,-4.3339,-4.3178,0.0,0.0,0.0,0.0,0.0,0.0,0.0,0.0,-4.3773,-4.46,0.0,-4.6589,-4.7335,-4.7668,-4.7943,0.0,0.0,-5.0275,-5.0728,-5.181,-5.2317,-5.1864,-5.2245,-5.2299,-5.1864,-5.2263,-5.2503,-5.2554,-5.2503,-5.2618,-5.289,-5.2893,-5.2999,-5.3185,-5.3185,-5.3185,-5.3185,-5.3185,-5.3185,-5.3206,0.0,-5.3524,-5.3701,-5.3907,-5.3861,-5.3672,-5.3817,-5.369,-5.3447,-5.341,-5.311,-5.2652,-5.1868,-5.1295,-5.0837,-5.0436,-5.0302,-5.0302,-5.0302,-5.0302,-5.0302,-5.0302,-5.0337,-5.0382,-5.0348,-5.0359,-5.0382,-5.0348,-5.0359,-5.0382,-5.0348,-5.0359,-5.0382,-5.0348,-5.0356,-5.0344,-5.0302,-5.0302,-5.0302,-5.0302,-5.0302,-5.0302,-5.0302,-5.0302,-5.0302,-5.0302,-5.0302,-5.0302,-5.0302,-5.0302,-5.0302,-5.0302,-4.9175,-4.8506,-4.8506,-4.8048,-4.7788,-4.7788,-4.7788,-4.7701,-4.7521,-4.7521,-4.7239,-4.6669,-4.6412,-4.6077,-4.2614,-4.2318,-4.2074,-4.2828,0.0,0.0,0.0,0.0,0.0,0.0,0.0,0.0,0.0,-4.3592,0.0,-4.592,-4.6634,-4.7252,-4.7961,-4.7966,-4.8097,-4.8611,-4.9351,-5.0053,-5.0669,-5.1466,-5.1665,-5.1072,-5.1574,-5.1665,-5.1049,-5.1593,-5.2009,-5.2208,-5.2208,-5.2395,-5.2761,-5.2783,-5.2934,-5.3185,-5.3185,-5.3185,-5.3185,-5.3185,-5.3185,-5.3185,-5.3004,-5.3062,-5.3288,-5.3102,-5.2828,-5.2574,-5.2641,-5.241,-5.2063,-5.2316,-5.1934,-5.1314,-5.1314,-5.0856,-5.0302,-5.0302,-5.0302,-5.0302,-5.0302,-5.0302,-5.0302,-5.0302,-5.0302,-5.0302,-5.0302,-5.0302,-5.0302,-5.0302,-5.0302,-5.0302,-5.0302,-5.0302,-5.0302,-5.0302,-5.0302,-5.0302,-5.0302,-5.0302,-5.0302,-5.0302,-5.0302,-5.0302,-5.0302,-5.0302,-5.0302,-5.0302,-5.0302,-5.0302,-5.0302,-5.0302,-5.0302,-5.0302,-4.971,-4.9366,-4.9366,-4.8735,-4.838,-4.838,-4.838,-4.8226,-4.7895,-4.7895,-4.7621,-4.7099,-4.7023,-4.688,-4.2115,-4.1622,-4.1111,-4.1556,-4.1948,0.0,-4.2806,-4.2595,0.0,-4.23,0.0,0.0,0.0,-4.3871,-4.5131,-4.6746,-4.7019,-4.7291,-4.8078,0.0,-4.7918,-4.7972,-4.8557,-4.8999,-4.9054,-4.98,-5.0257,-5.0202,-5.0257,-5.0257,-5.0202,-5.0257,-5.0619,-5.1357,-5.1375,-5.1787,-5.2613,-5.2739,-5.2934,-5.3185,-5.3185,-5.3185,-5.3185,-5.3185,-5.3185,-5.317,-5.2417,-5.2089,-5.2075,-5.132,-5.0991,-5.0997,-5.1324,-5.1321,-5.1201,-5.1196,-5.0875,-5.0397,-5.0397,-5.0359,-5.0302,-5.0302,-5.0302,-5.0302,-5.0302,-5.0302,-5.0302,-5.0302,-5.0302,-5.0302,-5.0302,-5.0302,-5.0302,-5.0302,-5.0302,-5.0302,-5.0302,-5.0302,-5.0302,-5.0302,-5.0302,-5.0302,-5.0302,-5.0302,-5.0302,-5.0302,-5.0302,-5.0302,-5.0302,-5.0302,-5.0302,-5.0302,-5.0302,-5.0302,-5.0302,-5.0302,-5.0302,-5.0302,-5.0245,-5.0206,-5.0206,-5.0149,-5.013,-5.013,-5.013,-4.996,-4.9614,-4.9614,-4.9051,-4.8014,-4.7679,-4.714,-4.1648,-4.1328,-4.1065,-4.1756,-4.1666,0.0,0.0,-4.2115,-4.2198,-4.2198,-4.2557,0.0,0.0,0.0,-4.6379,-4.7003,-4.7516,-4.7899,-4.817,-4.8146,-4.8026,-4.7902,-4.8569,-4.8998,-4.8912,-4.9619,-4.9872,-4.9383,-4.9818,-4.9872,-4.9383,-4.9818,-5.0257,-5.0524,-5.1031,-5.1497,-5.1918,-5.2502,-5.2634,-5.2349,-5.2926,-5.2949,-5.2454,-5.2454,-5.2179,-5.1701,-5.1389,-5.1242,-5.1224,-5.093,-5.0508,-5.0035,-4.9842,-4.9713,-4.9727,-5.0152,-5.0155,-5.0025,-5.0224,-5.0302,-5.0302,-5.0302,-5.0302,-5.0302,-5.0302,-5.0302,-5.0302,-5.0302,-5.0302,-5.0302,-5.0302,-5.0302,-5.0302,-5.0302,-5.0302,-5.0302,-5.0302,-5.0302,-5.0302,-5.0302,-5.0302,-5.0302,-5.0302,-5.0302,-5.0302,-5.0302,-5.0302,-5.0302,-5.0302,-5.0302,-5.0302,-5.0302,-5.0302,-5.0302,-5.0302,-5.0302,-5.0212,-4.9993,-5.0181,-5.0302,-5.0302,-5.0088,-4.9981,-4.9981,-4.9771,-4.9512,-4.9177,-4.9177,-4.8833,-4.8232,-4.8089,-4.7868,-4.1255,-4.1094,-4.1041,-4.1644,0.0,0.0,-4.1237,-4.1556,-4.1866,-4.2074,-4.2703,-4.3606,-4.4983,0.0,0.0,0.0,-4.7727,-4.8073,-4.8012,-4.811,-4.8128,-4.7945,-4.8395,-4.8678,-4.8532,-4.9021,-4.9112,-4.8547,-4.9021,-4.9094,-4.8547,-4.9039,-4.9456,-4.9709,-5.0253,-5.0714,-5.1056,-5.1715,-5.1806,-5.1362,-5.2095,-5.216,-5.161,-5.161,-5.1316,-5.0784,-5.0527,-5.0417,-5.0398,-5.0123,-4.9682,-4.9152,-4.879,-4.8712,-4.8867,-4.9317,-4.9541,-4.9674,-4.9897,-5.0051,-5.0144,-5.0144,-5.0212,-5.0302,-5.0302,-5.0302,-5.0302,-5.0302,-5.0302,-5.0302,-5.0302,-5.0302,-5.0302,-5.0302,-5.0302,-5.0302,-5.0302,-5.0302,-5.0302,-5.0302,-5.0302,-5.0302,-5.0302,-5.0302,-5.0302,-5.0302,-5.0302,-5.0302,-5.0302,-5.0302,-5.0302,-5.0302,-5.0302,-5.0302,-5.0302,-5.0212,-5.0051,-4.9798,-4.9929,-4.9981,-4.9981,-4.9857,-4.9744,-4.9627,-4.9424,-4.9145,-4.8799,-4.8799,-4.8623,-4.8306,-4.8306,-4.8306,-4.0912,-4.0912,-4.0912,-4.0912,0.0,0.0,-4.0912,-4.0912,-4.1119,-4.1861,-4.2967,-4.4334,-4.6065,-4.6015,0.0,-4.7401,-4.7591,-4.7591,-4.7611,-4.7933,-4.8148,-4.8012,-4.7927,-4.784,-4.7699,-4.7717,-4.7717,-4.7717,-4.7717,-4.7717,-4.7717,-4.7717,-4.8079,-4.8855,-4.8891,-4.9293,-5.0093,-5.0289,-5.0396,-5.0378,-5.0664,-5.0802,-5.0802,-5.0802,-5.0784,-5.0729,-4.9941,-4.9592,-4.9519,-4.8655,-4.8306,-4.8306,-4.8306,-4.8495,-4.8799,-4.8799,-4.8999,-4.9302,-4.9299,-4.9527,-4.9803,-4.9803,-5.0038,-5.0302,-5.0302,-5.0302,-5.0302,-5.0302,-5.0302,-5.0302,-5.0302,-5.0302,-5.0302,-5.0302,-5.0302,-5.0302,-5.0302,-5.0302,-5.0302,-5.0302,-5.0302,-5.0302,-5.0302,-5.0302,-5.0302,-5.0302,-5.0302,-5.0302,-5.0302,-5.0302,-5.0302,-5.0302,-5.029,-5.029,-5.029,-4.9981,-4.9784,-4.9784,-4.9483,-4.9299,-4.9299,-4.9632,-4.9627,-4.9299,-4.9283,-4.9129,-4.8799,-4.8799,-4.8623,-4.8306,-4.8306,-4.8306,-4.0912,-4.0912,0.0,-4.0912,0.0,0.0,0.0,-4.1309,0.0,0.0,-4.3997,-4.49,-4.5765,-4.6266,0.0,-4.7035,-4.7093,-4.7226,-4.7548,-4.7713,-4.7834,-4.7992,-4.799,-4.7907,-4.7717,-4.7717,-4.7717,-4.7717,-4.7717,-4.7717,-4.7717,-4.7717,-4.7805,-4.804,-4.8601,-4.8999,-4.9257,-5.0016,-5.0104,-4.956,-4.9821,-4.9978,-4.9978,-4.9978,-4.9609,-4.904,-4.8783,-4.8691,-4.8673,-4.8416,-4.8306,-4.8306,-4.8306,-4.8364,-4.8477,-4.8711,-4.8849,-4.8965,-4.9224,-4.9527,-4.9803,-4.9803,-5.0038,-5.0302,-5.0302,-5.0302,-5.0302,-5.0302,-5.0302,-5.0302,-5.0302,-5.0302,-5.0302,-5.0302,-5.0302,-5.0302,-5.0302,-5.0302,-5.0302,-5.0302,-5.0302,-5.0302,-5.0302,-5.0302,-5.0302,-5.0302,-5.0302,-5.0302,-5.0302,-5.0088,-4.9955,-4.9955,-4.973,-4.9584,-4.9584,-4.9512,-4.9348,-4.9097,-4.9206,-4.9299,-4.9299,-4.9177,-4.9048,-4.8951,-4.8729,-4.855,-4.8458,-4.8458,-4.8402,-4.8306,-4.8306,-4.8306,-4.084,-4.0864,0.0,-4.0912,-4.0912,-4.1067,-4.1671,0.0,0.0,0.0,-4.4624,-4.532,-4.5805,-4.6124,0.0,-4.6602,-4.6607,-4.6724,-4.7004,-4.736,-4.763,-4.7708,-4.7891,-4.7929,-4.772,-4.7717,-4.7717,-4.7717,-4.7717,-4.7717,-4.7717,-4.7717,-4.7717,-4.7717,-4.8167,-4.842,-4.842,-4.9083,-4.9149,-4.8696,-4.8937,-4.9056,-4.9056,-4.9077,-4.8802,-4.8306,-4.8306,-4.8306,-4.8306,-4.8306,-4.8306,-4.8306,-4.8306,-4.8306,-4.8325,-4.8532,-4.8604,-4.8641,-4.8832,-4.9129,-4.9394,-4.9394,-4.9716,-5.0088,-5.0088,-5.0181,-5.0302,-5.0302,-5.0302,-5.0302,-5.0302,-5.0302,-5.0302,-5.0302,-5.0302,-5.0302,-5.0302,-5.0302,-5.0302,-5.0302,-5.0302,-5.0302,-5.0302,-5.0302,-5.0302,-5.0302,-5.02,-5.0051,-4.9929,-4.973,-4.9599,-4.9599,-4.9424,-4.9299,-4.9299,-4.9177,-4.9034,-4.8816,-4.8866,-4.8898,-4.8898,-4.8832,-4.8729,-4.8604,-4.8402,-4.8306,-4.8306,-4.8306,-4.8306,-4.8306,-4.8306,-4.8305,-4.0745,-4.0793,0.0,-4.0912,-4.0912,0.0,-4.2844,-4.3189,-4.3431,-4.4242,0.0,-4.5537,-4.6055,-4.5727,-4.5563,-4.6038,-4.6137,-4.6137,-4.6186,-4.6936,-4.7417,-4.7262,-4.7645,-4.7829,-4.7615,-4.7657,-4.7678,-4.7636,-4.7657,-4.7717,-4.7717,-4.7717,-4.7717,-4.7717,-4.7717,-4.7717,-4.7717,-4.784,-4.7881,-4.7902,-4.8107,-4.8187,-4.8207,-4.8267,-4.8306,-4.8306,-4.8306,-4.8306,-4.8306,-4.8306,-4.8306,-4.8306,-4.8306,-4.8306,-4.8306,-4.8306,-4.8306,-4.8306,-4.8306,-4.8532,-4.8799,-4.8799,-4.9224,-4.9744,-4.9744,-4.9968,-5.0212,-5.0212,-5.0212,-5.0212,-5.0212,-5.0236,-5.0248,-5.0212,-5.0267,-5.0302,-5.0302,-5.0302,-5.029,-5.0248,-5.0248,-5.0236,-5.0212,-5.0212,-5.0212,-5.0212,-4.9955,-4.9627,-4.9348,-4.9268,-4.9252,-4.9252,-4.924,-4.9206,-4.9206,-4.8934,-4.8746,-4.8746,-4.8458,-4.8306,-4.8306,-4.8586,-4.8604,-4.8306,-4.8306,-4.8306,-4.8306,-4.8306,-4.8306,-4.8306,-4.8287,-4.8267,-4.0817,-4.0793,0.0,0.0,-4.0912,-4.1309,-4.2844,-4.3189,-4.3569,-4.4906,-4.5276,-4.5423,-4.5537,-4.5476,-4.545,-4.5537,-4.5563,-4.5701,-4.6137,-4.6363,-4.6584,-4.6799,-4.7196,-4.724,-4.666,-4.7258,-4.7533,-4.7107,-4.7468,-4.7717,-4.7717,-4.7717,-4.7717,-4.7717,-4.7717,-4.7717,-4.7717,-4.784,-4.7881,-4.7902,-4.8107,-4.8187,-4.8207,-4.8267,-4.8306,-4.8306,-4.8306,-4.8306,-4.8306,-4.8306,-4.8306,-4.8306,-4.8306,-4.8306,-4.8306,-4.8306,-4.8306,-4.8306,-4.8306,-4.8532,-4.8799,-4.8799,-4.9064,-4.9424,-4.9424,-4.9468,-4.9512,-4.9512,-4.9512,-4.9512,-4.9512,-4.9716,-4.9844,-4.957,-4.9929,-5.0302,-5.0302,-5.0302,-5.0224,-4.9955,-4.9916,-4.983,-4.9556,-4.9512,-4.9512,-4.9512,-4.9453,-4.9375,-4.9299,-4.9064,-4.89,-4.89,-4.8676,-4.8532,-4.8532,-4.8439,-4.842,-4.842,-4.8344,-4.8306,-4.8306,-4.8364,-4.8364,-4.8306,-4.8306,-4.8306,-4.8306,-4.8306,-4.8306,-4.8287,-4.8247,-4.8207,-4.0607,0.0,0.0,-4.0871,0.0,-4.1205,-4.2361,-4.2913,-4.3517,-4.463,-4.5139,-4.5397,-4.5397,-4.5397,-4.5397,-4.5397,-4.5397,-4.5502,-4.5778,-4.6038,-4.6235,-4.6273,-4.6637,-4.673,-4.6262,-4.666,-4.684,-4.6525,-4.6999,-4.732,-4.732,-4.7554,-4.7717,-4.7717,-4.7717,-4.7717,-4.7717,-4.7759,-4.7801,-4.7819,-4.8008,-4.8149,-4.8247,-4.8287,-4.8306,-4.8306,-4.8306,-4.8306,-4.8306,-4.8306,-4.8306,-4.8306,-4.8306,-4.8306,-4.8306,-4.8306,-4.8306,-4.8306,-4.8306,-4.842,-4.855,-4.855,-4.8799,-4.9064,-4.9064,-4.9177,-4.9299,-4.9299,-4.9299,-4.9299,-4.9299,-4.9439,-4.9512,-4.9329,-4.9688,-5.0025,-4.9857,-4.983,-4.9757,-4.9584,-4.9556,-4.9512,-4.9314,-4.9299,-4.9256,-4.908,-4.9064,-4.8999,-4.8849,-4.8658,-4.855,-4.855,-4.8402,-4.8306,-4.8306,-4.8306,-4.8306,-4.8306,-4.8306,-4.8306,-4.8306,-4.8306,-4.8306,-4.8306,-4.8306,-4.8287,-4.8247,-4.8247,-4.8228,-4.8151,-4.813,-4.8088,-4.0362,0.0,-4.084,-4.0864,-4.0864,0.0,-4.1819,-4.2516,-4.3241,-4.4121,-4.4889,-4.5397,-4.5397,-4.5397,-4.5397,-4.5397,-4.5397,-4.5397,-4.5371,-4.5778,-4.5963,-4.5684,-4.6102,-4.6255,-4.5918,-4.6017,-4.6049,-4.5975,-4.6454,-4.6799,-4.6908,-4.7302,-4.7615,-4.7696,-4.7717,-4.7717,-4.7717,-4.7717,-4.7717,-4.7699,-4.7909,-4.8092,-4.8267,-4.8287,-4.8306,-4.8306,-4.8306,-4.8306,-4.8306,-4.8306,-4.8306,-4.8306,-4.8306,-4.8306,-4.8306,-4.8306,-4.8306,-4.8306,-4.8306,-4.8306,-4.8306,-4.8306,-4.8495,-4.8711,-4.8711,-4.8917,-4.9129,-4.9129,-4.9129,-4.9129,-4.9129,-4.9177,-4.9209,-4.9145,-4.9394,-4.9575,-4.9363,-4.9299,-4.9268,-4.9221,-4.9177,-4.9129,-4.9129,-4.9129,-4.9031,-4.8764,-4.8711,-4.8623,-4.8344,-4.8306,-4.8306,-4.8306,-4.8306,-4.8306,-4.8306,-4.8306,-4.8306,-4.8306,-4.8306,-4.8306,-4.8306,-4.8287,-4.8267,-4.8267,-4.8267,-4.8247,-4.8187,-4.8168,-4.811,-4.7992,-4.799,-4.7947,0.0,0.0,-4.0583,0.0,-4.0721,-4.0934,0.0,0.0,-4.2568,0.0,-4.4889,-4.5397,-4.5397,-4.5397,-4.5397,-4.5397,-4.5397,-4.5371,-4.5247,-4.538,-4.5406,-4.514,-4.558,-4.5641,-4.5015,-4.5657,-4.5918,-4.5433,-4.59,-4.6406,-4.6886,-4.6954,-4.7214,-4.7696,-4.7717,-4.7717,-4.7717,-4.7717,-4.7717,-4.7699,-4.7909,-4.8072,-4.8207,-4.8286,-4.8306,-4.8306,-4.8306,-4.8306,-4.8306,-4.8306,-4.8306,-4.8306,-4.8306,-4.8306,-4.8306,-4.8306,-4.8306,-4.8306,-4.8306,-4.8306,-4.8306,-4.8306,-4.8344,-4.8364,-4.8364,-4.8402,-4.8421,-4.8421,-4.8421,-4.8421,-4.8421,-4.8658,-4.8799,-4.8514,-4.8693,-4.9001,-4.9256,-4.9299,-4.9206,-4.8917,-4.8641,-4.8421,-4.8421,-4.8421,-4.842,-4.8364,-4.8364,-4.8345,-4.8306,-4.8306,-4.8306,-4.8306,-4.8306,-4.8306,-4.8306,-4.8306,-4.8306,-4.8306,-4.8306,-4.8306,-4.8306,-4.8247,-4.8207,-4.8207,-4.8207,-4.8207,-4.8187,-4.809,-4.8012,-4.7992,-4.7945,-4.7902,-4.0461,-4.0436,-4.0412,0.0,-4.0583,-4.0693,-4.1067,0.0,-4.2058,-4.2661,-4.346,-4.432,-4.5242,-4.5397,-4.5371,-4.53,-4.5274,-4.5247,-4.5113,-4.514,-4.5086,-4.4913,-4.5113,-4.5086,-4.472,-4.5042,-4.5142,-4.4934,-4.5372,-4.5749,-4.5975,-4.6572,-4.7017,-4.7236,-4.7533,-4.7717,-4.7717,-4.7717,-4.7738,-4.7801,-4.7929,-4.807,-4.8207,-4.8267,-4.8306,-4.8306,-4.8306,-4.8306,-4.8306,-4.8306,-4.8306,-4.8306,-4.8306,-4.8306,-4.8306,-4.8306,-4.8306,-4.8306,-4.8306,-4.8306,-4.8306,-4.8306,-4.8306,-4.8306,-4.8306,-4.8306,-4.8306,-4.8306,-4.8306,-4.8306,-4.8306,-4.842,-4.8477,-4.8344,-4.842,-4.855,-4.8711,-4.8728,-4.8693,-4.855,-4.8402,-4.8306,-4.8306,-4.8306,-4.8306,-4.8306,-4.8306,-4.8306,-4.8306,-4.8306,-4.8306,-4.8306,-4.8306,-4.8306,-4.8306,-4.8306,-4.8306,-4.8306,-4.8267,-4.8247,-4.8247,-4.8149,-4.809,-4.809,-4.809,-4.8068,-4.8026,-4.7986,-4.7907,-4.7827,-4.7801,-4.778,0.0,0.0,-4.0263,-4.0412,-4.0461,-4.0461,0.0,0.0,-4.1481,0.0,-4.2158,-4.3083,-4.4483,-4.4878,-4.5041,-4.5133,-4.5167,-4.5113,-4.4951,-4.4978,-4.4923,-4.4776,-4.4776,-4.4765,-4.4598,-4.4615,-4.4615,-4.4615,-4.4917,-4.5161,-4.5303,-4.6049,-4.6637,-4.6886,-4.728,-4.7554,-4.7717,-4.7717,-4.7759,-4.784,-4.7927,-4.8028,-4.8126,-4.8228,-4.8267,-4.8286,-4.8287,-4.8306,-4.8306,-4.8306,-4.8306,-4.8306,-4.8306,-4.8306,-4.8306,-4.8306,-4.8306,-4.8306,-4.8306,-4.8306,-4.8306,-4.8306,-4.8306,-4.8306,-4.8306,-4.8306,-4.8306,-4.8306,-4.8306,-4.8306,-4.8306,-4.8306,-4.8306,-4.8306,-4.8306,-4.8306,-4.8306,-4.8306,-4.8306,-4.8306,-4.8306,-4.8306,-4.8306,-4.8306,-4.8306,-4.8306,-4.8306,-4.8306,-4.8306,-4.8306,-4.8306,-4.8306,-4.8306,-4.8306,-4.8306,-4.8306,-4.8287,-4.8286,-4.8226,-4.8187,-4.8148,-4.8048,-4.797,-4.797,-4.7949,-4.7927,-4.7881,-4.7861,-4.7819,-4.7717,-4.7717,-4.7717,0.0,-4.0138,0.0,-4.028,-4.0305,0.0,0.0,0.0,-4.0766,-4.1467,-4.1638,-4.1928,-4.2783,-4.3501,-4.4185,-4.4903,-4.5005,-4.4951,-4.4831,-4.4913,-4.4896,-4.4626,-4.472,-4.4765,-4.4598,-4.4615,-4.4615,-4.4615,-4.4626,-4.4824,-4.5276,-4.5355,-4.585,-4.6863,-4.6931,-4.7191,-4.7696,-4.7717,-4.7699,-4.7717,-4.784,-4.7902,-4.7922,-4.8126,-4.8207,-4.8207,-4.8286,-4.8306,-4.8306,-4.8306,-4.8306,-4.8306,-4.8306,-4.8306,-4.8306,-4.8306,-4.8306,-4.8306,-4.8306,-4.8306,-4.8306,-4.8306,-4.8306,-4.8306,-4.8306,-4.8306,-4.8306,-4.8306,-4.8306,-4.8306,-4.8306,-4.8306,-4.8306,-4.8306,-4.8306,-4.8306,-4.8306,-4.8306,-4.8306,-4.8306,-4.8306,-4.8306,-4.8306,-4.8306,-4.8306,-4.8306,-4.8306,-4.8306,-4.8306,-4.8306,-4.8306,-4.8306,-4.8306,-4.8306,-4.8306,-4.8306,-4.8286,-4.8207,-4.8207,-4.813,-4.8012,-4.7945,-4.7902,-4.7902,-4.778,-4.778,-4.7881,-4.7759,-4.7717,-4.7717,-4.7717,-4.7717,0.0,0.0,0.0,-4.0163,-4.0163,-4.0188,-4.0221,-4.0313,-4.0406,-4.0586,-4.0704,-4.0967,-4.1656,-4.2551,-4.3226,-4.3369,-4.3403,-4.352,-4.3868,-4.3936,-4.4122,-4.4547,-4.4626,-4.4654,-4.4598,-4.4615,-4.4615,-4.4615,-4.4615,-4.4665,-4.4824,-4.5152,-4.5485,-4.585,-4.6525,-4.7151,-4.7678,-4.7717,-4.7717,-4.7717,-4.784,-4.7881,-4.7902,-4.8028,-4.811,-4.8207,-4.8226,-4.8267,-4.8306,-4.8306,-4.8306,-4.8306,-4.8306,-4.8306,-4.8306,-4.8306,-4.8306,-4.8306,-4.8306,-4.8306,-4.8306,-4.8306,-4.8306,-4.8306,-4.8306,-4.8306,-4.8306,-4.8306,-4.8306,-4.8306,-4.8306,-4.8306,-4.8306,-4.8306,-4.8306,-4.8306,-4.8306,-4.8306,-4.8306,-4.8306,-4.8306,-4.8306,-4.8306,-4.8306,-4.8306,-4.8306,-4.8306,-4.8306,-4.8306,-4.8306,-4.8306,-4.8306,-4.8267,-4.8246,-4.8246,-4.8169,-4.8092,-4.807,-4.8046,-4.8004,-4.7945,-4.7822,-4.7759,-4.7759,-4.7717,-4.7717,-4.7759,-4.7717,-4.7717,-4.7717,-4.7717,-4.7717,-4.0045,0.0,0.0,0.0,0.0,-4.0096,-4.0096,0.0,-4.0213,-4.0138,-4.0163,-4.0341,-4.0756,-4.141,-4.2005,-4.2387,-4.2428,-4.2562,-4.2963,-4.3047,-4.3234,-4.3768,-4.3836,-4.3836,-4.3836,-4.3836,-4.3836,-4.3836,-4.4045,-4.4198,-4.4198,-4.4753,-4.5152,-4.5303,-4.6165,-4.6886,-4.7446,-4.7428,-4.7511,-4.7717,-4.778,-4.784,-4.784,-4.7927,-4.8028,-4.8148,-4.8187,-4.8246,-4.8306,-4.8306,-4.8306,-4.8306,-4.8306,-4.8306,-4.8306,-4.8306,-4.8306,-4.8306,-4.8306,-4.8306,-4.8306,-4.8306,-4.8306,-4.8306,-4.8306,-4.8306,-4.8306,-4.8306,-4.8306,-4.8306,-4.8306,-4.8306,-4.8306,-4.8306,-4.8306,-4.8306,-4.8306,-4.8306,-4.8306,-4.8306,-4.8306,-4.8306,-4.8306,-4.8306,-4.8306,-4.8306,-4.8306,-4.8306,-4.8306,-4.8306,-4.8287,-4.8267,-4.8226,-4.8187,-4.8148,-4.805,-4.7992,-4.797,-4.7925,-4.7881,-4.784,-4.7738,-4.7717,-4.7717,-4.7717,-4.7717,-4.7717,-4.7717,-4.7717,-4.7717,-4.7717,-4.7717,0.0,0.0,0.0,0.0,0.0,0.0,-4.0113,-4.0096,-4.0096,-4.0096,-4.0096,-4.0096,-4.0096,-4.0096,-4.057,-4.1982,-4.2236,-4.2236,-4.2252,-4.2252,-4.2269,-4.2286,-4.2286,-4.2286,-4.2286,-4.2286,-4.2286,-4.2286,-4.2963,-4.3358,-4.3358,-4.413,-4.478,-4.5276,-4.58,-4.6334,-4.6863,-4.6886,-4.7151,-4.7696,-4.7678,-4.7717,-4.7699,-4.784,-4.7945,-4.8012,-4.8148,-4.8228,-4.8306,-4.8306,-4.8306,-4.8306,-4.8306,-4.8306,-4.8306,-4.8306,-4.8306,-4.8306,-4.8306,-4.8306,-4.8306,-4.8306,-4.8306,-4.8306,-4.8306,-4.8306,-4.8306,-4.8306,-4.8306,-4.8306,-4.8306,-4.8306,-4.8306,-4.8306,-4.8306,-4.8306,-4.8306,-4.8306,-4.8306,-4.8306,-4.8306,-4.8306,-4.8306,-4.8306,-4.8306,-4.8306,-4.8306,-4.8306,-4.8287,-4.8287,-4.8286,-4.8207,-4.8187,-4.8148,-4.8012,-4.7992,-4.7949,-4.7902,-4.7881,-4.784,-4.7717,-4.7717,-4.7717,-4.7717,-4.7717,-4.7717,-4.7717,-4.7717,-4.7717,-4.7717,-4.7717,-4.7717,-3.875,0.0,0.0,0.0,0.0,0.0,-3.9995,-4.0096,-4.0096,-4.0096,-4.0096,-4.0096,-4.0096,-4.0096,-4.0231,-4.0654,-4.0722,-4.0882,-4.1424,-4.1508,-4.1694,-4.2236,-4.2286,-4.2286,-4.2286,-4.2286,-4.2286,0.0,-4.2489,-4.2591,-4.2591,-4.3318,-4.4218,-4.5259,-4.5459,-4.5775,-4.631,-4.6707,-4.6976,-4.7129,-4.7511,-4.7717,-4.7717,-4.7738,-4.7845,-4.7992,-4.8032,-4.8151,-4.8306,-4.8306,-4.8306,-4.8306,-4.8306,-4.8306,-4.8306,-4.8306,-4.8306,-4.8306,-4.8306,-4.8306,-4.8306,-4.8306,-4.8306,-4.8306,-4.8306,-4.8306,-4.8306,-4.8306,-4.8306,-4.8306,-4.8306,-4.8306,-4.8306,-4.8306,-4.8306,-4.8306,-4.8306,-4.8306,-4.8306,-4.8306,-4.8306,-4.8306,-4.8306,-4.8306,-4.8306,-4.8306,-4.8306,-4.8267,-4.8228,-4.8226,-4.8169,-4.807,-4.8008,-4.7984,-4.7925,-4.7824,-4.7783,-4.7759,-4.7759,-4.7738,-4.7717,-4.7717,-4.7717,-4.7717,-4.7717,-4.7717,-4.7717,-4.7717,-4.7717,-4.7717,-4.7717,-4.7717,0.0,0.0,0.0,0.0,0.0,0.0,-3.9644,-3.9918,-4.0096,-4.0096,-4.0096,-4.0096,-4.0096,-4.0096,-4.0096,-4.0096,-4.0096,-4.0265,-4.0679,-4.073,-4.0882,-4.1348,-4.1399,-4.1399,-4.1399,-4.1399,-4.1399,-4.1399,-4.166,-4.1965,-4.2269,-4.3014,-4.3725,-4.4485,-4.4837,-4.5258,-4.5749,-4.6091,-4.6454,-4.6908,-4.7214,-4.749,-4.7717,-4.7717,-4.7783,-4.7968,-4.799,-4.8092,-4.8267,-4.8287,-4.8306,-4.8306,-4.8306,-4.8306,-4.8306,-4.8306,-4.8306,-4.8306,-4.8306,-4.8306,-4.8306,-4.8306,-4.8306,-4.8306,-4.8306,-4.8306,-4.8306,-4.8306,-4.8306,-4.8306,-4.8306,-4.8306,-4.8306,-4.8306,-4.8306,-4.8306,-4.8306,-4.8306,-4.8306,-4.8306,-4.8306,-4.8306,-4.8306,-4.8306,-4.8306,-4.8306,-4.8306,-4.8286,-4.8207,-4.8187,-4.8128,-4.7968,-4.7925,-4.7881,-4.7819,-4.7738,-4.7717,-4.7717,-4.7717,-4.7717,-4.7717,-4.7717,-4.7717,-4.7717,-4.7717,-4.7717,-4.7717,-4.7717,-4.7717,-4.7717,-4.7717,-4.7717,0.0,0.0,0.0,0.0,-3.8601,0.0,-3.9082,-3.9575,-3.9995,-3.9995,-4.0045,-4.0096,-4.0096,-4.0096,-4.0096,-4.0096,-4.0096,-4.0096,-4.0096,-4.0096,-4.0096,-4.0096,-4.0096,-4.0096,-4.0096,-4.0096,-4.0096,-4.0096,-4.0696,-4.1407,-4.2134,-4.2811,-4.3223,-4.3375,-4.4079,-4.4701,-4.5214,-4.5276,-4.5775,-4.673,-4.6776,-4.7084,-4.7615,-4.7615,-4.7717,-4.7902,-4.7949,-4.805,-4.8187,-4.8267,-4.8287,-4.8306,-4.8306,-4.8306,-4.8306,-4.8306,-4.8306,-4.8306,-4.8306,-4.8306,-4.8306,-4.8306,-4.8306,-4.8306,-4.8306,-4.8306,-4.8306,-4.8306,-4.8306,-4.8306,-4.8306,-4.8306,-4.8306,-4.8306,-4.8306,-4.8306,-4.8306,-4.8306,-4.8287,-4.8287,-4.8287,-4.8287,-4.8287,-4.8267,-4.8267,-4.8267,-4.8267,-4.8229,-4.8168,-4.8166,-4.8087,-4.7902,-4.7881,-4.784,-4.7717,-4.7717,-4.7717,-4.7717,-4.7717,-4.7717,-4.7717,-4.7717,-4.7717,-4.7717,-4.7717,-4.7717,-4.7717,-4.7717,-4.7717,-4.7717,-4.7717,-4.7717,0.0,0.0,0.0,0.0,-3.7666,0.0,-3.8379,-3.893,-3.9365,-3.9365,-3.9747,-4.0096,-4.0096,-4.0096,-4.0096,-4.0096,-4.0096,-4.0096,-4.0096,-4.0096,-4.0096,-4.0096,-4.0096,-4.0096,-4.0096,-4.0096,-4.0096,-4.0096,-4.0231,-4.0629,-4.1373,-4.1559,-4.2158,-4.3358,-4.3544,-4.3982,-4.4731,-4.5098,-4.5407,-4.5614,-4.6049,-4.6543,-4.7062,-4.7062,-4.7363,-4.7881,-4.7922,-4.7968,-4.805,-4.8169,-4.8247,-4.8306,-4.8306,-4.8306,-4.8306,-4.8306,-4.8306,-4.8306,-4.8306,-4.8306,-4.8306,-4.8306,-4.8306,-4.8306,-4.8306,-4.8306,-4.8306,-4.8306,-4.8306,-4.8306,-4.8306,-4.8306,-4.8306,-4.8306,-4.8306,-4.8306,-4.8306,-4.8306,-4.8287,-4.8246,-4.8226,-4.8226,-4.8226,-4.813,-4.8052,-4.8052,-4.8052,-4.803,-4.7984,-4.7963,-4.7902,-4.7759,-4.7738,-4.7738,-4.7717,-4.7717,-4.7717,-4.7717,-4.7717,-4.7717,-4.7717,-4.7717,-4.7717,-4.7717,-4.7717,-4.7717,-4.7717,-4.7717,-4.7717,-4.7717,-4.7717,-4.7717,0.0,0.0,0.0,-3.6723,-3.7118,0.0,0.0,-3.8322,-3.8739,-3.8739,-3.8984,-3.9295,-3.9618,-3.9644,-3.9747,-4.0045,-4.0096,-4.0096,-4.0096,-4.0096,-4.0096,-4.0096,-4.0096,-4.0096,-4.0096,-4.0096,-4.0096,-4.0096,-4.0096,-4.0265,-4.0629,-4.1001,-4.1542,-4.2286,-4.3003,-4.3578,-4.3995,-4.4637,-4.5089,-4.5303,-4.5571,-4.5975,-4.6501,-4.6776,-4.7084,-4.7407,-4.7759,-4.7922,-4.7947,-4.805,-4.813,-4.817,-4.8267,-4.8306,-4.8306,-4.8306,-4.8306,-4.8306,-4.8306,-4.8306,-4.8306,-4.8306,-4.8306,-4.8306,-4.8306,-4.8306,-4.8306,-4.8306,-4.8306,-4.8306,-4.8306,-4.8306,-4.8306,-4.8306,-4.8267,-4.8247,-4.8247,-4.8208,-4.8131,-4.811,-4.8068,-4.8067,-4.809,-4.8032,-4.7992,-4.7992,-4.7992,-4.797,-4.7902,-4.7881,-4.784,-4.7699,-4.7717,-4.7717,-4.7717,-4.7717,-4.7717,-4.7717,-4.7717,-4.7717,-4.7717,-4.7717,-4.7717,-4.7717,-4.7717,-4.7717,-4.7717,-4.7428,-4.7428,-4.7717,-4.7717,-4.7572,0.0,0.0,0.0,0.0,0.0,-3.7148,0.0,0.0,0.0,-3.8124,-3.8238,-3.8446,0.0,0.0,0.0,-3.9665,0.0,0.0,0.0,-4.0011,0.0,-4.0096,-4.0096,-4.0096,-4.0096,-4.0096,-4.0096,-4.0096,-4.0096,-4.0096,-4.0096,-4.0646,-4.1052,-4.1204,-4.2371,-4.3105,-4.3392,-4.4045,-4.4633,-4.5178,-4.5178,-4.5451,-4.595,-4.6501,-4.6799,-4.6931,-4.7593,-4.7861,-4.7861,-4.7947,-4.799,-4.801,-4.817,-4.8248,-4.8248,-4.8248,-4.8248,-4.8267,-4.8267,-4.8287,-4.8306,-4.8306,-4.8306,-4.8306,-4.8306,-4.8306,-4.8306,-4.8306,-4.8306,-4.8306,-4.8306,-4.8287,-4.8267,-4.8267,-4.8208,-4.8168,-4.8168,-4.807,-4.7992,-4.7972,-4.7945,-4.7922,-4.797,-4.797,-4.7931,-4.7931,-4.7931,-4.7909,-4.7881,-4.7861,-4.7819,-4.7717,-4.7717,-4.7717,-4.7717,-4.7717,-4.7717,-4.7717,-4.7717,-4.7717,-4.7717,-4.7717,-4.7717,-4.7717,-4.7615,-4.7533,-4.7533,-4.7017,-4.7017,-4.7533,-4.7428,-4.7151,0.0,0.0,0.0,0.0,-3.6085,0.0,-3.629,0.0,-3.728,-3.746,0.0,-3.8306,-3.839,0.0,0.0,0.0,0.0,0.0,-3.9208,-3.9706,-4.0096,-4.0096,-4.0096,-4.0096,-4.0096,-4.0096,-4.0096,-4.0096,-4.0096,-4.0096,-4.0096,-4.018,-4.051,-4.1187,-4.1373,-4.2083,-4.3375,-4.3477,-4.3921,-4.4665,-4.4665,-4.4934,-4.5407,-4.5968,-4.6454,-4.6931,-4.749,-4.7717,-4.7738,-4.7861,-4.7922,-4.7922,-4.801,-4.8032,-4.8032,-4.8032,-4.811,-4.8207,-4.8207,-4.8247,-4.8306,-4.8306,-4.8306,-4.8306,-4.8306,-4.8306,-4.8306,-4.8306,-4.8306,-4.8306,-4.8306,-4.8247,-4.8207,-4.8207,-4.811,-4.8012,-4.8012,-4.8012,-4.799,-4.7904,-4.7902,-4.7902,-4.7902,-4.7822,-4.772,-4.772,-4.772,-4.772,-4.7717,-4.7717,-4.7717,-4.7717,-4.7717,-4.7717,-4.7717,-4.7717,-4.7717,-4.7717,-4.7717,-4.7717,-4.7717,-4.7717,-4.7717,-4.7717,-4.7236,-4.6976,-4.6976,-4.6454,-4.6454,-4.6976,-4.6501,-4.6262,0.0,0.0,0.0,0.0,0.0,0.0,-3.6053,0.0,-3.6492,0.0,0.0,0.0,0.0,0.0,0.0,0.0,-3.9218,-3.9578,0.0,0.0,-4.0096,-4.0096,0.0,0.0,-4.0096,-4.0096,-4.0096,-4.0096,-4.0096,-4.0096,-4.0096,-4.0096,-4.0248,-4.0544,-4.0984,-4.1508,-4.2134,-4.2953,-4.3589,-4.391,-4.4395,-4.4692,-4.4917,-4.5425,-4.5925,-4.6454,-4.6999,-4.7407,-4.7699,-4.7759,-4.778,-4.778,-4.7824,-4.7909,-4.7992,-4.7992,-4.805,-4.809,-4.8168,-4.8169,-4.8131,-4.8208,-4.8189,-4.8131,-4.8208,-4.8228,-4.8228,-4.8151,-4.817,-4.8228,-4.8151,-4.811,-4.809,-4.809,-4.8008,-4.7927,-4.7927,-4.7886,-4.7824,-4.778,-4.778,-4.778,-4.778,-4.7738,-4.7717,-4.7717,-4.7717,-4.7717,-4.7717,-4.7717,-4.7717,-4.7717,-4.7717,-4.7717,-4.7717,-4.7717,-4.7717,-4.7717,-4.7717,-4.7717,-4.7717,-4.7407,-4.7236,-4.7236,-4.6707,-4.643,-4.643,-4.5918,-4.5749,-4.5975,-4.6049,-4.5925,-3.5504,0.0,0.0,0.0,0.0,0.0,0.0,0.0,0.0,0.0,0.0,0.0,0.0,0.0,0.0,0.0,0.0,-3.9043,0.0,-3.9613,0.0,0.0,0.0,0.0,0.0,-4.0096,-4.0096,-4.0096,-4.0096,-4.0096,-4.0096,-4.0096,-4.0096,-4.0096,-4.0612,-4.1001,-4.1204,-4.2243,-4.2885,-4.3115,-4.3673,-4.409,-4.4293,-4.4763,-4.5303,-4.59,-4.6454,-4.6994,-4.749,-4.749,-4.7572,-4.7717,-4.7717,-4.7804,-4.7929,-4.7929,-4.7949,-4.8008,-4.8068,-4.8068,-4.8012,-4.811,-4.809,-4.8012,-4.8128,-4.8148,-4.811,-4.8012,-4.807,-4.811,-4.8012,-4.799,-4.797,-4.797,-4.7925,-4.784,-4.784,-4.7759,-4.7717,-4.7717,-4.7717,-4.7717,-4.7717,-4.7717,-4.7717,-4.7717,-4.7717,-4.7717,-4.7717,-4.7717,-4.7717,-4.7717,-4.7717,-4.7717,-4.7717,-4.7717,-4.7636,-4.749,-4.7323,-4.7258,-4.7258,-4.6886,-4.6683,-4.6683,-4.6147,-4.5875,-4.5875,-4.5372,-4.5098,-4.5125,-4.5503,-4.5477,0.0,0.0,0.0,-3.5504,0.0,0.0,0.0,0.0,-3.5752,0.0,0.0,0.0,0.0,0.0,0.0,0.0,0.0,0.0,0.0,0.0,0.0,0.0,0.0,0.0,0.0,-4.0096,-4.0096,-4.0096,-4.0096,-4.0096,-4.0096,-4.0096,-4.0096,-4.0096,-4.013,-4.0485,-4.1204,-4.1255,-4.1627,-4.2337,-4.2354,-4.2743,-4.3453,-4.3991,-4.463,-4.5355,-4.59,-4.643,-4.6931,-4.6931,-4.7236,-4.7717,-4.7717,-4.7699,-4.7699,-4.7699,-4.778,-4.7902,-4.7902,-4.7947,-4.7992,-4.8012,-4.8012,-4.7992,-4.8012,-4.8012,-4.8012,-4.7992,-4.8012,-4.8012,-4.7992,-4.7947,-4.7902,-4.7902,-4.7801,-4.7717,-4.7717,-4.7699,-4.7717,-4.7717,-4.7717,-4.7717,-4.7717,-4.7717,-4.7717,-4.7717,-4.7717,-4.7717,-4.7717,-4.7717,-4.7717,-4.7717,-4.7717,-4.7717,-4.7717,-4.7717,-4.749,-4.6954,-4.643,-4.6165,-4.6165,-4.6123,-4.614,-4.614,-4.5614,-4.5329,-4.5329,-4.4852,-4.4626,-4.4626,-4.4654,-4.4626,0.0,0.0,-3.5504,-3.5504,0.0,0.0,0.0,0.0,0.0,0.0,0.0,0.0,0.0,0.0,0.0,0.0,0.0,0.0,0.0,0.0,-3.9179,-3.947,0.0,0.0,0.0,0.0,-4.0096,-4.0096,-4.0096,-4.0096,-4.0096,-4.0096,-4.0096,-4.0096,-4.0096,-4.0231,-4.046,-4.095,-4.1339,-4.1576,-4.2066,-4.2422,-4.2675,-4.3355,-4.3989,-4.4596,-4.5286,-4.5875,-4.6406,-4.6753,-4.6799,-4.6707,-4.7428,-4.749,-4.7214,-4.7554,-4.7738,-4.7759,-4.7759,-4.7842,-4.7925,-4.7925,-4.7866,-4.7824,-4.7925,-4.7925,-4.7925,-4.7824,-4.7866,-4.7925,-4.7824,-4.7783,-4.7759,-4.7759,-4.7738,-4.7717,-4.7717,-4.7717,-4.7717,-4.7717,-4.7717,-4.7717,-4.7717,-4.7717,-4.7717,-4.7717,-4.7717,-4.7717,-4.7717,-4.7717,-4.7717,-4.7717,-4.7717,-4.7717,-4.7717,-4.7385,-4.6931,-4.6406,-4.6213,-4.6098,-4.6098,-4.5749,-4.5588,-4.5588,-4.5089,-4.4841,-4.4841,-4.4665,-4.4615,-4.4615,-4.4615,-4.4615,-3.5504,-3.5504,0.0,-3.5504,-3.5504,0.0,-3.5504,0.0,-3.5522,0.0,0.0,0.0,0.0,0.0,0.0,0.0,0.0,0.0,0.0,-3.8177,0.0,-3.8984,-3.9601,0.0,0.0,-4.0096,-4.0096,-4.0096,-4.0096,-4.0096,-4.0096,-4.0096,-4.0096,-4.0096,-4.0096,-4.0096,-4.0096,-4.0561,-4.0798,-4.0798,-4.1271,-4.1644,-4.1931,-4.2675,-4.3338,-4.3956,-4.4736,-4.5346,-4.5825,-4.6189,-4.6358,-4.643,-4.6931,-4.7151,-4.7236,-4.7575,-4.7717,-4.7717,-4.7717,-4.7759,-4.784,-4.784,-4.7759,-4.7717,-4.7801,-4.784,-4.7747,-4.7394,-4.7542,-4.7747,-4.7355,-4.75,-4.7717,-4.7717,-4.7717,-4.7717,-4.7717,-4.7717,-4.7717,-4.7717,-4.7717,-4.7636,-4.745,-4.7575,-4.7717,-4.7717,-4.7717,-4.7717,-4.7717,-4.7717,-4.7636,-4.7446,-4.7407,-4.7341,-4.7147,-4.6637,-4.6172,-4.5843,-4.5657,-4.5554,-4.5554,-4.5232,-4.5155,-4.5429,-4.4884,-4.4733,-4.4976,-4.4733,-4.4615,-4.4615,-4.4615,-4.4615]},{"header":{"parameterUnit":"m.s-1","parameterCategory":1,"la1":30.6,"la2":29.2853,"lo1":-89.7004,"lo2":-87.6739,"dy":0.0162,"dx":0.0183,"nx":112,"ny":82,"refTime":"2023-11-05T00:00:00:Z","depth":0,"parameterNumber":3,"parameterNumberName":"V-component_of_WINDS"},"data":[0.0,0.0,0.0,0.0,0.0,0.0,0.0,0.0,0.0,0.0,0.0,0.0,0.0,0.0,0.0,0.0,0.0,0.0,0.0,0.0,0.0,0.0,0.0,0.0,0.0,0.0,0.0,0.0,0.0,0.0,0.0,0.0,0.0,0.0,0.0,0.0,0.0,0.0,0.0,0.0,0.0,0.0,0.0,0.0,0.0,0.0,0.0,0.0,0.0,0.0,0.0,0.0,0.0,0.0,0.0,0.0,0.0,0.0,0.0,0.0,0.0,0.0,0.0,0.0,0.0,0.0,0.0,0.0,0.0,0.0,0.0,0.0,0.0,0.0,0.0,0.0,0.0,0.0,0.0,0.0,0.0,0.0,0.0,0.0,0.0,0.0,0.0,0.0,0.0,0.0,0.6432,0.6476,0.6432,0.6384,0.6384,0.6187,0.6034,0.5993,0.0,0.0,0.0,0.0,0.0,0.0,0.0,0.0,0.0,0.0,0.0,0.0,0.0,0.0,0.0,0.0,0.0,0.0,0.0,0.0,0.0,0.0,0.0,0.0,0.0,0.0,0.0,0.0,0.0,0.0,0.0,0.0,0.0,0.0,0.0,0.0,0.0,0.0,0.0,0.0,0.0,0.0,0.0,0.0,0.0,0.0,0.0,0.0,0.0,0.0,0.0,0.0,0.0,0.0,0.0,0.0,0.0,0.0,0.0,0.0,0.0,0.0,0.0,0.0,0.0,0.0,0.0,0.0,0.0,0.0,0.0,0.0,0.0,0.0,0.0,0.0,0.0,0.0,0.0,0.0,0.0,0.0,0.0,0.0,0.0,0.0,0.0,0.0,0.0,0.0,0.0,0.0,0.0,0.0,0.0,0.0,0.0,0.0,0.0,0.0,0.0,0.0,0.0,0.0,0.6476,0.6704,0.652,0.6384,0.6384,0.6318,0.6162,0.5993,0.0,0.0,0.0,0.0,0.0,0.0,0.0,0.0,0.0,0.0,0.0,0.0,0.0,0.0,0.0,0.0,0.0,0.0,0.0,0.0,0.0,0.0,0.0,0.0,0.0,0.0,0.0,0.0,0.0,0.0,0.0,0.0,0.0,0.0,0.0,0.0,0.0,0.0,0.0,0.0,0.0,0.0,0.0,0.0,0.0,0.0,0.0,0.0,0.0,0.0,0.0,0.0,0.0,0.0,0.0,0.0,0.0,0.0,0.0,0.0,0.0,0.0,0.0,0.0,0.0,0.0,0.0,0.0,0.0,0.0,0.0,0.0,0.0,0.0,0.0,0.0,0.0,0.0,0.0,0.0,0.0,0.0,0.0,0.0,0.0,0.0,0.0,0.0,0.0,0.0,0.0,0.0,0.0,0.0,0.0,0.0,0.0,0.0,0.0,0.0,0.0,0.0,0.0,0.6786,0.683,0.6966,0.6833,0.6786,0.6786,0.6616,0.6494,0.6367,0.6142,0.0,0.0,0.0,0.0,0.0,0.0,0.0,0.0,0.0,0.0,0.0,0.0,0.0,0.0,0.0,0.0,0.0,0.0,0.0,0.0,0.0,0.0,0.0,0.0,0.0,0.0,0.0,0.0,0.0,0.0,0.0,0.0,0.0,0.0,0.0,0.0,0.0,0.0,0.0,0.0,0.0,0.0,0.0,0.0,0.0,0.0,0.0,0.0,0.0,0.0,0.0,0.0,0.0,0.0,0.0,0.0,0.0,0.0,0.0,0.0,0.0,0.0,0.0,0.0,0.0,0.0,0.0,0.0,0.0,0.0,0.0,0.0,0.0,0.0,0.0,0.0,0.0,0.0,0.0,0.0,0.0,0.0,0.0,0.0,0.0,0.0,0.0,0.0,0.0,0.0,0.0,0.0,0.0,0.0,0.0,0.0,0.0,0.0,0.0,0.0,0.0,0.0,0.7051,0.7095,0.7095,0.7095,0.7095,0.7095,0.6868,0.6702,0.6702,0.6463,0.0,0.0,0.0,0.0,0.0,0.0,0.0,0.0,0.0,0.0,0.0,0.0,0.0,0.0,0.0,0.0,0.0,0.0,0.0,0.0,0.0,0.0,0.0,0.0,0.0,0.0,0.0,0.0,0.0,0.0,0.0,0.0,0.0,0.0,0.0,0.0,0.0,0.0,0.0,0.0,0.0,0.0,0.0,0.0,0.0,0.0,0.0,0.0,0.0,0.0,0.0,0.0,0.0,0.0,0.0,0.0,0.0,0.0,0.0,0.0,0.0,0.0,0.0,0.0,0.0,0.0,0.0,0.0,0.0,0.0,0.0,0.0,0.0,0.0,0.0,0.0,0.0,0.0,0.0,0.0,0.0,0.0,0.0,0.0,0.0,0.0,0.0,0.0,0.0,0.0,0.0,0.0,0.0,0.0,0.0,0.0,0.0,0.0,0.0,0.0,0.0,0.0,0.6966,0.7095,0.7095,0.7095,0.7095,0.7095,0.6868,0.6702,0.6702,0.6463,0.0,0.0,0.0,0.0,0.0,0.0,0.0,0.0,0.0,0.0,0.0,0.0,0.0,0.0,0.0,0.0,0.0,0.0,0.0,0.0,0.0,0.0,0.0,0.0,0.0,0.0,0.0,0.0,0.0,0.0,0.0,0.0,0.0,0.0,0.0,0.0,0.0,0.0,0.0,0.0,0.0,0.0,0.0,0.0,0.0,0.0,0.0,0.0,0.0,0.0,0.0,0.0,0.0,0.0,0.0,0.0,0.0,0.0,0.0,0.0,0.0,0.0,0.0,0.0,0.0,0.0,0.0,0.0,0.0,0.0,0.0,0.0,0.0,0.0,0.0,0.0,0.0,0.0,0.0,0.0,0.0,0.0,0.0,0.0,0.0,0.0,0.0,0.0,0.0,0.0,0.0,0.0,0.0,0.0,0.0,0.0,0.0,0.0,0.0,0.0,0.0,0.0,0.7054,0.7095,0.7095,0.7095,0.7095,0.7095,0.6868,0.6702,0.6702,0.0,0.0,0.0,0.0,0.0,0.0,0.0,0.0,0.0,0.0,0.0,0.0,0.0,0.0,0.0,0.0,0.0,0.0,0.0,0.0,0.0,0.0,0.0,0.0,0.0,0.0,0.0,0.0,0.0,0.0,0.0,0.0,0.0,0.0,0.0,0.0,0.0,0.0,0.0,0.0,0.0,0.0,0.0,0.0,0.0,0.0,0.0,0.0,0.0,0.0,0.0,0.0,0.0,0.0,0.0,0.0,0.0,0.0,0.0,0.0,0.0,0.0,0.0,0.0,0.0,0.0,0.0,0.0,0.0,0.0,0.0,0.0,0.0,0.0,0.0,0.0,0.0,0.0,0.0,0.0,0.0,0.0,0.0,0.0,0.0,0.0,0.0,0.0,0.0,0.0,0.0,0.0,0.0,0.0,0.0,0.0,0.0,0.0,0.0,0.0,0.0,0.0,0.7095,0.7095,0.7095,0.7095,0.7095,0.7095,0.7095,0.6868,0.6702,0.6702,0.0,0.0,0.0,0.0,0.0,0.0,0.0,0.0,0.0,0.0,0.0,0.0,0.0,0.0,0.0,0.0,0.0,0.0,0.0,0.0,0.0,0.0,0.0,0.0,0.0,0.0,0.0,0.0,0.0,0.0,0.0,0.0,0.0,0.0,0.0,0.0,0.0,0.0,0.0,0.0,0.0,0.0,0.0,0.0,0.0,0.0,0.0,0.0,0.0,0.0,0.0,0.0,0.0,0.0,0.0,0.0,0.0,0.0,0.0,0.0,0.0,0.0,0.0,0.0,0.0,0.0,0.0,0.0,0.0,0.0,0.0,0.0,0.0,0.0,0.0,0.0,0.0,0.0,0.0,0.0,0.0,0.0,0.0,0.0,0.0,0.0,0.0,0.0,0.0,0.0,0.0,0.0,0.0,0.0,0.0,0.0,0.0,0.0,0.0,0.0,0.0,0.0,0.7095,0.7095,0.7095,0.7095,0.7095,0.7095,0.7095,0.6868,0.6702,0.0,0.0,0.0,0.0,0.0,0.0,0.0,0.0,0.0,0.0,0.0,0.0,0.0,0.0,0.0,0.0,0.0,0.0,0.0,0.0,0.0,0.0,0.0,0.0,0.0,0.0,0.0,0.0,0.0,0.0,0.0,0.0,0.0,0.0,0.0,0.0,0.0,0.0,0.0,0.0,0.0,0.0,0.0,0.0,0.0,0.0,0.0,0.0,0.0,0.0,0.0,0.0,0.0,0.0,0.0,0.0,0.0,0.0,0.0,0.0,0.0,0.0,0.0,0.0,0.0,0.0,0.0,0.0,0.0,0.0,0.0,0.0,0.0,0.0,0.0,0.0,0.0,0.0,0.0,0.0,0.0,0.0,0.0,0.0,0.0,0.0,0.0,0.0,0.0,0.0,0.0,0.0,0.0,0.0,0.0,0.0,0.0,0.0,0.0,0.0,0.0,0.0,0.0,0.7095,0.7095,0.7095,0.7095,0.7095,0.7095,0.7095,0.6868,0.6702,0.6702,0.0,0.0,0.0,0.0,0.0,0.0,0.0,0.0,0.0,0.0,0.0,0.0,0.0,0.0,0.0,0.0,0.0,0.0,0.0,0.0,0.0,0.0,0.0,0.0,0.0,0.0,0.0,0.0,0.0,0.0,0.0,0.0,0.0,0.0,0.0,0.0,0.0,0.0,0.0,0.0,0.0,0.0,0.0,0.0,0.0,0.0,0.0,0.0,0.0,0.0,0.0,0.0,0.0,0.0,0.0,0.0,0.0,0.0,0.0,0.0,0.0,0.0,0.0,0.0,0.0,0.0,0.0,0.0,0.0,0.0,0.0,0.0,0.0,0.0,0.0,0.0,0.0,0.0,0.0,0.0,0.0,0.0,0.0,0.0,0.0,0.0,0.0,0.0,0.0,0.0,0.0,0.0,0.0,0.0,0.0,0.0,0.0,0.0,0.0,0.0,0.0,0.0,0.7095,0.7095,0.7095,0.7095,0.7095,0.7095,0.7095,0.6868,0.6702,0.6702,0.0,0.0,0.0,0.0,0.0,0.0,0.0,0.0,0.0,0.0,0.0,0.0,0.0,0.0,0.0,0.0,0.0,0.0,0.0,0.0,0.0,0.0,0.0,0.0,0.0,0.0,0.0,0.0,0.0,0.0,0.0,0.0,0.0,0.0,0.0,0.0,0.0,0.0,0.0,0.0,0.0,0.0,0.0,0.0,0.0,0.0,0.0,0.0,0.0,0.0,0.0,0.0,0.0,0.0,0.0,0.0,0.0,0.0,0.0,0.0,0.0,0.0,0.0,0.0,0.0,0.0,0.0,0.0,0.0,0.0,0.0,0.0,0.0,0.0,0.0,0.0,0.0,0.0,0.0,0.0,0.0,0.0,0.0,0.0,0.0,0.0,0.0,0.0,0.0,0.0,0.0,0.0,0.0,0.0,0.0,0.0,0.0,0.0,0.0,0.0,0.0,0.0,0.7095,0.7095,0.7095,0.7095,0.7095,0.7095,0.7095,0.6868,0.6702,0.6702,0.0,0.0,0.0,0.0,0.0,0.0,0.0,0.0,0.0,0.0,0.0,0.0,0.0,0.0,0.0,0.0,0.0,0.0,0.0,0.0,0.0,0.0,0.0,0.0,0.0,0.0,0.0,0.0,0.0,0.0,0.0,0.0,0.0,0.0,0.0,0.0,0.0,0.0,0.0,0.0,0.0,0.0,0.0,0.0,0.0,0.0,0.0,0.0,0.0,0.0,0.0,0.0,0.0,0.0,0.0,0.0,0.0,0.0,0.0,0.0,0.8163,0.7991,0.0,0.0,0.0,0.0,0.0,0.0,0.0,0.0,0.0,0.0,0.0,0.0,0.0,0.0,0.0,0.0,0.0,0.0,0.0,0.0,0.0,0.0,0.0,0.0,0.0,0.0,0.0,0.0,0.0,0.0,0.0,0.0,0.0,0.0,0.0,0.0,0.0,0.0,0.0,0.0,0.7095,0.7095,0.7095,0.7095,0.7095,0.7095,0.7095,0.6868,0.6702,0.6702,0.6463,0.0,0.0,0.0,0.0,0.0,0.0,0.0,0.0,0.0,0.0,0.0,0.0,0.0,0.0,0.0,0.0,0.0,0.0,0.0,0.0,0.0,0.0,0.0,0.0,0.0,0.0,0.0,0.0,0.0,0.0,0.0,0.0,0.0,0.0,0.0,0.0,0.0,0.0,0.0,0.0,0.0,0.0,0.0,0.0,0.0,0.0,0.0,0.0,0.0,0.0,0.0,0.0,0.0,0.0,0.0,0.0,0.0,0.0,0.0,0.8304,0.8077,0.0,0.0,0.0,0.0,0.0,0.0,0.0,0.0,0.0,0.0,0.0,0.0,0.0,0.0,0.0,0.0,0.0,0.0,0.0,0.0,0.0,0.0,0.0,0.0,0.0,0.0,0.0,0.0,0.0,0.0,0.0,0.0,0.0,0.0,0.0,0.0,0.0,0.0,0.0,0.0,0.7095,0.7095,0.7095,0.7095,0.7095,0.7095,0.7095,0.6868,0.6702,0.6702,0.6463,0.0,0.0,0.0,0.0,0.0,0.0,0.0,0.0,0.0,0.0,0.0,0.0,0.0,0.0,0.0,0.0,0.0,0.0,0.0,0.0,0.0,0.0,0.0,0.0,0.0,0.0,0.0,0.0,0.0,0.0,0.0,0.0,0.0,0.0,0.0,0.0,0.0,0.0,0.0,0.0,0.0,0.0,0.0,0.0,0.0,0.0,0.0,0.0,0.0,0.0,0.0,0.0,0.0,0.8924,0.8924,0.8874,0.8874,0.8977,0.9084,0.8435,0.8137,0.8127,0.8,0.0,0.0,0.0,0.0,0.0,0.0,0.0,0.0,0.0,0.0,0.0,0.0,0.0,0.0,0.0,0.0,0.0,0.0,0.0,0.0,0.0,0.0,0.7095,0.7095,0.7095,0.7095,0.7095,0.0,0.0,0.0,0.0,0.0,0.0,0.0,0.0,0.0,0.0,0.0,0.7095,0.7095,0.7095,0.7095,0.7095,0.7095,0.7095,0.6895,0.6729,0.6702,0.6487,0.6327,0.0,0.0,0.0,0.0,0.0,0.0,0.0,0.0,0.0,0.0,0.0,0.0,0.0,0.0,0.0,0.0,0.0,0.0,0.0,0.0,0.0,0.0,0.0,0.0,0.0,0.0,0.0,0.0,0.0,0.0,0.0,0.0,1.3258,1.2926,0.0,0.0,0.0,0.0,0.0,0.0,0.0,0.0,0.0,0.0,0.0,0.0,0.0,0.9579,0.9529,0.9529,0.9529,0.9476,0.9476,0.9377,0.9133,0.9133,0.9031,0.8825,0.8726,0.0,0.8676,0.8654,0.0,0.0,0.0,0.0,0.0,0.0,0.0,0.0,0.0,0.0,0.0,0.0,0.0,0.0,0.0,0.0,0.0,0.0,0.0,0.0,0.0,0.0,0.7095,0.7095,0.7095,0.7095,0.7095,0.7095,0.7095,0.7095,0.7095,0.7095,0.0,0.0,0.0,0.0,0.0,0.0,0.7095,0.7095,0.7095,0.7095,0.7095,0.7095,0.7095,0.695,0.6844,0.6709,0.6539,0.6429,0.6306,0.63,0.0,0.0,0.0,0.0,0.0,0.0,0.0,0.0,0.0,0.0,0.0,0.0,0.0,0.0,0.0,0.0,0.0,0.0,0.0,0.0,0.0,0.0,0.0,0.0,0.0,0.0,0.0,0.0,0.0,1.422,1.2732,1.229,1.0694,0.9579,0.0,0.0,0.0,0.0,0.0,0.0,0.0,0.0,0.0,0.9579,0.9721,0.977,0.977,0.9876,0.9929,0.9929,0.9929,0.9878,0.9776,0.9572,0.9365,0.9168,0.9017,0.8814,0.8577,0.8726,0.8581,0.8233,0.0,0.0,0.0,0.0,0.7845,0.7709,0.7641,0.7567,0.7489,0.7421,0.0,0.0,0.0,0.0,0.0,0.0,0.0,0.7095,0.7095,0.7095,0.7095,0.7095,0.7095,0.7095,0.7095,0.7095,0.7095,0.7095,0.7095,0.7095,0.7095,0.7095,0.0,0.0,0.0,0.7095,0.7095,0.7095,0.7095,0.7095,0.7095,0.7095,0.7095,0.6967,0.6865,0.6712,0.6556,0.645,0.6306,0.63,0.63,0.0,0.0,0.0,0.0,0.0,0.0,0.0,0.0,0.0,0.0,0.0,0.0,0.0,0.0,0.0,0.0,0.0,0.0,0.0,0.0,0.0,0.0,0.0,0.0,0.0,0.0,0.0,0.0,1.374,1.2587,1.1707,1.0502,0.9677,0.0,0.0,0.0,0.0,0.0,0.0,0.9693,0.9738,0.9766,0.9766,0.9888,0.9957,0.9957,1.0147,1.0212,1.0212,1.0212,1.0212,1.0212,0.9951,0.9776,0.965,0.9449,0.9173,0.8847,0.8763,0.8531,0.8287,0.8287,0.8187,0.7988,0.7988,0.7917,0.7865,0.7824,0.7743,0.7648,0.7611,0.76,0.758,0.7465,0.0,0.0,0.0,0.0,0.7213,0.7213,0.7213,0.7213,0.7213,0.7213,0.7213,0.7213,0.7213,0.7189,0.7112,0.7095,0.7095,0.7095,0.7095,0.0,0.7095,0.7095,0.7095,0.7095,0.7095,0.7095,0.7095,0.7095,0.7095,0.7095,0.7001,0.6876,0.677,0.6614,0.6504,0.6361,0.632,0.63,0.63,0.0,0.0,0.0,0.0,0.0,0.0,0.0,0.0,0.0,0.0,0.0,0.0,0.0,0.0,0.0,0.0,0.0,0.0,0.0,0.0,0.0,0.0,0.0,0.0,0.0,0.0,0.0,0.0,0.0,1.1755,1.065,0.0,0.0,0.0,0.0,0.9579,0.9778,0.9872,0.9872,1.009,1.0188,1.0188,1.0196,1.02,1.02,1.0208,1.0212,1.0212,1.0212,1.0212,1.0212,1.016,1.0156,1.0148,1.0148,1.0144,1.0003,0.8909,0.8283,0.8038,0.8038,0.7988,0.7988,0.7988,0.7985,0.7958,0.7862,0.7807,0.7777,0.7645,0.76,0.7597,0.759,0.7584,0.0,0.0,0.7577,0.7577,0.7577,0.7577,0.7577,0.7577,0.7577,0.7577,0.7577,0.7577,0.7489,0.7152,0.7095,0.7095,0.7095,0.0,0.7095,0.7095,0.7095,0.7095,0.7095,0.7095,0.7095,0.7095,0.7095,0.7095,0.7095,0.7088,0.7024,0.6883,0.6773,0.662,0.6508,0.6371,0.63,0.63,0.63,0.0,0.0,0.0,0.0,0.0,0.0,0.0,0.0,0.0,0.0,0.0,0.0,0.0,0.0,0.0,0.0,0.0,0.0,0.0,0.0,0.0,0.0,0.0,0.0,0.0,0.0,0.0,0.0,1.1512,1.0509,0.0,0.9795,0.99,0.9973,0.9973,1.0026,1.0114,1.0114,1.018,1.0217,1.0335,1.0444,1.0562,1.0735,1.0739,1.0739,1.0735,1.0562,1.0501,1.0501,1.0343,1.0172,1.0061,0.9902,0.9742,0.9634,0.9201,0.8936,0.8679,0.8375,0.8137,0.7988,0.7988,0.7988,0.7982,0.7928,0.7911,0.7901,0.785,0.7818,0.7736,0.7736,0.7672,0.76,0.76,0.76,0.76,0.76,0.76,0.76,0.76,0.76,0.76,0.76,0.76,0.7567,0.7458,0.7356,0.7258,0.7112,0.7095,0.7095,0.7095,0.7095,0.7095,0.7095,0.7095,0.7095,0.7095,0.7095,0.7095,0.7095,0.7095,0.7038,0.6896,0.6836,0.678,0.6624,0.6515,0.6436,0.6436,0.6461,0.6412,0.0,0.0,0.0,0.0,0.0,0.0,0.0,0.0,0.0,0.0,0.0,0.0,0.0,0.0,0.0,0.0,0.0,0.0,0.0,0.0,0.0,0.0,0.0,0.0,0.0,1.3385,1.2753,1.109,1.047,1.008,1.0028,1.0143,1.0241,1.0249,1.0306,1.042,1.0486,1.0489,1.0574,1.0696,1.0814,1.0932,1.1053,1.1053,1.1053,1.1053,1.0871,1.0785,1.0781,1.0555,1.0354,1.0239,1.0027,0.9912,0.9808,0.9644,0.95,0.9327,0.8802,0.8437,0.8289,0.8191,0.8187,0.818,0.8133,0.8116,0.8109,0.8008,0.7921,0.7889,0.7889,0.7824,0.7746,0.7746,0.7746,0.7746,0.7746,0.7746,0.7746,0.7746,0.7746,0.7746,0.7746,0.7746,0.7733,0.7682,0.755,0.7417,0.7312,0.725,0.725,0.725,0.725,0.725,0.725,0.725,0.723,0.7224,0.7217,0.7152,0.7102,0.7095,0.7055,0.6964,0.6913,0.6839,0.678,0.663,0.6566,0.6515,0.6563,0.6563,0.6486,0.0,0.0,0.0,0.0,0.0,0.0,0.0,0.0,0.0,0.0,0.0,0.0,0.0,0.0,0.0,0.0,0.0,0.0,0.0,0.0,0.0,0.0,0.0,1.3701,1.3684,1.2949,1.0725,1.0587,1.0542,1.0289,1.0245,1.027,1.0444,1.0615,1.0789,1.1024,1.1135,1.1224,1.1232,1.1232,1.1232,1.124,1.1232,1.1232,1.1228,1.1057,1.1033,1.1028,1.0785,1.07,1.07,1.0692,1.0692,1.068,1.0178,1.0,0.9927,0.9222,0.8898,0.8846,0.8584,0.8482,0.8462,0.8378,0.833,0.8252,0.8102,0.8002,0.7995,0.7995,0.7992,0.7988,0.7988,0.7988,0.7988,0.7988,0.7988,0.7988,0.7988,0.7988,0.7988,0.7988,0.7988,0.7944,0.7845,0.7706,0.7611,0.76,0.76,0.76,0.76,0.76,0.0,0.76,0.76,0.7543,0.7439,0.7426,0.7316,0.7115,0.7102,0.7102,0.7095,0.6967,0.6893,0.6893,0.679,0.6634,0.6521,0.6574,0.6725,0.6911,0.0,0.0,0.0,0.0,0.0,0.0,0.0,0.0,0.0,0.0,0.0,0.0,0.0,0.0,0.0,0.0,0.0,0.0,0.0,0.0,0.0,1.6681,1.5573,1.4091,1.3841,1.3909,1.4099,1.2813,1.1985,1.2133,1.1402,1.0952,1.1001,1.1049,1.1098,1.1151,1.1196,1.1285,1.1419,1.1423,1.1488,1.1622,1.1492,1.1423,1.1419,1.124,1.1151,1.1147,1.0972,1.0891,1.0887,1.0749,1.0692,1.0688,1.0366,1.0237,1.0155,0.9489,0.9115,0.8895,0.8793,0.8689,0.8476,0.8438,0.8425,0.8418,0.8374,0.8292,0.8208,0.8208,0.813,0.7988,0.7988,0.7988,0.7988,0.7988,0.7988,0.7988,0.7988,0.7988,0.7988,0.7988,0.7988,0.7978,0.7934,0.7894,0.7851,0.7638,0.76,0.76,0.76,0.76,0.76,0.76,0.76,0.7584,0.7543,0.7536,0.7475,0.7322,0.7309,0.7258,0.7102,0.7058,0.7038,0.7038,0.69,0.6835,0.688,0.6919,0.7002,0.0,0.0,0.0,0.0,0.0,0.0,0.0,0.0,0.0,0.0,0.0,0.0,0.0,0.0,0.0,0.0,0.0,0.0,0.0,0.0,0.0,0.0,1.7098,1.6289,1.5326,1.4625,1.4339,1.4756,1.3098,1.1948,1.2176,1.1612,1.1252,1.1334,1.1338,1.137,1.1451,1.1455,1.1504,1.1614,1.1614,1.1667,1.1776,1.1671,1.1614,1.1614,1.1427,1.1338,1.1334,1.1155,1.1037,1.0964,1.0854,1.0765,1.0692,1.0527,1.0417,1.0237,0.0,0.0,0.0,0.0,0.894,0.8665,0.8601,0.8577,0.8567,0.8503,0.8425,0.836,0.836,0.8296,0.8225,0.8225,0.818,0.8136,0.8136,0.8089,0.7988,0.7988,0.7988,0.7988,0.7988,0.7988,0.7988,0.7988,0.7988,0.0,0.7814,0.7784,0.7784,0.7784,0.7784,0.7784,0.7784,0.7784,0.776,0.7695,0.7689,0.7628,0.7482,0.7453,0.0,0.0,0.0,0.7095,0.7095,0.696,0.0,0.0,0.0,0.7148,0.7336,0.7336,0.0,0.0,0.6771,0.67,0.0,0.0,0.0,0.0,0.0,0.0,0.0,0.0,0.0,0.0,0.0,0.0,0.0,0.0,0.0,0.0,1.7241,1.7331,1.733,1.6095,1.4935,1.4169,1.2511,1.1434,1.1454,1.1343,1.1354,1.152,1.1533,1.1602,1.1768,1.1776,0.0,0.0,0.0,1.1776,1.1776,1.1776,1.1776,1.1776,1.161,1.1533,1.1524,1.1338,1.1171,1.1086,1.1009,1.0903,1.0753,1.0698,1.0532,1.02,0.9614,0.9541,0.9706,0.9434,0.9158,0.8865,0.8781,0.0,0.0,0.8577,0.8523,0.8509,0.8509,0.8496,0.8482,0.8482,0.8391,0.8347,0.8347,0.818,0.8015,0.8015,0.8002,0.7988,0.7988,0.7988,0.7988,0.7988,0.7988,0.7988,0.7988,0.7988,0.7988,0.7988,0.7988,0.7988,0.7988,0.7988,0.7938,0.7851,0.0,0.0,0.7634,0.7499,0.746,0.7443,0.7251,0.7112,0.7095,0.6974,0.6992,0.7204,0.7109,0.7239,0.7639,0.7676,0.7669,0.7645,0.7217,0.7038,0.0,0.0,0.0,0.0,0.0,0.0,0.0,0.0,0.0,0.0,0.0,0.0,0.0,0.0,0.0,1.9186,1.9045,1.9112,1.9878,1.868,1.7397,1.649,1.4247,1.2894,1.3172,1.2316,1.1687,1.1719,1.1723,1.174,1.1776,1.1776,1.1776,1.1776,1.1776,1.1776,1.1776,1.1776,1.1776,1.1776,1.174,0.0,1.1715,1.1533,1.1427,1.139,1.1236,1.1151,1.1061,1.089,1.0437,0.9956,0.9534,0.9434,0.9434,0.9103,0.894,0.8878,0.8851,0.8841,0.8834,0.8804,0.8767,0.8665,0.8665,0.8581,0.0,0.8482,0.8462,0.8442,0.8442,0.8333,0.8225,0.8225,0.813,0.7988,0.7988,0.7988,0.7988,0.7988,0.7988,0.7988,0.7988,0.7988,0.7988,0.7988,0.7988,0.7988,0.7988,0.7988,0.7978,0.7948,0.7944,0.7884,0.7784,0.7743,0.7678,0.7563,0.7411,0.7272,0.7102,0.7068,0.7099,0.7099,0.7294,0.7346,0.7303,0.7512,0.7533,0.736,0.7498,0.7568,0.0,0.0,0.0,0.0,0.0,0.0,0.0,0.0,0.0,0.0,0.0,1.8789,0.0,0.0,1.9382,1.9544,1.9791,2.0055,2.0256,1.9182,1.8231,1.7776,1.5311,1.366,1.3715,1.2543,1.1776,1.1776,1.1776,1.1776,1.1776,1.1776,1.1776,1.1776,1.1776,1.1776,1.1776,1.1776,1.1776,1.1776,1.1776,1.1776,1.1776,1.1683,1.1585,1.1496,1.1403,1.1309,1.1166,1.0936,1.0593,1.0286,0.9841,0.9553,0.9384,0.9384,0.9222,0.9045,0.9045,0.8998,0.8885,0.8885,0.8834,0.8825,0.8825,0.8771,0.871,0.871,0.8655,0.8598,0.8598,0.8486,0.8377,0.8377,0.8262,0.8153,0.8153,0.8096,0.7988,0.7988,0.7988,0.7988,0.7988,0.7988,0.7988,0.7988,0.7988,0.7988,0.7988,0.7988,0.7988,0.7988,0.7988,0.7958,0.7884,0.7855,0.775,0.7607,0.7529,0.7417,0.7261,0.7344,0.7351,0.7282,0.7547,0.7683,0.7682,0.7856,0.79,0.7955,0.8083,0.7989,0.0,0.0,0.0,0.0,0.0,0.0,0.0,0.0,1.8694,1.8694,1.8745,1.8811,1.8869,1.9367,1.9771,1.9579,2.0216,2.0574,2.0118,1.9236,1.8622,1.8739,1.5956,1.383,1.337,1.2427,1.1776,1.1776,1.1776,1.1776,1.1776,1.1776,1.1776,1.1776,1.1776,1.1776,1.1776,1.1776,1.1776,1.1776,1.1776,1.1776,1.1776,1.1776,1.1695,1.1553,1.1553,1.1468,1.1271,1.1097,1.0984,1.0864,1.0339,0.9934,0.9576,0.9689,0.953,0.9255,0.9255,0.9103,0.8981,0.8981,0.8905,0.8885,0.8885,0.8885,0.8885,0.8885,0.8849,0.8754,0.8754,0.8642,0.8526,0.8526,0.8418,0.8354,0.8327,0.8174,0.8025,0.7995,0.7988,0.7988,0.7988,0.7988,0.7988,0.7988,0.7988,0.7988,0.7988,0.7988,0.7988,0.7988,0.7988,0.7988,0.7988,0.7877,0.7794,0.7699,0.7736,0.7667,0.7604,0.7731,0.7762,0.7688,0.7905,0.8083,0.8257,0.8257,0.835,0.8581,0.8581,0.8288,1.5507,1.6513,1.7286,1.7377,1.7625,1.7867,0.0,0.0,1.8357,1.8357,1.8584,1.8877,1.9169,1.9573,1.9938,2.0472,2.0647,2.0767,2.1001,2.0005,1.9441,2.0033,1.6315,1.331,1.2134,1.1893,1.1776,1.1776,1.1776,1.1776,1.1776,1.1776,1.1776,1.1776,1.1776,1.1776,1.1776,1.1776,1.1776,1.1776,1.1776,1.1776,1.1776,1.1776,1.1764,1.1744,1.1744,1.1736,1.1715,1.1715,1.1527,1.1214,1.1158,1.0733,1.0162,0.9652,0.9429,0.9354,0.9354,0.9313,0.9187,0.9187,0.9042,0.8885,0.8885,0.8885,0.8885,0.8885,0.8871,0.8858,0.8858,0.8801,0.8682,0.8682,0.8567,0.8425,0.8347,0.8306,0.8204,0.8015,0.7988,0.7988,0.7988,0.7988,0.7988,0.7988,0.7988,0.7988,0.7988,0.7988,0.7988,0.7988,0.7988,0.7988,0.7988,0.7975,0.8002,0.8145,0.8138,0.8159,0.8275,0.8314,0.8303,0.8288,0.8331,0.8335,0.8377,0.8377,0.8381,0.8428,0.8428,0.8443,1.6325,1.6998,1.7377,1.756,1.7852,1.8101,1.8101,1.835,1.8584,1.8584,1.8847,1.9169,1.9551,1.9974,2.0413,0.0,2.0881,2.0993,2.0945,2.0429,1.9903,1.9267,1.7378,1.5849,1.5208,1.4446,1.4033,1.4033,1.4033,1.3674,1.296,1.29,1.2548,1.1837,1.1776,1.1776,1.1776,1.1776,1.1776,1.1776,1.1776,1.1776,1.1776,1.1776,1.1776,1.1776,1.1776,1.1776,1.1776,1.1776,1.1712,1.1587,1.1398,1.1031,1.0532,1.0098,0.9762,0.9513,0.9513,0.9415,0.9326,0.9238,0.9169,0.9049,0.8908,0.8885,0.8885,0.8885,0.8885,0.8885,0.8885,0.8838,0.879,0.879,0.8726,0.8598,0.854,0.8391,0.8252,0.8187,0.8102,0.7988,0.7988,0.7988,0.7988,0.7988,0.7988,0.7988,0.7988,0.7988,0.7988,0.7988,0.7988,0.7988,0.7988,0.7988,0.8014,0.8101,0.8241,0.8317,0.8306,0.8581,0.8674,0.857,0.8715,0.8812,0.8812,0.8812,0.8812,0.8812,0.8812,0.883,1.7152,1.7465,1.7538,1.7867,1.813,1.8328,1.8416,1.8621,1.8811,1.8906,1.9111,1.9456,1.9813,2.0274,2.0647,2.083,2.1057,2.1146,2.0845,2.0551,2.0019,1.9145,1.8558,1.8208,1.8273,1.6632,1.5575,1.5575,1.5575,1.5213,1.4262,1.4202,1.361,1.2367,1.2307,1.2134,1.1776,1.1776,1.1776,1.1776,1.1776,1.1776,1.1776,1.1776,1.1776,1.1776,1.1776,1.1776,1.1776,1.1776,1.1776,1.1776,1.1522,1.1216,1.091,1.0547,1.0116,0.9666,0.9666,0.9568,0.9418,0.9323,0.9245,0.9183,0.8981,0.8885,0.8885,0.8885,0.8885,0.8885,0.8885,0.8885,0.8885,0.8885,0.8801,0.876,0.872,0.8509,0.8371,0.833,0.8147,0.7988,0.7988,0.7988,0.7988,0.7988,0.7988,0.7988,0.7988,0.7988,0.7988,0.7988,0.7988,0.7988,0.7988,0.7988,0.8088,0.8187,0.8382,0.853,0.8567,0.8949,0.908,0.895,0.9143,0.9242,0.9242,0.9242,0.9242,0.9242,0.9242,0.9242,1.7665,1.7801,1.7882,1.8203,1.8291,1.8386,1.8701,1.8782,1.8877,1.9199,1.9264,1.9469,2.0106,2.0183,2.0402,2.1094,2.1203,2.1211,2.1211,2.0148,1.9673,2.0544,1.9564,1.9223,0.0,1.739,1.5575,1.5575,1.5575,1.5569,1.551,1.5515,1.4976,1.3665,1.3665,1.308,1.1837,1.1776,1.1776,1.1776,1.1776,1.1776,1.1776,1.1776,1.1776,1.1776,1.1776,1.1776,1.1776,1.1776,1.1776,1.1776,1.1776,1.1587,1.1212,1.091,1.0361,0.9815,0.9815,0.9724,0.9578,0.9422,0.933,0.9183,0.8981,0.8885,0.8885,0.8885,0.8885,0.8885,0.8885,0.8885,0.8885,0.8885,0.8878,0.8838,0.8743,0.8587,0.8435,0.8347,0.8147,0.7988,0.7988,0.7988,0.7988,0.7988,0.7988,0.7988,0.7988,0.7988,0.7988,0.7988,0.7988,0.7988,0.7988,0.7988,0.8233,0.8726,0.8775,0.9023,0.9521,0.9571,0.9567,0.9562,0.9562,0.9562,0.9562,0.9562,0.9562,0.9562,0.9562,0.9562,1.7505,1.7831,1.8218,1.8547,1.8628,1.8708,1.9038,1.9111,1.914,1.9302,1.95,1.9667,1.9879,2.0091,2.0321,2.0815,2.0889,2.0962,2.1181,2.0859,2.068,2.0967,2.0493,0.0,0.0,0.0,0.0,1.8402,1.8233,1.776,1.6926,1.6868,1.6279,1.4976,1.4143,1.349,1.3075,1.2191,1.1776,1.1776,1.1776,1.1776,1.1776,1.1776,1.1776,1.1776,1.1776,1.1776,1.1776,1.1776,1.1776,1.1776,1.1776,1.1587,1.1273,1.091,1.0547,1.0122,0.9879,0.9788,0.9727,0.9581,0.9429,0.9276,0.9127,0.9015,0.8885,0.8885,0.8885,0.8885,0.8885,0.8885,0.8885,0.8885,0.8885,0.8868,0.8817,0.8743,0.8587,0.8438,0.8292,0.816,0.8008,0.7988,0.7988,0.7988,0.7988,0.7988,0.7988,0.7988,0.7988,0.7988,0.7988,0.7988,0.7988,0.8187,0.8333,0.8531,0.8878,0.9133,0.9335,0.9529,0.9579,0.9579,0.9579,0.9579,0.9579,0.9579,0.9579,0.9579,0.9579,0.9579,1.7675,1.8031,1.8454,1.8884,1.8964,1.9016,1.9228,1.9279,1.9294,1.9125,1.9412,1.9639,1.9639,1.985,2.0172,2.0494,2.0647,2.0794,2.1006,2.1137,2.1211,2.1211,2.1024,2.0902,0.0,0.0,0.0,1.9815,1.9649,1.912,1.8227,1.8169,1.7578,1.6338,1.5499,1.4614,1.3725,1.29,1.2251,1.1776,1.1776,1.1776,1.1776,1.1776,1.1776,1.1776,1.1776,1.1776,1.1776,1.1776,1.1776,1.1776,1.1776,1.1651,1.1462,1.1091,1.0789,1.0425,0.9943,0.9822,0.9798,0.9656,0.9544,0.9422,0.9272,0.9089,0.9005,0.8898,0.8885,0.8885,0.8885,0.8885,0.8885,0.8885,0.8885,0.8885,0.8885,0.8818,0.8665,0.8513,0.8367,0.8221,0.8015,0.7988,0.7988,0.7988,0.7988,0.7988,0.7988,0.7988,0.7988,0.7988,0.7988,0.8038,0.8137,0.8283,0.8482,0.8684,0.9034,0.9236,0.9335,0.9529,0.9579,0.9579,0.9579,0.9579,0.9579,0.9579,0.9579,0.9579,0.9579,0.9579,1.8124,1.8411,1.8592,1.9147,1.9279,1.9324,1.9257,1.925,1.9162,1.8833,1.9016,1.9228,0.0,0.0,1.982,2.0135,2.0457,2.0684,2.072,2.0991,2.1189,0.0,0.0,0.0,0.0,0.0,0.0,1.9866,0.0,1.9707,1.9424,1.9424,1.8829,1.763,1.7513,1.6332,1.3904,1.3784,1.3075,1.1776,1.1776,1.1776,1.1776,1.1776,1.1776,1.1776,1.1776,1.1776,1.1776,1.1776,1.1776,1.1776,1.1776,1.1776,1.1776,1.1398,1.1091,1.0728,1.0061,0.9822,0.9798,0.9663,0.9615,0.9554,0.9313,0.9217,0.918,0.8981,0.8885,0.8885,0.8885,0.8885,0.8885,0.8885,0.8885,0.8885,0.8885,0.8825,0.8676,0.8523,0.8374,0.8221,0.8015,0.7988,0.7988,0.7988,0.7988,0.7988,0.7988,0.7988,0.7988,0.7988,0.7988,0.8137,0.8382,0.8432,0.8634,0.9183,0.9236,0.9335,0.9579,0.9579,0.9579,0.9579,0.9579,0.9579,0.9579,0.9579,0.9579,0.9579,0.9579,0.9579,1.7971,1.8554,1.9125,1.9257,1.9279,1.9213,1.8964,1.8913,1.8818,1.8496,1.8496,1.8547,0.0,0.0,0.0,1.9469,1.9798,0.0,2.0655,2.0794,0.0,2.1181,0.0,2.1211,2.1211,2.1146,0.0,0.0,2.004,1.9707,1.9424,1.9424,1.9249,1.8946,1.7987,1.7214,1.6568,1.4674,1.3075,1.1776,1.1776,1.1776,1.1776,1.1776,1.1776,1.1776,1.1776,1.1776,1.1776,1.1776,1.1776,1.1776,1.1776,1.1776,1.1776,1.1398,1.1091,1.0728,1.0304,1.0004,0.9815,0.9778,0.9696,0.9574,0.9381,0.9303,0.918,0.8981,0.8885,0.8885,0.8885,0.8885,0.8885,0.8885,0.8885,0.8885,0.8885,0.8854,0.8835,0.8682,0.8445,0.8221,0.8015,0.7988,0.7988,0.7988,0.7988,0.7988,0.7988,0.7988,0.7988,0.7988,0.8187,0.8333,0.8382,0.8783,0.9034,0.9187,0.9381,0.9529,0.9579,0.9579,0.9579,0.9579,0.9579,0.9579,0.9579,0.9579,0.9579,0.9579,0.9579,0.9579,1.7888,1.8459,1.8952,1.9071,1.9118,1.9016,1.8833,1.8679,1.8482,1.8152,1.8203,0.0,1.8116,1.8357,1.8686,0.0,0.0,0.0,2.023,2.0545,2.0794,0.0,2.1123,0.0,2.1211,2.1211,2.1089,0.0,2.0263,1.9873,1.9591,1.9482,1.9424,1.9424,1.8706,1.8052,1.7513,1.4966,1.331,1.2603,1.2074,1.1776,1.1776,1.1776,1.1776,1.1776,1.1776,1.1776,1.1776,1.1776,1.1776,1.1776,1.1776,1.1776,1.1776,1.1587,1.1216,1.0789,1.0607,1.0183,0.9822,0.9822,0.9768,0.9676,0.9527,0.9374,0.9279,0.9072,0.8988,0.8885,0.8885,0.8885,0.8885,0.8885,0.8885,0.8885,0.8885,0.8885,0.8838,0.874,0.8472,0.8241,0.8153,0.8032,0.7988,0.7988,0.7988,0.7988,0.7988,0.7988,0.7988,0.7988,0.8137,0.8333,0.8577,0.8829,0.913,0.9381,0.9529,0.9579,0.9579,0.9579,0.9579,0.9579,0.9579,0.9579,0.9579,0.9579,0.9579,0.9579,0.9579,0.9579,1.7882,1.822,1.8482,1.8757,1.878,1.8731,1.8687,1.8474,1.8145,1.7816,0.0,1.8086,1.7801,1.8021,1.8328,1.8613,0.0,1.9323,1.9705,2.0252,2.0676,2.072,2.1013,2.1211,2.1211,2.1211,2.1089,2.078,2.0493,2.0213,1.9815,1.9591,1.9424,1.9424,1.9424,1.8765,1.7513,1.5322,1.4018,1.3665,1.2603,1.1953,1.1776,1.1776,1.1776,1.1776,1.1776,1.1776,1.1776,1.1776,1.1776,1.1776,1.1776,1.1776,1.1776,1.1776,1.1405,1.0789,1.0789,1.0365,0.9822,0.9822,0.9822,0.9795,0.9652,0.9503,0.9354,0.9279,0.9079,0.8967,0.8967,0.8967,0.8905,0.8888,0.8885,0.8885,0.8885,0.8885,0.8838,0.874,0.8486,0.8344,0.8327,0.8143,0.7988,0.7988,0.7988,0.7988,0.7988,0.7988,0.7988,0.7988,0.8038,0.8237,0.8775,0.8825,0.9076,0.9579,0.9579,0.9579,0.9579,0.9579,0.9579,0.9579,0.9579,0.9579,0.9579,0.9579,0.9579,0.9579,0.9579,0.9579,1.7934,1.822,1.8422,1.8482,1.8464,1.8376,1.811,1.7991,0.0,0.0,1.741,1.7479,1.7421,1.7684,1.7918,1.7969,1.8482,1.8986,1.9368,1.9916,2.0365,0.0,2.1013,2.1211,2.1211,2.1211,0.0,0.0,2.0788,2.0378,1.9815,1.9758,1.9649,1.9424,1.9424,1.8765,1.7513,1.7038,1.5795,1.3725,1.349,1.284,1.1776,1.1776,1.1776,1.1776,1.1776,1.1776,1.1776,1.1776,1.1776,1.1776,1.1776,1.1776,1.1776,1.1776,1.1405,1.0789,1.0789,1.0365,0.9822,0.9822,0.9822,0.9795,0.9652,0.9503,0.9374,0.9351,0.9232,0.9173,0.9173,0.9173,0.9086,0.8967,0.8885,0.8885,0.8885,0.8885,0.8838,0.874,0.8567,0.8408,0.834,0.8143,0.7988,0.7988,0.7988,0.7988,0.7988,0.7988,0.7988,0.7988,0.8187,0.8482,0.8775,0.8981,0.9282,0.9579,0.9579,0.9579,0.9579,0.9579,0.9579,0.9579,0.9579,0.9579,0.9579,0.9579,0.9579,0.9579,0.9579,0.9579,1.7718,1.801,1.8185,1.8175,1.8171,1.8117,1.7885,0.0,0.0,0.0,1.7279,1.7279,1.7279,1.741,0.0,1.7786,1.8218,1.865,1.8979,1.9579,0.0,2.0373,2.0757,2.102,0.0,2.1211,2.1211,2.1211,2.1024,2.068,2.0097,1.9764,1.9533,1.9424,1.9424,1.9127,1.8467,1.7812,1.6568,1.4679,1.4023,1.3015,1.1776,1.1776,1.1776,1.1776,1.1776,1.1776,1.1776,1.1776,1.1776,1.1776,1.1776,1.1776,1.1776,1.1776,1.1405,1.0789,1.0789,1.0365,0.9819,1.0001,0.994,0.9808,0.9741,0.9561,0.9398,0.9479,0.9279,0.9059,0.919,0.9096,0.9025,0.8898,0.8885,0.8885,0.8885,0.8885,0.8861,0.8845,0.8706,0.8554,0.8408,0.8258,0.8133,0.8002,0.7988,0.7988,0.7988,0.7988,0.7988,0.7988,0.8237,0.8528,0.8775,0.9031,0.9331,0.9579,0.9579,0.9579,0.9579,0.9579,0.9579,0.9579,0.9579,0.9579,0.9579,0.9579,0.9579,0.9579,0.9579,0.9579,1.7328,1.7558,1.7712,1.7728,1.7688,1.7696,1.7633,1.7465,0.0,0.0,1.7279,1.7279,1.7279,1.7279,1.7366,0.0,1.7984,1.8313,1.8642,1.925,1.9806,0.0,2.0523,0.0,2.1181,2.1211,0.0,2.1211,2.1146,2.0852,2.0328,1.9764,1.9482,1.9424,1.9424,1.9424,1.9424,1.8409,1.7285,1.5983,1.4971,1.3729,1.2191,1.2191,1.2074,1.1776,1.1776,1.1776,1.1776,1.1776,1.1776,1.1776,1.1776,1.1776,1.1776,1.1776,1.1405,1.091,1.0849,1.0486,1.0061,1.0243,1.0065,0.9822,0.9879,0.9675,0.9412,0.9564,0.9306,0.9011,0.918,0.9069,0.8977,0.8892,0.8885,0.8885,0.8885,0.8885,0.8885,0.8885,0.8815,0.8662,0.8509,0.8364,0.8218,0.8012,0.7988,0.7988,0.7988,0.7988,0.8038,0.8088,0.8283,0.8531,0.8878,0.9084,0.9331,0.9579,0.9579,0.9579,0.9579,0.9579,0.9579,0.9579,0.9579,0.9579,0.9579,0.9579,0.9579,0.9579,0.9579,0.9579,1.678,1.6787,1.6831,1.6804,1.6971,1.7078,1.7092,0.0,0.0,1.7279,1.7279,1.7279,1.7279,1.7279,1.7286,1.7323,0.0,1.7969,1.8299,1.8913,1.955,2.011,0.0,0.0,2.1181,2.1211,2.1211,2.1211,2.0902,2.0608,2.0328,1.9989,1.9642,1.9424,1.9424,1.9424,1.9424,1.9307,1.859,1.7337,1.722,1.5854,1.355,1.355,1.29,1.1776,1.1776,1.1776,1.1776,1.1776,1.1776,1.1776,1.1776,1.1776,1.1776,1.1776,1.1587,1.1212,1.091,1.0789,1.0668,1.0365,1.0065,0.9883,1.0183,0.9853,0.9412,0.9564,0.9378,0.9193,0.9207,0.92,0.91,0.8967,0.8885,0.8885,0.8885,0.8885,0.8885,0.8885,0.8815,0.8662,0.8509,0.8364,0.8218,0.8012,0.7988,0.7988,0.7988,0.7988,0.8088,0.8333,0.8382,0.8581,0.9133,0.9187,0.9331,0.9579,0.9579,0.9579,0.9579,0.9579,0.9579,0.9579,0.9579,0.9579,0.9579,0.9579,0.9579,0.9579,0.9579,0.9579,1.666,1.6707,1.6717,1.6697,1.6758,1.6863,1.6963,0.0,1.7153,1.7286,1.7279,1.7279,1.7279,1.7279,1.7279,0.0,0.0,0.0,1.8255,1.8694,1.922,1.9872,2.0237,0.0,0.0,0.0,2.1211,2.1211,2.1089,2.0795,2.0328,1.9989,1.9707,1.9424,1.9424,1.9424,1.9424,1.9424,1.8765,1.7513,1.7513,1.6155,1.3725,1.3725,1.302,1.1776,1.1776,1.1776,0.0,1.1776,1.1776,1.1776,1.1776,1.1776,1.1776,1.1776,1.1587,1.1273,1.1152,1.097,1.0789,1.091,1.0668,1.0407,1.0437,1.0075,0.9682,0.9745,0.937,0.9045,0.9187,0.9089,0.9011,0.8898,0.8885,0.8885,0.8885,0.8885,0.8885,0.8885,0.8834,0.8801,0.8645,0.8496,0.8347,0.8201,0.8099,0.7988,0.7988,0.7988,0.8187,0.8577,0.8627,0.8779,0.9183,0.9331,0.948,0.9579,0.9579,0.9579,0.9579,0.9579,0.9579,0.9579,0.9579,0.9579,0.9579,0.9579,0.9579,0.9579,0.9579,0.9579,1.6393,1.6446,1.6449,1.6442,1.6491,1.658,0.0,0.0,1.7019,1.72,1.7239,1.7279,1.7279,1.7279,1.7279,0.0,0.0,1.7816,1.824,1.8503,1.8921,0.0,0.0,2.0307,2.0691,2.102,2.1211,2.1211,2.1211,2.0917,2.0328,2.0104,1.9758,1.9424,1.9424,1.9424,1.9424,1.9424,1.8946,1.8046,1.8046,1.6921,1.4793,1.4441,1.355,1.2367,1.1953,1.1776,0.0,1.1776,1.1776,1.1776,1.1776,1.1776,1.1776,1.1776,1.1651,1.1458,1.1333,1.1212,1.1095,1.1273,1.1181,1.0988,1.0764,1.0339,0.9834,0.9669,0.9299,0.8905,0.9062,0.9015,0.8885,0.8885,0.8885,0.8885,0.8885,0.8885,0.8885,0.8885,0.8885,0.8834,0.8737,0.8621,0.8499,0.8353,0.8204,0.8106,0.8106,0.8115,0.8283,0.8775,0.8874,0.9027,0.9282,0.948,0.9579,0.9579,0.9579,0.9579,0.9579,0.9579,0.9579,0.9579,0.9579,0.9579,0.9579,0.9579,0.9579,0.9579,0.9579,0.9579,1.5791,1.5791,1.5791,1.5832,1.6028,1.6224,0.0,1.6602,1.6979,1.6979,1.7153,1.7279,1.7279,1.7279,1.7279,1.7279,0.0,0.0,1.8211,1.8306,1.8664,0.0,0.0,2.0307,2.0691,2.102,2.1211,2.1211,2.1211,0.0,2.0328,2.027,2.0046,1.9424,1.9424,1.9424,1.9424,1.9424,1.9366,1.9366,1.9366,1.8706,1.739,1.6161,1.4917,1.3605,1.2371,1.1776,0.0,1.1776,1.1776,1.1776,1.1776,1.1776,1.1776,1.1776,1.1776,1.1776,1.1398,1.1522,1.1712,1.1398,1.1403,1.1468,1.1223,1.0593,0.9809,0.9312,0.9052,0.8885,0.8885,0.8885,0.8885,0.8885,0.8885,0.8885,0.8885,0.8885,0.8885,0.8885,0.8885,0.8834,0.8737,0.871,0.8655,0.8503,0.836,0.832,0.832,0.8334,0.8482,0.8775,0.9031,0.9282,0.9579,0.9579,0.9579,0.9579,0.9579,0.9579,0.9579,0.9579,0.9579,0.9579,0.9579,0.9579,0.9579,0.9579,0.9579,0.9579,0.9579,0.9579,1.5784,1.5784,1.5784,1.5784,1.5879,1.5981,1.6177,1.6319,1.6555,1.6932,1.7073,1.716,1.7286,1.7279,1.7279,1.7279,1.7279,0.0,0.0,0.0,0.0,1.9397,1.9908,2.0394,0.0,0.0,2.1211,2.1211,2.1211,2.1031,2.0608,2.0385,2.0046,1.9424,1.9424,1.9424,1.9424,1.9424,1.9424,1.9424,1.9424,1.8706,1.7513,1.7103,1.5741,1.3665,1.325,1.2603,1.1776,1.1776,1.1776,1.1776,1.1776,1.1776,1.1776,1.1776,1.1776,1.1776,1.1651,1.1712,1.1756,1.1507,1.1486,1.1385,1.0857,1.0421,0.9873,0.9213,0.8974,0.8885,0.8885,0.8885,0.8885,0.8885,0.8885,0.8885,0.8885,0.8885,0.8885,0.8885,0.8885,0.8868,0.8821,0.8777,0.8696,0.8645,0.8667,0.8723,0.8723,0.8943,0.9127,0.926,0.9349,0.9457,0.9587,0.9579,0.9579,0.9579,0.9579,0.9579,0.9579,0.9579,0.9579,0.9579,0.9579,0.9579,0.9579,0.9579,0.9579,0.9628,1.0355,1.0306,0.0,1.5784,1.5784,1.5784,1.5784,0.0,1.6028,1.613,1.6272,1.665,1.6838,1.7019,1.7153,1.7239,1.7279,1.7279,1.7279,1.7505,0.0,0.0,0.0,1.9367,0.0,0.0,0.0,2.1137,2.1211,2.1211,2.1211,2.1024,2.0723,2.0443,2.0046,1.9591,1.9424,1.9424,1.9424,1.9424,1.9424,1.9424,1.9424,1.9004,1.8169,1.7689,1.6621,1.5084,1.4138,1.3255,0.0,1.2014,1.1776,1.1776,1.1776,1.1776,1.1776,1.1776,1.1776,1.1776,1.1776,1.1776,1.1748,1.1561,1.1407,1.1187,1.0449,1.0021,0.972,0.9075,0.8885,0.8885,0.8885,0.8885,0.8885,0.8885,0.8885,0.8885,0.8885,0.8885,0.8937,0.9047,0.9103,0.9103,0.9213,0.9184,0.9121,0.9121,0.9144,0.9146,0.9146,0.9418,0.9551,0.9595,0.9686,0.9792,0.9839,0.9705,0.9579,0.9579,0.9579,0.9579,0.9579,0.9579,0.9579,0.9579,0.9579,0.9579,0.9579,0.9579,0.9579,0.9628,1.0306,1.0256,0.0,1.5784,0.0,0.0,0.0,0.0,1.5784,1.5981,0.0,1.6224,1.6602,1.6932,1.6979,1.7106,1.7286,1.7286,1.7286,1.7512,0.0,1.8343,0.0,0.0,2.004,0.0,2.0691,2.102,2.1211,2.1211,2.1211,2.1089,2.078,2.05,2.0155,1.9873,1.9591,1.9424,1.9424,1.9424,1.9424,1.9424,1.9424,1.9424,1.9366,1.8169,1.7572,1.7331,1.4906,1.3784,1.3605,1.2307,1.1776,1.1776,1.1776,1.1776,1.1776,1.1776,1.1776,1.1776,1.1776,1.1768,1.1723,1.1524,1.1228,1.0863,1.0086,0.9651,0.9379,0.9047,0.894,0.8885,0.8937,0.894,0.8885,0.8937,0.894,0.8885,0.8937,0.894,0.8992,0.9323,0.9379,0.9489,0.9761,0.9816,0.9816,0.9816,0.9736,0.9639,0.9639,0.9773,0.9882,0.9818,1.008,1.0228,1.0216,0.9847,0.9599,0.9599,0.9583,0.9579,0.9579,0.9579,0.9579,0.9579,0.9579,0.9579,0.9579,0.9579,0.9579,0.9628,0.9772,0.9772,1.5784,0.0,1.5784,1.5784,1.5784,1.5784,0.0,1.5832,1.5927,1.6177,1.6319,1.6461,1.6643,1.673,1.6817,1.7019,1.6918,1.7132,1.8162,1.873,0.0,1.9757,2.004,2.0307,2.0691,2.102,2.1211,2.1211,2.1211,2.1153,2.1089,2.0788,2.0493,2.0213,2.0104,1.988,1.9424,1.9424,1.9424,1.9424,1.9424,1.9424,1.9366,1.9068,1.8409,1.7396,1.5865,1.4619,1.3605,1.2307,1.1776,1.1776,1.1776,1.1776,1.1776,1.1776,1.1776,1.1776,1.1776,1.1683,1.1512,1.1196,1.094,1.0694,1.0323,0.9981,0.9651,0.9379,0.9103,0.894,0.9213,0.9103,0.894,0.9213,0.9103,0.8995,0.9213,0.9103,0.8992,0.9323,0.9379,0.9489,0.9761,0.9816,0.9816,0.9816,1.0002,1.014,1.014,1.0323,1.0409,1.0277,1.0318,1.0314,1.0228,0.9953,0.9823,0.9823,0.9701,0.9579,0.9579,0.9579,0.9579,0.9579,0.9579,0.9579,0.9579,0.9579,0.9579,0.9628,1.1228,1.1565,1.5784,1.5784,1.5784,1.5784,1.5784,1.5784,1.5784,0.0,1.5832,1.5981,1.6123,1.6224,1.6407,1.6541,1.6636,1.6784,1.6802,1.7153,0.0,0.0,1.9396,1.9779,2.004,2.0307,0.0,2.102,2.1211,2.1211,2.1211,2.1211,2.1211,2.0902,2.0601,2.0493,2.0385,1.9989,1.9424,1.954,1.954,1.9424,1.9424,1.9424,1.9424,1.9424,1.901,1.8292,1.7044,1.5741,1.4441,1.3195,1.2307,1.1776,1.1776,1.1776,1.1776,1.1776,1.1776,1.1764,1.1679,1.1476,1.1224,1.1086,1.0842,1.0637,1.0366,1.0147,0.9981,0.9655,0.9434,0.9379,0.9541,0.943,0.9379,0.9541,0.943,0.9379,0.9541,0.943,0.9434,0.9761,0.9816,0.9871,1.0143,1.0198,1.0198,1.0198,1.0366,1.0472,1.0472,1.0637,1.0655,1.0562,1.0554,1.0513,1.0416,1.0241,1.0099,1.0018,0.9925,0.9835,0.975,0.9746,0.9709,0.9579,0.9579,0.9579,0.9579,0.9579,0.9579,0.9628,1.0743,1.0984,1.5825,1.6015,1.6197,1.5879,1.5784,1.5784,1.5784,0.0,0.0,0.0,0.0,0.0,0.0,1.6305,0.0,0.0,0.0,0.0,1.8209,1.8868,1.9434,1.9713,2.0018,0.0,2.0625,2.0991,2.1211,2.1211,2.1211,2.1211,2.1211,2.0902,2.078,2.0716,2.0558,2.0104,1.9482,1.9707,1.9649,1.9424,1.9424,1.9424,1.9424,1.9424,1.9424,1.9307,1.8046,0.0,1.5806,1.45,1.3375,1.2371,1.2195,1.2074,1.207,1.1864,1.1736,1.1703,1.1492,1.122,1.0964,1.0936,1.0822,1.0637,1.0421,1.0363,1.0312,1.0033,0.9871,0.9816,0.9871,0.9816,0.9816,0.9871,0.9816,0.9816,0.9871,0.9816,0.9926,1.0257,1.0312,1.0366,1.0637,1.0692,1.0692,1.0692,1.0692,1.0692,1.0692,1.0692,1.0692,1.0692,1.0692,1.0692,1.0692,1.0558,1.0408,1.0306,1.0245,1.0143,0.9933,0.9929,0.986,0.9709,0.9709,0.9709,0.9709,0.9709,0.9693,0.9665,0.9962,1.0094,1.6015,1.703,1.7909,1.6251,1.5784,1.5784,1.5784,0.0,0.0,0.0,0.0,0.0,0.0,1.5879,1.6021,0.0,0.0,1.7818,0.0,0.0,1.9294,1.9345,0.0,2.0205,2.0249,2.0859,2.1211,2.1211,2.1211,2.1211,2.1211,2.1146,2.0967,2.0716,2.0967,2.063,1.9758,1.9758,1.9649,1.9424,1.9424,1.9424,1.9424,1.9424,1.9424,1.9307,0.0,1.7396,1.7097,1.5806,1.5213,1.4922,1.3849,1.343,1.3232,1.201,1.1541,1.1496,1.1163,1.1017,1.0944,1.0785,1.0716,1.0692,1.0637,1.0637,1.0637,1.0582,1.0198,0.9871,1.0147,1.0036,0.9871,1.0147,1.0036,0.9871,1.0147,0.9981,0.9926,1.0257,1.0312,1.0366,1.0637,1.0692,1.0692,1.0692,1.0692,1.0692,1.0692,1.0692,1.0692,1.0692,1.0692,1.0692,1.0692,1.0668,1.0639,1.0611,1.038,1.02,1.0175,1.0171,1.0159,1.0131,1.0131,1.0131,1.0131,1.0131,0.9998,0.9894,1.1644,1.2389,1.6857,1.7684,1.8326,1.6292,1.6204,1.6629,0.0,0.0,0.0,0.0,0.0,0.0,0.0,0.0,1.5932,1.6399,0.0,1.7826,1.817,1.8717,1.9188,0.0,0.0,2.0249,2.0431,2.0933,2.1137,2.0955,2.1108,2.113,2.0955,2.1115,2.1146,2.0967,2.1146,2.0859,2.0104,2.004,1.9815,1.9424,1.9424,1.9424,1.9424,1.9424,1.9424,1.9366,0.0,1.8169,1.7449,1.6868,1.6082,1.5264,1.4672,1.401,1.314,1.1841,1.1289,1.1191,1.1025,1.0903,1.0806,1.072,1.0692,1.0692,1.0692,1.0692,1.0692,1.0692,1.0527,1.0308,1.0472,1.0417,1.0308,1.0472,1.0417,1.0308,1.0472,1.0417,1.0308,1.0472,1.0531,1.0586,1.0692,1.0692,1.0692,1.0692,1.0692,1.0692,1.0692,1.0692,1.0692,1.0692,1.0692,1.0692,1.0692,1.0692,1.0692,1.0692,1.0452,1.031,1.031,1.0213,1.0212,1.0212,1.0212,1.0521,1.1135,1.1135,1.1395,1.1907,1.2871,1.3267,1.7924,1.8565,1.9063,1.7304,0.0,0.0,0.0,0.0,0.0,0.0,0.0,0.0,0.0,1.6028,0.0,1.6714,1.7262,1.7784,1.823,1.8653,1.9067,1.9517,1.9876,2.0223,2.0472,2.0794,2.0874,2.057,2.0837,2.0874,2.0625,2.0845,2.1013,2.1094,2.1094,2.0837,2.0385,2.0328,1.9989,1.9424,1.9424,1.9424,1.9424,1.9424,1.9424,1.9424,1.9292,1.8725,1.783,1.7768,1.7038,1.5886,1.5593,1.4412,1.28,1.1898,1.1276,1.0907,1.0907,1.081,1.0692,1.0692,1.0692,1.0692,1.0692,1.0692,1.0692,1.0692,1.0692,1.0692,1.0692,1.0692,1.0692,1.0692,1.0692,1.0692,1.0692,1.0692,1.0692,1.0692,1.0692,1.0692,1.0692,1.0692,1.0692,1.0692,1.0692,1.0692,1.0692,1.0692,1.0692,1.0692,1.0692,1.0692,1.0692,1.0692,1.0692,1.0692,1.0566,1.0493,1.0493,1.0359,1.0339,1.0339,1.0339,1.0857,1.1997,1.1997,1.2593,1.3672,1.3929,1.3998,1.8972,2.0076,2.123,2.0212,1.9338,0.0,1.7512,1.7971,0.0,1.8557,0.0,0.0,0.0,1.6676,1.6482,1.7072,1.7404,1.7681,1.7975,0.0,1.8936,1.8957,1.9495,1.9859,1.9881,2.012,2.0241,2.0219,2.0241,2.0241,2.0219,2.0241,2.0387,2.075,2.0757,2.0727,2.0658,2.0443,1.9989,1.9424,1.9424,1.9424,1.9424,1.9424,1.9424,1.9352,1.9078,1.8895,1.8761,1.8552,1.837,1.8122,1.6924,1.4959,1.2706,1.2646,1.1804,1.0712,1.0712,1.0704,1.0692,1.0692,1.0692,1.0692,1.0692,1.0692,1.0692,1.0692,1.0692,1.0692,1.0692,1.0692,1.0692,1.0692,1.0692,1.0692,1.0692,1.0692,1.0692,1.0692,1.0692,1.0692,1.0692,1.0692,1.0692,1.0692,1.0692,1.0692,1.0692,1.0692,1.0692,1.0692,1.0692,1.0692,1.0692,1.0692,1.0692,1.0692,1.068,1.0672,1.0672,1.066,1.0655,1.0655,1.0655,1.1248,1.237,1.237,1.2914,1.3881,1.4862,1.5203,1.9977,2.0718,2.132,1.9749,1.9985,0.0,0.0,1.8972,1.8788,1.8788,1.801,0.0,0.0,0.0,1.6938,1.7166,1.7412,1.7671,1.795,1.8181,1.8496,1.8869,1.9254,1.9548,1.9762,2.0047,2.015,1.9952,2.0128,2.015,1.9952,2.0128,2.0241,2.0413,2.0618,2.061,2.0451,2.0351,2.0007,1.9377,1.9394,1.9272,1.9092,1.9092,1.8991,1.8818,1.8704,1.8651,1.8644,1.8537,1.8384,1.8026,1.6677,1.5555,1.4494,1.3028,1.2215,1.1664,1.0962,1.0692,1.0692,1.0692,1.0692,1.0692,1.0692,1.0692,1.0692,1.0692,1.0692,1.0692,1.0692,1.0692,1.0692,1.0692,1.0692,1.0692,1.0692,1.0692,1.0692,1.0692,1.0692,1.0692,1.0692,1.0692,1.0692,1.0692,1.0692,1.0692,1.0692,1.0692,1.0692,1.0692,1.0692,1.0692,1.0692,1.0692,1.1017,1.1714,1.1067,1.0692,1.0692,1.1391,1.1769,1.1769,1.2467,1.3383,1.4567,1.4567,1.5163,1.6197,1.6617,1.6716,2.0907,2.1221,2.1365,2.0031,0.0,0.0,2.0898,2.0212,1.9745,1.99,1.9236,1.8286,1.7267,0.0,0.0,0.0,1.7963,1.8153,1.837,1.8167,1.8174,1.8705,1.9002,1.9297,1.9608,1.9806,1.9842,1.9676,1.9806,1.9835,1.9676,1.9813,1.9981,2.0084,2.0303,2.0361,2.024,2.0111,1.9822,1.9395,1.9219,1.8985,1.8784,1.8784,1.8677,1.8484,1.839,1.835,1.8343,1.8243,1.8083,1.7769,1.68,1.624,1.5701,1.4083,1.3275,1.2847,1.2037,1.1555,1.1232,1.1232,1.1017,1.0692,1.0692,1.0692,1.0692,1.0692,1.0692,1.0692,1.0692,1.0692,1.0692,1.0692,1.0692,1.0692,1.0692,1.0692,1.0692,1.0692,1.0692,1.0692,1.0692,1.0692,1.0692,1.0692,1.0692,1.0692,1.0692,1.0692,1.0692,1.0692,1.0692,1.0692,1.0692,1.1017,1.1555,1.2358,1.1987,1.1769,1.1769,1.22,1.2575,1.295,1.3706,1.4674,1.5914,1.5914,1.6505,1.7582,1.7582,1.7582,2.1696,2.1696,2.1696,2.1696,0.0,0.0,2.1696,2.1696,2.1806,2.2199,2.1893,2.0969,1.914,1.971,0.0,1.9332,1.9228,1.9228,1.9176,1.852,1.8122,1.837,1.8698,1.9026,1.9272,1.9279,1.9279,1.9279,1.9279,1.9279,1.9279,1.9279,1.9425,1.9801,1.9815,1.9916,2.0176,1.9683,1.9408,1.9401,1.8754,1.849,1.849,1.849,1.8484,1.8464,1.8115,1.7989,1.7962,1.7709,1.7582,1.7582,1.7582,1.6935,1.5914,1.5914,1.5156,1.4137,1.4078,1.3329,1.2417,1.2417,1.161,1.0692,1.0692,1.0692,1.0692,1.0692,1.0692,1.0692,1.0692,1.0692,1.0692,1.0692,1.0692,1.0692,1.0692,1.0692,1.0692,1.0692,1.0692,1.0692,1.0692,1.0692,1.0692,1.0692,1.0692,1.0692,1.0692,1.0692,1.0692,1.0692,1.0747,1.0747,1.0747,1.1769,1.2413,1.2413,1.3491,1.4078,1.4078,1.3009,1.295,1.4078,1.4132,1.4728,1.5914,1.5914,1.6505,1.7582,1.7582,1.7582,2.1696,2.1696,0.0,2.1696,0.0,0.0,0.0,2.1906,0.0,0.0,2.1756,2.1416,2.0137,2.0358,0.0,2.0451,2.0416,2.0107,1.9332,1.8975,1.8722,1.8422,1.8482,1.875,1.9279,1.9279,1.9279,1.9279,1.9279,1.9279,1.9279,1.9279,1.9375,1.947,1.9698,1.9859,1.9901,1.9576,1.9296,1.9024,1.8442,1.8129,1.8129,1.8129,1.8056,1.7849,1.7756,1.7722,1.7716,1.7622,1.7582,1.7582,1.7582,1.7364,1.6988,1.618,1.5695,1.5263,1.4406,1.3329,1.2417,1.2417,1.161,1.0692,1.0692,1.0692,1.0692,1.0692,1.0692,1.0692,1.0692,1.0692,1.0692,1.0692,1.0692,1.0692,1.0692,1.0692,1.0692,1.0692,1.0692,1.0692,1.0692,1.0692,1.0692,1.0692,1.0692,1.0692,1.0692,1.1391,1.1878,1.1878,1.263,1.3112,1.3112,1.3383,1.3976,1.4835,1.44,1.4078,1.4078,1.4567,1.4995,1.5375,1.6127,1.6717,1.71,1.71,1.7259,1.7582,1.7582,1.7582,2.183,2.1785,0.0,2.1696,2.1696,2.1778,2.2099,0.0,0.0,0.0,2.2554,2.2472,2.142,2.1753,0.0,2.1607,2.1548,2.1293,2.0621,1.9738,1.9183,1.9094,1.8684,1.8639,1.922,1.9279,1.9279,1.9279,1.9279,1.9279,1.9279,1.9279,1.9279,1.9279,1.9522,1.9625,1.9625,1.9334,1.9113,1.8876,1.8297,1.7976,1.7976,1.7862,1.7762,1.7582,1.7582,1.7582,1.7582,1.7582,1.7582,1.7582,1.7582,1.7582,1.7529,1.6829,1.6558,1.6452,1.5749,1.4728,1.3814,1.3814,1.2684,1.1391,1.1391,1.1067,1.0692,1.0692,1.0692,1.0692,1.0692,1.0692,1.0692,1.0692,1.0692,1.0692,1.0692,1.0692,1.0692,1.0692,1.0692,1.0692,1.0692,1.0692,1.0692,1.0692,1.1072,1.1555,1.1987,1.263,1.3058,1.3058,1.3706,1.4078,1.4078,1.4567,1.5108,1.5861,1.5642,1.5476,1.5476,1.5749,1.6127,1.6558,1.7259,1.7582,1.7582,1.7582,1.7582,1.7582,1.7582,1.7641,2.2008,2.1919,0.0,2.1696,2.1696,0.0,2.2721,2.2904,2.3032,2.3462,0.0,2.3895,2.2837,2.3488,2.3845,2.2828,2.2627,2.2627,2.2526,2.0775,1.9702,2.0122,1.925,1.884,1.948,1.9376,1.9324,1.9428,1.9376,1.9279,1.9279,1.9279,1.9279,1.9279,1.9279,1.9279,1.9279,1.9026,1.8921,1.8869,1.8286,1.8016,1.7964,1.7747,1.7582,1.7582,1.7582,1.7582,1.7582,1.7582,1.7582,1.7582,1.7582,1.7582,1.7582,1.7582,1.7582,1.7582,1.7582,1.6829,1.5914,1.5914,1.4406,1.2575,1.2575,1.1823,1.1017,1.1017,1.1017,1.1017,1.1017,1.0907,1.0852,1.1017,1.0857,1.0692,1.0692,1.0692,1.0747,1.0852,1.0852,1.0907,1.1017,1.1017,1.1017,1.1017,1.1878,1.295,1.3976,1.4186,1.4239,1.4239,1.4352,1.44,1.44,1.5429,1.6074,1.6074,1.7041,1.7582,1.7582,1.6611,1.6558,1.7582,1.7582,1.7582,1.7582,1.7582,1.7582,1.7582,1.7635,1.7747,2.1874,2.1919,0.0,0.0,2.1696,2.1906,2.2721,2.2904,2.3105,2.3877,2.4137,2.4152,2.3895,2.4053,2.4102,2.3895,2.3845,2.3538,2.2627,2.2114,2.1599,2.1081,2.0277,2.0174,2.1387,2.0181,1.9628,2.0483,1.9783,1.9279,1.9279,1.9279,1.9279,1.9279,1.9279,1.9279,1.9279,1.9026,1.8921,1.8869,1.8286,1.8016,1.7964,1.7747,1.7582,1.7582,1.7582,1.7582,1.7582,1.7582,1.7582,1.7582,1.7582,1.7582,1.7582,1.7582,1.7582,1.7582,1.7582,1.6829,1.5914,1.5914,1.4942,1.3706,1.3706,1.3545,1.3383,1.3383,1.3383,1.3383,1.3383,1.2684,1.2254,1.3166,1.1987,1.0692,1.0692,1.0692,1.0962,1.1878,1.2041,1.2309,1.3221,1.3383,1.3383,1.3383,1.3599,1.3809,1.4078,1.4942,1.5535,1.5535,1.6287,1.6829,1.6829,1.7094,1.7206,1.7206,1.7477,1.7582,1.7582,1.7364,1.7364,1.7582,1.7582,1.7582,1.7582,1.7582,1.7582,1.7635,1.7799,1.7964,2.222,0.0,0.0,2.1731,0.0,2.1851,2.2465,2.2757,2.3078,2.373,2.4064,2.4202,2.4202,2.4202,2.4202,2.4202,2.4202,2.4003,2.3388,2.2828,2.2426,2.2257,2.1438,2.1234,2.219,2.1387,2.1038,2.1633,2.068,2.0086,2.0086,1.9576,1.9279,1.9279,1.9279,1.9279,1.9279,1.9175,1.9071,1.9078,1.8489,1.8062,1.7799,1.7635,1.7582,1.7582,1.7582,1.7582,1.7582,1.7582,1.7582,1.7582,1.7582,1.7582,1.7582,1.7582,1.7582,1.7582,1.7582,1.7206,1.6717,1.6717,1.5914,1.4942,1.4942,1.4567,1.4078,1.4078,1.4078,1.4078,1.4078,1.3652,1.3383,1.397,1.2792,1.1664,1.22,1.2309,1.2521,1.3112,1.3221,1.3383,1.4024,1.4078,1.4298,1.4888,1.4942,1.5156,1.5695,1.634,1.6717,1.6717,1.7259,1.7582,1.7582,1.7582,1.7582,1.7582,1.7582,1.7582,1.7582,1.7582,1.7582,1.7582,1.7582,1.7635,1.7799,1.7799,1.7852,1.8003,1.8115,1.8279,2.2662,0.0,2.183,2.1785,2.1785,0.0,2.2236,2.2547,2.2931,2.3398,2.3868,2.4202,2.4202,2.4202,2.4202,2.4202,2.4202,2.4202,2.4251,2.3388,2.2979,2.3529,2.261,2.2249,2.2894,2.2693,2.2584,2.2735,2.1785,2.1081,2.0885,2.0078,1.948,1.9331,1.9279,1.9279,1.9279,1.9279,1.9279,1.9272,1.8691,1.816,1.7687,1.7635,1.7582,1.7582,1.7582,1.7582,1.7582,1.7582,1.7582,1.7582,1.7582,1.7582,1.7582,1.7582,1.7582,1.7582,1.7582,1.7582,1.7582,1.7582,1.6935,1.618,1.618,1.5482,1.4728,1.4728,1.4728,1.4728,1.4728,1.4567,1.446,1.4674,1.3814,1.3226,1.3922,1.4078,1.4186,1.4347,1.4567,1.4728,1.4728,1.4728,1.5049,1.6021,1.618,1.6505,1.7477,1.7582,1.7582,1.7582,1.7582,1.7582,1.7582,1.7582,1.7582,1.7582,1.7582,1.7582,1.7582,1.7635,1.7687,1.7687,1.7687,1.7799,1.8016,1.8069,1.8167,1.8422,1.8482,1.8646,0.0,0.0,2.2264,0.0,2.2052,2.211,0.0,0.0,2.2574,0.0,2.3868,2.4202,2.4202,2.4202,2.4202,2.4202,2.4202,2.4251,2.444,2.4192,2.4143,2.4637,2.3728,2.3569,2.4824,2.3452,2.2894,2.384,2.2885,2.1887,2.0936,2.0783,2.0285,1.9331,1.9279,1.9279,1.9279,1.9279,1.9279,1.9272,1.8691,1.8213,1.7964,1.7694,1.7582,1.7582,1.7582,1.7582,1.7582,1.7582,1.7582,1.7582,1.7582,1.7582,1.7582,1.7582,1.7582,1.7582,1.7582,1.7582,1.7582,1.7582,1.7477,1.7364,1.7364,1.7259,1.7147,1.7147,1.7147,1.7147,1.7147,1.6399,1.5914,1.6882,1.6234,1.5215,1.4298,1.4078,1.44,1.5482,1.6452,1.7147,1.7147,1.7147,1.7206,1.7364,1.7364,1.7417,1.7582,1.7582,1.7582,1.7582,1.7582,1.7582,1.7582,1.7582,1.7582,1.7582,1.7582,1.7582,1.7582,1.7799,1.7964,1.7964,1.7964,1.7964,1.8016,1.822,1.837,1.8422,1.8705,1.8869,2.2485,2.253,2.2574,0.0,2.2264,2.2267,2.2356,0.0,2.2658,2.3103,2.3474,2.3814,2.4119,2.4202,2.4251,2.4341,2.439,2.444,2.4686,2.4637,2.4735,2.5088,2.4686,2.4735,2.543,2.4775,2.451,2.4971,2.3998,2.3185,2.2735,2.1532,2.0688,2.0233,1.9628,1.9279,1.9279,1.9279,1.9227,1.9071,1.8639,1.8272,1.7964,1.7747,1.7582,1.7582,1.7582,1.7582,1.7582,1.7582,1.7582,1.7582,1.7582,1.7582,1.7582,1.7582,1.7582,1.7582,1.7582,1.7582,1.7582,1.7582,1.7582,1.7582,1.7582,1.7582,1.7582,1.7582,1.7582,1.7582,1.7582,1.7206,1.6988,1.7477,1.7206,1.6717,1.618,1.6068,1.6234,1.6776,1.7259,1.7582,1.7582,1.7582,1.7582,1.7582,1.7582,1.7582,1.7582,1.7582,1.7582,1.7582,1.7582,1.7582,1.7582,1.7582,1.7582,1.7582,1.7747,1.7799,1.7799,1.8062,1.822,1.822,1.822,1.8331,1.8496,1.86,1.875,1.89,1.9071,1.9123,0.0,0.0,2.2838,2.2574,2.2485,2.2485,0.0,0.0,2.2698,0.0,2.3129,2.3392,2.3964,2.4177,2.4328,2.4569,2.4587,2.4686,2.4981,2.4932,2.503,2.5333,2.5333,2.5391,2.5684,2.5693,2.5693,2.5693,2.4962,2.4393,2.4088,2.2584,2.1438,2.0936,2.013,1.9576,1.9279,1.9279,1.9175,1.9026,1.8698,1.8436,1.8233,1.7852,1.7687,1.7694,1.7635,1.7582,1.7582,1.7582,1.7582,1.7582,1.7582,1.7582,1.7582,1.7582,1.7582,1.7582,1.7582,1.7582,1.7582,1.7582,1.7582,1.7582,1.7582,1.7582,1.7582,1.7582,1.7582,1.7582,1.7582,1.7582,1.7582,1.7582,1.7582,1.7582,1.7582,1.7582,1.7582,1.7582,1.7582,1.7582,1.7582,1.7582,1.7582,1.7582,1.7582,1.7582,1.7582,1.7582,1.7582,1.7582,1.7582,1.7582,1.7582,1.7582,1.7635,1.7694,1.7911,1.8016,1.8122,1.8384,1.8534,1.8534,1.8586,1.8698,1.8921,1.8974,1.9078,1.9279,1.9279,1.9279,0.0,2.3057,0.0,2.2847,2.2803,0.0,0.0,0.0,2.2539,2.2926,2.3021,2.3182,2.3654,2.4051,2.4429,2.4826,2.4883,2.4981,2.5235,2.5088,2.5079,2.5635,2.543,2.5391,2.5684,2.5693,2.5693,2.5693,2.5635,2.5167,2.4137,2.3989,2.2985,2.0987,2.0834,2.0336,1.9331,1.9279,1.9272,1.9279,1.9026,1.8869,1.8817,1.8233,1.7964,1.7964,1.7694,1.7582,1.7582,1.7582,1.7582,1.7582,1.7582,1.7582,1.7582,1.7582,1.7582,1.7582,1.7582,1.7582,1.7582,1.7582,1.7582,1.7582,1.7582,1.7582,1.7582,1.7582,1.7582,1.7582,1.7582,1.7582,1.7582,1.7582,1.7582,1.7582,1.7582,1.7582,1.7582,1.7582,1.7582,1.7582,1.7582,1.7582,1.7582,1.7582,1.7582,1.7582,1.7582,1.7582,1.7582,1.7582,1.7582,1.7582,1.7582,1.7582,1.7694,1.7964,1.7964,1.8115,1.837,1.8705,1.8869,1.8869,1.9123,1.9123,1.8921,1.9175,1.9279,1.9279,1.9279,1.9279,0.0,0.0,0.0,2.3013,2.3013,2.2969,2.2872,2.275,2.2744,2.3021,2.2971,2.306,2.3628,2.383,2.4022,2.4288,2.4307,2.4497,2.5072,2.5111,2.5218,2.5654,2.5635,2.5586,2.5684,2.5693,2.5693,2.5693,2.5693,2.5528,2.5167,2.4452,2.3741,2.2985,2.1633,2.038,1.9324,1.9279,1.9279,1.9279,1.9026,1.8921,1.8869,1.8436,1.8167,1.7964,1.7911,1.7747,1.7582,1.7582,1.7582,1.7582,1.7582,1.7582,1.7582,1.7582,1.7582,1.7582,1.7582,1.7582,1.7582,1.7582,1.7582,1.7582,1.7582,1.7582,1.7582,1.7582,1.7582,1.7582,1.7582,1.7582,1.7582,1.7582,1.7582,1.7582,1.7582,1.7582,1.7582,1.7582,1.7582,1.7582,1.7582,1.7582,1.7582,1.7582,1.7582,1.7582,1.7582,1.7582,1.7582,1.7582,1.7747,1.7859,1.7859,1.801,1.816,1.8272,1.8443,1.8608,1.8705,1.9018,1.9175,1.9175,1.9279,1.9279,1.9175,1.9279,1.9279,1.9279,1.9279,1.9279,2.3178,0.0,0.0,0.0,0.0,2.3091,2.3091,0.0,2.2925,2.3057,2.3013,2.3057,2.3471,2.3548,2.3645,2.4042,2.4127,2.4326,2.4805,2.4853,2.4961,2.5206,2.5245,2.5245,2.5245,2.5245,2.5245,2.5245,2.543,2.5518,2.5518,2.4935,2.4452,2.4088,2.2391,2.0936,1.9835,1.9828,1.968,1.9279,1.9123,1.9026,1.9026,1.8698,1.8436,1.8122,1.8016,1.7859,1.7582,1.7582,1.7582,1.7582,1.7582,1.7582,1.7582,1.7582,1.7582,1.7582,1.7582,1.7582,1.7582,1.7582,1.7582,1.7582,1.7582,1.7582,1.7582,1.7582,1.7582,1.7582,1.7582,1.7582,1.7582,1.7582,1.7582,1.7582,1.7582,1.7582,1.7582,1.7582,1.7582,1.7582,1.7582,1.7582,1.7582,1.7582,1.7582,1.7582,1.7582,1.7582,1.7635,1.7747,1.7911,1.8016,1.8122,1.8325,1.8422,1.8534,1.8757,1.8921,1.9026,1.9227,1.9279,1.9279,1.9279,1.9279,1.9279,1.9279,1.9279,1.9279,1.9279,1.9279,0.0,0.0,0.0,0.0,0.0,0.0,2.3101,2.3091,2.3091,2.3091,2.3091,2.3091,2.3091,2.3091,2.3364,2.4238,2.4385,2.4385,2.4394,2.4394,2.4404,2.4414,2.4414,2.4414,2.4414,2.4414,2.4414,2.4414,2.4805,2.5096,2.5096,2.5478,2.5206,2.4137,2.3085,2.2038,2.0987,2.0936,2.038,1.9331,1.9324,1.9279,1.9272,1.9026,1.8705,1.837,1.8122,1.7852,1.7582,1.7582,1.7582,1.7582,1.7582,1.7582,1.7582,1.7582,1.7582,1.7582,1.7582,1.7582,1.7582,1.7582,1.7582,1.7582,1.7582,1.7582,1.7582,1.7582,1.7582,1.7582,1.7582,1.7582,1.7582,1.7582,1.7582,1.7582,1.7582,1.7582,1.7582,1.7582,1.7582,1.7582,1.7582,1.7582,1.7582,1.7582,1.7582,1.7582,1.7635,1.7635,1.7694,1.7964,1.8016,1.8122,1.837,1.8422,1.8586,1.8869,1.8921,1.9026,1.9279,1.9279,1.9279,1.9279,1.9279,1.9279,1.9279,1.9279,1.9279,1.9279,1.9279,1.9279,2.5105,0.0,0.0,0.0,0.0,0.0,2.3266,2.3091,2.3091,2.3091,2.3091,2.3091,2.3091,2.3091,2.3169,2.3413,2.3452,2.3603,2.3916,2.3965,2.4072,2.4385,2.4414,2.4414,2.4414,2.4414,2.4414,0.0,2.4531,2.459,2.459,2.501,2.489,2.4128,2.3791,2.3135,2.2089,2.1285,2.0731,2.0431,1.968,1.9279,1.9279,1.9227,1.8907,1.8422,1.8318,1.8003,1.7582,1.7582,1.7582,1.7582,1.7582,1.7582,1.7582,1.7582,1.7582,1.7582,1.7582,1.7582,1.7582,1.7582,1.7582,1.7582,1.7582,1.7582,1.7582,1.7582,1.7582,1.7582,1.7582,1.7582,1.7582,1.7582,1.7582,1.7582,1.7582,1.7582,1.7582,1.7582,1.7582,1.7582,1.7582,1.7582,1.7582,1.7582,1.7582,1.7687,1.7852,1.7911,1.801,1.8272,1.8489,1.866,1.8757,1.8959,1.9063,1.9175,1.9175,1.9227,1.9279,1.9279,1.9279,1.9279,1.9279,1.9279,1.9279,1.9279,1.9279,1.9279,1.9279,1.9279,0.0,0.0,0.0,0.0,0.0,0.0,2.382,2.3396,2.3091,2.3091,2.3091,2.3091,2.3091,2.3091,2.3091,2.3091,2.3091,2.3188,2.3486,2.3516,2.3603,2.3812,2.3842,2.3842,2.3842,2.3842,2.3842,2.3842,2.4053,2.4228,2.4404,2.4834,2.4928,2.4532,2.4662,2.4254,2.3185,2.2542,2.1785,2.0885,2.0285,1.9732,1.9279,1.9279,1.9063,1.8593,1.8482,1.816,1.7747,1.7635,1.7582,1.7582,1.7582,1.7582,1.7582,1.7582,1.7582,1.7582,1.7582,1.7582,1.7582,1.7582,1.7582,1.7582,1.7582,1.7582,1.7582,1.7582,1.7582,1.7582,1.7582,1.7582,1.7582,1.7582,1.7582,1.7582,1.7582,1.7582,1.7582,1.7582,1.7582,1.7582,1.7582,1.7582,1.7582,1.7582,1.7582,1.7694,1.7964,1.8016,1.8174,1.8593,1.8757,1.8921,1.9078,1.9227,1.9279,1.9279,1.9279,1.9279,1.9279,1.9279,1.9279,1.9279,1.9279,1.9279,1.9279,1.9279,1.9279,1.9279,1.9279,1.9279,0.0,0.0,0.0,0.0,2.5368,0.0,2.4659,2.3897,2.3266,2.3266,2.3178,2.3091,2.3091,2.3091,2.3091,2.3091,2.3091,2.3091,2.3091,2.3091,2.3091,2.3091,2.3091,2.3091,2.3091,2.3091,2.3091,2.3091,2.3496,2.3906,2.4326,2.4717,2.5018,2.5106,2.5449,2.5226,2.4295,2.4137,2.3135,2.1234,2.1132,2.0534,1.948,1.948,1.9279,1.8869,1.8586,1.8325,1.8016,1.7747,1.7635,1.7582,1.7582,1.7582,1.7582,1.7582,1.7582,1.7582,1.7582,1.7582,1.7582,1.7582,1.7582,1.7582,1.7582,1.7582,1.7582,1.7582,1.7582,1.7582,1.7582,1.7582,1.7582,1.7582,1.7582,1.7582,1.7582,1.7582,1.7635,1.7635,1.7635,1.7635,1.7635,1.7687,1.7687,1.7687,1.7687,1.7793,1.8069,1.8128,1.8338,1.8869,1.8921,1.9026,1.9279,1.9279,1.9279,1.9279,1.9279,1.9279,1.9279,1.9279,1.9279,1.9279,1.9279,1.9279,1.9279,1.9279,1.9279,1.9279,1.9279,1.9279,0.0,0.0,0.0,0.0,2.6805,0.0,2.5704,2.4861,2.4241,2.4241,2.3647,2.3091,2.3091,2.3091,2.3091,2.3091,2.3091,2.3091,2.3091,2.3091,2.3091,2.3091,2.3091,2.3091,2.3091,2.3091,2.3091,2.3091,2.3169,2.3457,2.3887,2.3994,2.4401,2.5096,2.5204,2.5265,2.5372,2.455,2.389,2.3493,2.2584,2.1641,2.0585,2.0585,1.9983,1.8921,1.8817,1.8593,1.8325,1.801,1.7799,1.7582,1.7582,1.7582,1.7582,1.7582,1.7582,1.7582,1.7582,1.7582,1.7582,1.7582,1.7582,1.7582,1.7582,1.7582,1.7582,1.7582,1.7582,1.7582,1.7582,1.7582,1.7582,1.7582,1.7582,1.7582,1.7582,1.7582,1.7635,1.7859,1.7911,1.7911,1.7911,1.8115,1.8265,1.8265,1.8265,1.8377,1.866,1.8712,1.8869,1.9175,1.9227,1.9227,1.9279,1.9279,1.9279,1.9279,1.9279,1.9279,1.9279,1.9279,1.9279,1.9279,1.9279,1.9279,1.9279,1.9279,1.9279,1.9279,1.9279,1.9279,0.0,0.0,0.0,2.8115,2.7592,0.0,0.0,2.5788,2.5158,2.5158,2.4776,2.4317,2.3864,2.382,2.3647,2.3178,2.3091,2.3091,2.3091,2.3091,2.3091,2.3091,2.3091,2.3091,2.3091,2.3091,2.3091,2.3091,2.3091,2.3188,2.3457,2.3672,2.3984,2.4414,2.4891,2.5223,2.54,2.5062,2.4609,2.4088,2.3534,2.2735,2.1684,2.1132,2.0534,1.9879,1.9175,1.8817,1.8646,1.8325,1.8115,1.795,1.7687,1.7582,1.7582,1.7582,1.7582,1.7582,1.7582,1.7582,1.7582,1.7582,1.7582,1.7582,1.7582,1.7582,1.7582,1.7582,1.7582,1.7582,1.7582,1.7582,1.7582,1.7582,1.7687,1.7799,1.7799,1.7905,1.8055,1.8167,1.8331,1.8391,1.822,1.8318,1.8422,1.8422,1.8422,1.8534,1.8869,1.8921,1.9026,1.9272,1.9279,1.9279,1.9279,1.9279,1.9279,1.9279,1.9279,1.9279,1.9279,1.9279,1.9279,1.9279,1.9279,1.9279,1.9279,1.9828,1.9828,1.9279,1.9279,1.9583,0.0,0.0,0.0,0.0,0.0,2.7551,0.0,0.0,0.0,2.608,2.5913,2.5568,0.0,0.0,0.0,2.3365,0.0,0.0,0.0,2.3042,0.0,2.3091,2.3091,2.3091,2.3091,2.3091,2.3091,2.3091,2.3091,2.3091,2.3091,2.3467,2.3701,2.3789,2.4463,2.4949,2.5116,2.543,2.5188,2.4402,2.4402,2.385,2.2785,2.1684,2.1081,2.0834,1.9532,1.8974,1.8974,1.8646,1.8482,1.8429,1.795,1.774,1.774,1.774,1.774,1.7687,1.7687,1.7635,1.7582,1.7582,1.7582,1.7582,1.7582,1.7582,1.7582,1.7582,1.7582,1.7582,1.7582,1.7635,1.7687,1.7687,1.7905,1.8069,1.8069,1.8272,1.8422,1.8475,1.8705,1.8817,1.8534,1.8534,1.8579,1.8579,1.8579,1.8691,1.8921,1.8974,1.9078,1.9279,1.9279,1.9279,1.9279,1.9279,1.9279,1.9279,1.9279,1.9279,1.9279,1.9279,1.9279,1.9279,1.948,1.9628,1.9628,2.0688,2.0688,1.9628,1.9828,2.038,0.0,0.0,0.0,0.0,2.8961,0.0,2.8673,0.0,2.7273,2.7092,0.0,2.5777,2.5652,0.0,0.0,0.0,0.0,0.0,2.2637,2.2867,2.3091,2.3091,2.3091,2.3091,2.3091,2.3091,2.3091,2.3091,2.3091,2.3091,2.3091,2.314,2.3389,2.3779,2.3887,2.4297,2.5106,2.5165,2.5294,2.5528,2.5528,2.4971,2.389,2.2793,2.1785,2.0834,1.9732,1.9279,1.9227,1.8974,1.8817,1.8817,1.8429,1.8318,1.8318,1.8318,1.8167,1.7964,1.7964,1.7799,1.7582,1.7582,1.7582,1.7582,1.7582,1.7582,1.7582,1.7582,1.7582,1.7582,1.7582,1.7799,1.7964,1.7964,1.8167,1.837,1.837,1.837,1.8482,1.881,1.8869,1.8869,1.8869,1.9018,1.922,1.922,1.922,1.922,1.9279,1.9279,1.9279,1.9279,1.9279,1.9279,1.9279,1.9279,1.9279,1.9279,1.9279,1.9279,1.9279,1.9279,1.9279,1.9279,2.0233,2.0731,2.0731,2.1785,2.1785,2.0731,2.1684,2.219,0.0,0.0,0.0,0.0,0.0,0.0,2.9,0.0,2.8383,0.0,0.0,0.0,0.0,0.0,0.0,0.0,2.4033,2.3664,0.0,0.0,2.3091,2.3091,0.0,0.0,2.3091,2.3091,2.3091,2.3091,2.3091,2.3091,2.3091,2.3091,2.3179,2.3408,2.3662,2.3965,2.4326,2.4861,2.5166,2.5352,2.5567,2.5479,2.4962,2.3899,2.2835,2.1785,2.068,1.9879,1.9272,1.9175,1.9123,1.9123,1.8959,1.8691,1.8422,1.8422,1.8325,1.822,1.8069,1.801,1.8055,1.7905,1.7957,1.8055,1.7905,1.7852,1.7852,1.8003,1.795,1.7852,1.8003,1.8167,1.822,1.822,1.8489,1.8698,1.8698,1.8803,1.8959,1.9123,1.9123,1.9123,1.9123,1.9227,1.9279,1.9279,1.9279,1.9279,1.9279,1.9279,1.9279,1.9279,1.9279,1.9279,1.9279,1.9279,1.9279,1.9279,1.9279,1.9279,1.9279,1.9879,2.0233,2.0233,2.1285,2.1836,2.1836,2.2894,2.3185,2.2735,2.2584,2.2835,2.9792,0.0,0.0,0.0,0.0,0.0,0.0,0.0,0.0,0.0,0.0,0.0,0.0,0.0,0.0,0.0,0.0,2.4575,0.0,2.3567,0.0,0.0,0.0,0.0,0.0,2.3091,2.3091,2.3091,2.3091,2.3091,2.3091,2.3091,2.3091,2.3091,2.3447,2.3672,2.3789,2.445,2.4822,2.4893,2.5215,2.5391,2.5508,2.4431,2.3583,2.2885,2.1785,2.0739,1.9732,1.9732,1.9583,1.9279,1.9279,1.9011,1.8639,1.8639,1.8586,1.8489,1.8331,1.8331,1.837,1.8167,1.822,1.837,1.8174,1.8122,1.8167,1.837,1.8272,1.8167,1.837,1.8482,1.8534,1.8534,1.8757,1.9026,1.9026,1.9175,1.9279,1.9279,1.9279,1.9279,1.9279,1.9279,1.9279,1.9279,1.9279,1.9279,1.9279,1.9279,1.9279,1.9279,1.9279,1.9279,1.9279,1.9279,1.9428,1.9732,2.0027,2.0181,2.0181,2.0936,2.1336,2.1336,2.2383,2.2935,2.2935,2.3998,2.455,2.4501,2.375,2.38,0.0,0.0,0.0,2.9792,0.0,0.0,0.0,0.0,2.9341,0.0,0.0,0.0,0.0,0.0,0.0,0.0,0.0,0.0,0.0,0.0,0.0,0.0,0.0,0.0,0.0,2.3091,2.3091,2.3091,2.3091,2.3091,2.3091,2.3091,2.3091,2.3091,2.311,2.3315,2.3789,2.3818,2.4033,2.4443,2.4453,2.4678,2.5088,2.401,2.373,2.3989,2.2885,2.1836,2.0834,2.0834,2.0233,1.9279,1.9279,1.9272,1.9272,1.9272,1.9123,1.8869,1.8869,1.8646,1.8422,1.837,1.837,1.8422,1.837,1.837,1.837,1.8422,1.837,1.837,1.8422,1.8646,1.8869,1.8869,1.9071,1.9279,1.9279,1.9272,1.9279,1.9279,1.9279,1.9279,1.9279,1.9279,1.9279,1.9279,1.9279,1.9279,1.9279,1.9279,1.9279,1.9279,1.9279,1.9279,1.9279,1.9279,1.9732,2.0783,2.1836,2.2391,2.2391,2.2433,2.2442,2.2442,2.3493,2.4038,2.4038,2.5118,2.5635,2.5635,2.5586,2.5635,0.0,0.0,2.9792,2.9792,0.0,0.0,0.0,0.0,0.0,0.0,0.0,0.0,0.0,0.0,0.0,0.0,0.0,0.0,0.0,0.0,2.4541,2.4069,0.0,0.0,0.0,0.0,2.3091,2.3091,2.3091,2.3091,2.3091,2.3091,2.3091,2.3091,2.3091,2.3169,2.3359,2.3643,2.3867,2.4004,2.4287,2.4492,2.4639,2.4591,2.4258,2.3712,2.3574,2.2935,2.1887,2.1183,2.1081,2.1285,1.9828,1.9732,2.0285,1.9576,1.9227,1.9175,1.9175,1.8966,1.8757,1.8757,1.8855,1.8959,1.8757,1.8757,1.8757,1.8959,1.8855,1.8757,1.8959,1.9063,1.9175,1.9175,1.9227,1.9279,1.9279,1.9279,1.9279,1.9279,1.9279,1.9279,1.9279,1.9279,1.9279,1.9279,1.9279,1.9279,1.9279,1.9279,1.9279,1.9279,1.9279,1.9279,1.9279,1.9931,2.0834,2.1887,2.2291,2.2484,2.2484,2.3185,2.3543,2.3543,2.4609,2.5177,2.5177,2.5528,2.5693,2.5693,2.5693,2.5693,2.9792,2.9792,0.0,2.9792,2.9792,0.0,2.9792,0.0,2.974,0.0,0.0,0.0,0.0,0.0,0.0,0.0,0.0,0.0,0.0,2.5933,0.0,2.4776,2.3854,0.0,0.0,2.3091,2.3091,2.3091,2.3091,2.3091,2.3091,2.3091,2.3091,2.3091,2.3091,2.3091,2.3091,2.3418,2.3555,2.3555,2.3828,2.4043,2.4209,2.4639,2.4582,2.4115,2.448,2.4048,2.3035,2.2341,2.1988,2.1836,2.0834,2.038,2.0233,1.9524,1.9279,1.9279,1.9279,1.9175,1.9026,1.9026,1.9175,1.9279,1.9071,1.9026,1.9049,1.9088,1.9088,1.9049,1.9133,1.9191,1.9279,1.9279,1.9279,1.9279,1.9279,1.9279,1.9279,1.9279,1.9279,1.9428,1.9776,1.9524,1.9279,1.9279,1.9279,1.9279,1.9279,1.9279,1.9428,1.9835,1.9879,2.0034,2.0439,2.1438,2.2333,2.3044,2.3452,2.3651,2.3651,2.4304,2.4773,2.4923,2.5459,2.5762,2.5967,2.5762,2.5693,2.5693,2.5693,2.5693]}]]